[[{"header":{"parameterUnit":"m.s-1","parameterCategory":1,"la1":30.6,"la2":29.2853,"lo1":-89.7004,"lo2":-87.6739,"dy":0.0162,"dx":0.0183,"nx":112,"ny":82,"refTime":"2024-04-18T06:00:00:Z","depth":0,"parameterNumber":2,"parameterNumberName":"U-component_of_WINDS"},"data":[0.0,0.0,0.0,0.0,0.0,0.0,0.0,0.0,0.0,0.0,0.0,0.0,0.0,0.0,0.0,0.0,0.0,0.0,0.0,0.0,0.0,0.0,0.0,0.0,0.0,0.0,0.0,0.0,0.0,0.0,0.0,0.0,0.0,0.0,0.0,0.0,0.0,0.0,0.0,0.0,0.0,0.0,0.0,0.0,0.0,0.0,0.0,0.0,0.0,0.0,0.0,0.0,0.0,0.0,0.0,0.0,0.0,0.0,0.0,0.0,0.0,0.0,0.0,0.0,0.0,0.0,0.0,0.0,0.0,0.0,0.0,0.0,0.0,0.0,0.0,0.0,0.0,0.0,0.0,0.0,0.0,0.0,0.0,0.0,0.0,0.0,0.0,0.0,0.0,0.0,5.5618,5.5684,5.5703,5.5703,5.5703,5.5703,5.5682,5.5596,0.0,0.0,0.0,0.0,0.0,0.0,0.0,0.0,0.0,0.0,0.0,0.0,0.0,0.0,0.0,0.0,0.0,0.0,0.0,0.0,0.0,0.0,0.0,0.0,0.0,0.0,0.0,0.0,0.0,0.0,0.0,0.0,0.0,0.0,0.0,0.0,0.0,0.0,0.0,0.0,0.0,0.0,0.0,0.0,0.0,0.0,0.0,0.0,0.0,0.0,0.0,0.0,0.0,0.0,0.0,0.0,0.0,0.0,0.0,0.0,0.0,0.0,0.0,0.0,0.0,0.0,0.0,0.0,0.0,0.0,0.0,0.0,0.0,0.0,0.0,0.0,0.0,0.0,0.0,0.0,0.0,0.0,0.0,0.0,0.0,0.0,0.0,0.0,0.0,0.0,0.0,0.0,0.0,0.0,0.0,0.0,0.0,0.0,0.0,0.0,0.0,0.0,0.0,0.0,5.5618,5.5684,5.5703,5.5703,5.5703,5.5703,5.564,5.5527,0.0,0.0,0.0,0.0,0.0,0.0,0.0,0.0,0.0,0.0,0.0,0.0,0.0,0.0,0.0,0.0,0.0,0.0,0.0,0.0,0.0,0.0,0.0,0.0,0.0,0.0,0.0,0.0,0.0,0.0,0.0,0.0,0.0,0.0,0.0,0.0,0.0,0.0,0.0,0.0,0.0,0.0,0.0,0.0,0.0,0.0,0.0,0.0,0.0,0.0,0.0,0.0,0.0,0.0,0.0,0.0,0.0,0.0,0.0,0.0,0.0,0.0,0.0,0.0,0.0,0.0,0.0,0.0,0.0,0.0,0.0,0.0,0.0,0.0,0.0,0.0,0.0,0.0,0.0,0.0,0.0,0.0,0.0,0.0,0.0,0.0,0.0,0.0,0.0,0.0,0.0,0.0,0.0,0.0,0.0,0.0,0.0,0.0,0.0,0.0,0.0,0.0,0.0,5.5618,5.5682,5.5703,5.5703,5.5703,5.5703,5.5703,5.564,5.5504,5.5504,0.0,0.0,0.0,0.0,0.0,0.0,0.0,0.0,0.0,0.0,0.0,0.0,0.0,0.0,0.0,0.0,0.0,0.0,0.0,0.0,0.0,0.0,0.0,0.0,0.0,0.0,0.0,0.0,0.0,0.0,0.0,0.0,0.0,0.0,0.0,0.0,0.0,0.0,0.0,0.0,0.0,0.0,0.0,0.0,0.0,0.0,0.0,0.0,0.0,0.0,0.0,0.0,0.0,0.0,0.0,0.0,0.0,0.0,0.0,0.0,0.0,0.0,0.0,0.0,0.0,0.0,0.0,0.0,0.0,0.0,0.0,0.0,0.0,0.0,0.0,0.0,0.0,0.0,0.0,0.0,0.0,0.0,0.0,0.0,0.0,0.0,0.0,0.0,0.0,0.0,0.0,0.0,0.0,0.0,0.0,0.0,0.0,0.0,0.0,0.0,0.0,0.0,5.564,5.5703,5.5703,5.5703,5.5703,5.5703,5.5703,5.564,5.5504,5.5437,0.0,0.0,0.0,0.0,0.0,0.0,0.0,0.0,0.0,0.0,0.0,0.0,0.0,0.0,0.0,0.0,0.0,0.0,0.0,0.0,0.0,0.0,0.0,0.0,0.0,0.0,0.0,0.0,0.0,0.0,0.0,0.0,0.0,0.0,0.0,0.0,0.0,0.0,0.0,0.0,0.0,0.0,0.0,0.0,0.0,0.0,0.0,0.0,0.0,0.0,0.0,0.0,0.0,0.0,0.0,0.0,0.0,0.0,0.0,0.0,0.0,0.0,0.0,0.0,0.0,0.0,0.0,0.0,0.0,0.0,0.0,0.0,0.0,0.0,0.0,0.0,0.0,0.0,0.0,0.0,0.0,0.0,0.0,0.0,0.0,0.0,0.0,0.0,0.0,0.0,0.0,0.0,0.0,0.0,0.0,0.0,0.0,0.0,0.0,0.0,0.0,0.0,5.5618,5.5703,5.5703,5.5703,5.5703,5.5703,5.5703,5.564,5.5504,5.5224,0.0,0.0,0.0,0.0,0.0,0.0,0.0,0.0,0.0,0.0,0.0,0.0,0.0,0.0,0.0,0.0,0.0,0.0,0.0,0.0,0.0,0.0,0.0,0.0,0.0,0.0,0.0,0.0,0.0,0.0,0.0,0.0,0.0,0.0,0.0,0.0,0.0,0.0,0.0,0.0,0.0,0.0,0.0,0.0,0.0,0.0,0.0,0.0,0.0,0.0,0.0,0.0,0.0,0.0,0.0,0.0,0.0,0.0,0.0,0.0,0.0,0.0,0.0,0.0,0.0,0.0,0.0,0.0,0.0,0.0,0.0,0.0,0.0,0.0,0.0,0.0,0.0,0.0,0.0,0.0,0.0,0.0,0.0,0.0,0.0,0.0,0.0,0.0,0.0,0.0,0.0,0.0,0.0,0.0,0.0,0.0,0.0,0.0,0.0,0.0,0.0,0.0,5.5573,5.564,0.0,5.5703,5.5703,5.5703,5.5703,5.564,5.5504,0.0,0.0,0.0,0.0,0.0,0.0,0.0,0.0,0.0,0.0,0.0,0.0,0.0,0.0,0.0,0.0,0.0,0.0,0.0,0.0,0.0,0.0,0.0,0.0,0.0,0.0,0.0,0.0,0.0,0.0,0.0,0.0,0.0,0.0,0.0,0.0,0.0,0.0,0.0,0.0,0.0,0.0,0.0,0.0,0.0,0.0,0.0,0.0,0.0,0.0,0.0,0.0,0.0,0.0,0.0,0.0,0.0,0.0,0.0,0.0,0.0,0.0,0.0,0.0,0.0,0.0,0.0,0.0,0.0,0.0,0.0,0.0,0.0,0.0,0.0,0.0,0.0,0.0,0.0,0.0,0.0,0.0,0.0,0.0,0.0,0.0,0.0,0.0,0.0,0.0,0.0,0.0,0.0,0.0,0.0,0.0,0.0,0.0,0.0,0.0,0.0,0.0,5.5456,5.5527,5.5573,0.0,5.566,5.566,5.566,5.566,5.5596,5.548,0.0,0.0,0.0,0.0,0.0,0.0,0.0,0.0,0.0,0.0,0.0,0.0,0.0,0.0,0.0,0.0,0.0,0.0,0.0,0.0,0.0,0.0,0.0,0.0,0.0,0.0,0.0,0.0,0.0,0.0,0.0,0.0,0.0,0.0,0.0,0.0,0.0,0.0,0.0,0.0,0.0,0.0,0.0,0.0,0.0,0.0,0.0,0.0,0.0,0.0,0.0,0.0,0.0,0.0,0.0,0.0,0.0,0.0,0.0,0.0,0.0,0.0,0.0,0.0,0.0,0.0,0.0,0.0,0.0,0.0,0.0,0.0,0.0,0.0,0.0,0.0,0.0,0.0,0.0,0.0,0.0,0.0,0.0,0.0,0.0,0.0,0.0,0.0,0.0,0.0,0.0,0.0,0.0,0.0,0.0,0.0,0.0,0.0,0.0,0.0,0.0,0.0,5.5408,5.5456,5.5504,5.5504,5.5504,5.5504,5.5504,5.5504,5.548,0.0,0.0,0.0,0.0,0.0,0.0,0.0,0.0,0.0,0.0,0.0,0.0,0.0,0.0,0.0,0.0,0.0,0.0,0.0,0.0,0.0,0.0,0.0,0.0,0.0,0.0,0.0,0.0,0.0,0.0,0.0,0.0,0.0,0.0,0.0,0.0,0.0,0.0,0.0,0.0,0.0,0.0,0.0,0.0,0.0,0.0,0.0,0.0,0.0,0.0,0.0,0.0,0.0,0.0,0.0,0.0,0.0,0.0,0.0,0.0,0.0,0.0,0.0,0.0,0.0,0.0,0.0,0.0,0.0,0.0,0.0,0.0,0.0,0.0,0.0,0.0,0.0,0.0,0.0,0.0,0.0,0.0,0.0,0.0,0.0,0.0,0.0,0.0,0.0,0.0,0.0,0.0,0.0,0.0,0.0,0.0,0.0,0.0,0.0,0.0,0.0,0.0,0.0,5.5383,5.5432,5.5456,5.5504,5.5504,5.5504,5.5504,5.5504,5.548,5.5408,0.0,0.0,0.0,0.0,0.0,0.0,0.0,0.0,0.0,0.0,0.0,0.0,0.0,0.0,0.0,0.0,0.0,0.0,0.0,0.0,0.0,0.0,0.0,0.0,0.0,0.0,0.0,0.0,0.0,0.0,0.0,0.0,0.0,0.0,0.0,0.0,0.0,0.0,0.0,0.0,0.0,0.0,0.0,0.0,0.0,0.0,0.0,0.0,0.0,0.0,0.0,0.0,0.0,0.0,0.0,0.0,0.0,0.0,0.0,0.0,0.0,0.0,0.0,0.0,0.0,0.0,0.0,0.0,0.0,0.0,0.0,0.0,0.0,0.0,0.0,0.0,0.0,0.0,0.0,0.0,0.0,0.0,0.0,0.0,0.0,0.0,0.0,0.0,0.0,0.0,0.0,0.0,0.0,0.0,0.0,0.0,0.0,0.0,0.0,0.0,0.0,0.0,5.5307,5.5377,5.5421,5.547,5.547,5.547,5.547,5.547,5.5446,5.5396,0.0,0.0,0.0,0.0,0.0,0.0,0.0,0.0,0.0,0.0,0.0,0.0,0.0,0.0,0.0,0.0,0.0,0.0,0.0,0.0,0.0,0.0,0.0,0.0,0.0,0.0,0.0,0.0,0.0,0.0,0.0,0.0,0.0,0.0,0.0,0.0,0.0,0.0,0.0,0.0,0.0,0.0,0.0,0.0,0.0,0.0,0.0,0.0,0.0,0.0,0.0,0.0,0.0,0.0,0.0,0.0,0.0,0.0,0.0,0.0,0.0,0.0,0.0,0.0,0.0,0.0,0.0,0.0,0.0,0.0,0.0,0.0,0.0,0.0,0.0,0.0,0.0,0.0,0.0,0.0,0.0,0.0,0.0,0.0,0.0,0.0,0.0,0.0,0.0,0.0,0.0,0.0,0.0,0.0,0.0,0.0,0.0,0.0,0.0,0.0,0.0,0.0,5.5183,5.5313,5.5403,5.5403,5.5403,5.5403,5.5403,5.5403,5.5377,5.5332,0.0,0.0,0.0,0.0,0.0,0.0,0.0,0.0,0.0,0.0,0.0,0.0,0.0,0.0,0.0,0.0,0.0,0.0,0.0,0.0,0.0,0.0,0.0,0.0,0.0,0.0,0.0,0.0,0.0,0.0,0.0,0.0,0.0,0.0,0.0,0.0,0.0,0.0,0.0,0.0,0.0,0.0,0.0,0.0,0.0,0.0,0.0,0.0,0.0,0.0,0.0,0.0,0.0,0.0,0.0,0.0,0.0,0.0,0.0,0.0,5.8894,0.0,0.0,0.0,0.0,0.0,0.0,0.0,0.0,0.0,0.0,0.0,0.0,0.0,0.0,0.0,0.0,0.0,0.0,0.0,0.0,0.0,0.0,0.0,0.0,0.0,0.0,0.0,0.0,0.0,0.0,0.0,0.0,0.0,0.0,0.0,0.0,0.0,0.0,0.0,0.0,0.0,5.5183,5.5313,5.5403,5.5403,5.5403,5.5403,5.5403,5.5294,5.5102,5.4798,5.4168,0.0,0.0,0.0,0.0,0.0,0.0,0.0,0.0,0.0,0.0,0.0,0.0,0.0,0.0,0.0,0.0,0.0,0.0,0.0,0.0,0.0,0.0,0.0,0.0,0.0,0.0,0.0,0.0,0.0,0.0,0.0,0.0,0.0,0.0,0.0,0.0,0.0,0.0,0.0,0.0,0.0,0.0,0.0,0.0,0.0,0.0,0.0,0.0,0.0,0.0,0.0,0.0,0.0,0.0,0.0,0.0,0.0,0.0,0.0,0.0,5.9377,0.0,0.0,0.0,0.0,0.0,0.0,0.0,0.0,0.0,0.0,0.0,0.0,0.0,0.0,0.0,0.0,0.0,0.0,0.0,0.0,0.0,0.0,0.0,0.0,0.0,0.0,0.0,0.0,0.0,0.0,0.0,0.0,0.0,0.0,0.0,0.0,0.0,0.0,0.0,0.0,5.6293,5.6387,5.6309,5.5927,5.587,5.5698,5.5279,5.5,5.4769,5.4579,5.3832,0.0,0.0,0.0,0.0,0.0,0.0,0.0,0.0,0.0,0.0,0.0,0.0,0.0,0.0,0.0,0.0,0.0,0.0,0.0,0.0,0.0,0.0,0.0,0.0,0.0,0.0,0.0,0.0,0.0,0.0,0.0,0.0,0.0,0.0,0.0,0.0,0.0,0.0,0.0,0.0,0.0,0.0,0.0,0.0,0.0,0.0,0.0,0.0,0.0,0.0,0.0,0.0,0.0,6.166,6.2116,6.2258,6.2315,6.2683,6.3168,6.2046,6.1543,6.1505,0.0,0.0,0.0,0.0,0.0,0.0,0.0,0.0,0.0,0.0,0.0,0.0,0.0,0.0,0.0,0.0,0.0,0.0,0.0,0.0,0.0,0.0,0.0,0.0,0.0,5.8233,5.8158,0.0,0.0,0.0,0.0,0.0,0.0,0.0,0.0,0.0,0.0,0.0,0.0,5.7457,5.7487,5.7222,5.6519,5.6443,5.6023,5.5102,5.4711,5.442,5.4236,5.3357,5.2773,0.0,0.0,0.0,0.0,0.0,0.0,0.0,0.0,0.0,0.0,0.0,0.0,0.0,0.0,0.0,0.0,0.0,0.0,0.0,0.0,0.0,0.0,0.0,0.0,0.0,0.0,0.0,0.0,0.0,0.0,0.0,0.0,5.6606,5.6606,0.0,0.0,0.0,0.0,0.0,0.0,0.0,0.0,0.0,0.0,0.0,0.0,0.0,5.9299,6.0065,6.03,6.1157,6.2676,6.3418,6.4134,6.4835,6.5472,6.5746,6.5644,6.4038,0.0,6.3342,6.3226,0.0,0.0,0.0,0.0,0.0,0.0,0.0,0.0,0.0,0.0,0.0,0.0,0.0,0.0,0.0,0.0,0.0,0.0,0.0,0.0,0.0,0.0,6.0119,5.9998,5.997,5.9921,0.0,5.8498,5.7354,5.7263,5.7137,0.0,0.0,0.0,0.0,0.0,0.0,0.0,5.7457,5.7264,5.6956,5.67,5.6547,5.6031,5.4858,5.465,5.4137,5.3111,5.2623,5.2177,5.1687,5.1052,0.0,0.0,0.0,0.0,0.0,0.0,0.0,0.0,0.0,0.0,0.0,0.0,0.0,0.0,0.0,0.0,0.0,0.0,0.0,0.0,0.0,0.0,0.0,0.0,0.0,0.0,0.0,0.0,0.0,5.6606,5.6606,5.6606,5.6606,5.6606,0.0,0.0,0.0,0.0,0.0,0.0,0.0,0.0,0.0,5.8636,5.941,6.0005,6.0403,6.136,6.2244,6.3008,6.3828,6.4389,6.4687,6.5009,6.5041,6.4812,6.4077,6.3748,6.3669,6.2699,6.2293,6.2293,0.0,0.0,0.0,0.0,6.1679,6.1621,6.1234,6.1099,0.0,0.0,0.0,0.0,0.0,0.0,0.0,0.0,0.0,0.0,0.0,0.0,0.0,6.0294,6.0216,6.0125,6.0057,5.933,5.8538,0.0,5.7427,5.6882,5.6776,0.0,0.0,0.0,0.0,5.8182,5.8484,5.8181,5.7773,5.7211,5.6888,5.6255,5.5096,5.4319,5.3653,5.2961,5.201,5.1329,5.114,5.053,5.0062,0.0,0.0,0.0,0.0,0.0,0.0,0.0,0.0,0.0,0.0,0.0,0.0,0.0,0.0,0.0,0.0,0.0,0.0,0.0,0.0,0.0,0.0,0.0,0.0,0.0,0.0,0.0,0.0,5.6606,5.6606,5.6606,5.6606,5.6606,0.0,0.0,0.0,0.0,0.0,0.0,5.8226,5.9003,5.9458,5.9514,6.0295,6.083,6.1055,6.2344,6.3105,6.334,6.3984,6.4241,6.4142,6.4152,6.4019,6.3786,6.3554,6.3474,6.3424,6.2305,6.1876,6.1892,6.1892,6.1876,6.1823,6.156,6.1446,6.1408,6.1176,6.1099,6.1099,6.1099,0.0,6.106,6.0978,0.0,0.0,0.0,0.0,6.0552,6.0417,6.0352,6.0284,6.0235,6.0106,5.9963,5.9899,5.97,5.9392,0.0,5.7935,5.7211,5.7135,0.0,0.0,0.0,0.0,5.8887,5.9006,5.8632,5.8061,5.7303,5.6859,5.6142,5.4973,5.3855,5.3053,5.262,5.128,5.053,5.0585,5.0005,4.9615,4.953,0.0,0.0,0.0,0.0,0.0,0.0,0.0,0.0,0.0,0.0,0.0,0.0,0.0,0.0,0.0,0.0,0.0,0.0,0.0,0.0,0.0,0.0,0.0,0.0,0.0,0.0,0.0,0.0,0.0,5.6606,5.6606,0.0,0.0,0.0,0.0,5.7738,5.8538,5.9068,5.9128,5.9909,6.0337,6.0332,6.1172,6.2031,6.2851,6.2969,6.3418,6.4238,6.4277,6.42,6.4013,6.4019,6.3921,6.3742,6.2909,6.259,6.2706,6.3386,6.3712,6.3755,6.3755,6.3728,6.3585,6.2734,6.2391,6.222,6.1389,6.1099,6.1099,6.1099,6.106,6.0997,6.0933,6.0823,0.0,0.0,6.0585,6.0499,6.0417,6.0352,6.0264,6.0076,5.9994,5.9931,5.9685,5.9455,5.9364,0.0,5.9325,5.9103,5.8912,0.0,5.8889,5.8769,5.8642,5.8455,5.8203,5.7813,5.7224,5.6471,5.6043,5.5366,5.4186,5.3224,5.2358,5.1603,5.0455,4.9808,4.9948,4.9394,4.9063,4.9063,4.8673,0.0,0.0,0.0,0.0,0.0,0.0,0.0,0.0,0.0,0.0,0.0,0.0,0.0,0.0,0.0,0.0,0.0,0.0,0.0,0.0,0.0,0.0,0.0,0.0,0.0,0.0,0.0,0.0,5.6606,5.7055,0.0,5.7367,5.8148,5.8656,5.8695,5.9464,5.9947,5.9975,6.0777,6.1248,6.123,6.1543,6.1855,6.2168,6.2168,6.2324,6.2637,6.2578,6.2491,6.2328,6.2318,6.2247,6.2112,6.1885,6.1827,6.1914,6.2199,6.2335,6.2361,6.2361,6.2321,6.221,6.1798,6.1634,6.1524,6.1215,6.1099,6.1099,6.1041,6.1021,6.0976,6.0933,6.08,6.0685,6.0655,6.0552,6.0417,6.0352,6.0216,6.0076,5.9847,5.9782,5.9666,5.9455,5.9178,5.9024,5.9063,5.8926,5.8743,5.8702,5.8638,5.8572,5.8529,5.8023,5.7609,5.7507,5.6768,5.6114,5.5819,5.5432,5.4904,5.4171,5.3366,5.263,5.2016,5.0606,4.9803,4.9848,4.8971,4.8483,4.8483,4.8308,4.8049,0.0,0.0,0.0,0.0,0.0,0.0,0.0,0.0,0.0,0.0,0.0,0.0,0.0,0.0,0.0,0.0,0.0,0.0,0.0,0.0,0.0,0.0,0.0,0.0,0.0,0.0,5.6704,5.6977,5.7484,5.7914,5.8207,5.9026,5.9558,5.9597,6.037,6.0969,6.1269,6.1816,6.2265,6.2578,6.2578,6.2578,6.2578,6.2578,6.2414,6.2096,6.2051,6.1798,6.1386,6.1405,6.1361,6.1313,6.1394,6.1479,6.1537,6.1537,6.1537,6.1537,6.1537,6.1479,6.14,6.1302,6.1186,6.1099,6.1099,6.108,6.1061,6.1021,6.098,6.0955,6.0846,6.0734,6.0635,6.0578,6.0472,6.0352,6.0245,6.0076,5.9847,5.9696,5.9578,5.9419,5.9178,5.8945,5.8784,5.8679,5.8553,5.8486,5.8486,5.8186,5.7969,5.7923,5.7273,5.6665,5.6455,5.578,5.5179,5.4896,5.4562,5.4235,5.3864,5.3099,5.2462,5.2167,5.0759,4.994,5.0022,4.8911,4.8332,4.8398,4.7902,4.7437,4.7134,0.0,0.0,0.0,0.0,0.0,0.0,0.0,0.0,0.0,0.0,0.0,0.0,0.0,0.0,0.0,0.0,0.0,0.0,0.0,0.0,0.0,0.0,0.0,5.6645,5.6645,5.6938,5.7738,5.7855,5.8207,5.9065,5.9948,6.0475,6.0475,6.1285,6.2148,6.3008,6.3047,6.3437,6.4277,6.4297,6.4297,6.4297,6.4297,6.3833,6.2955,6.2916,6.239,6.1427,6.1423,6.1425,6.1503,6.1503,6.1537,6.1607,6.1607,6.1607,6.1607,6.1607,6.1526,6.14,6.14,6.1255,6.1099,6.1099,6.1061,6.1002,6.0999,6.0974,6.0908,6.0791,6.0712,6.0655,6.0602,6.0485,6.0341,6.0194,5.9988,5.9738,5.9672,5.9494,5.9253,5.894,5.884,5.8735,5.8492,5.8404,5.8367,5.8349,5.7682,5.7089,5.6989,5.6331,0.0,5.4948,5.4844,5.4551,5.3766,5.35,5.3298,5.3179,5.2302,5.1815,5.1832,5.0722,5.0187,5.0408,4.9203,4.8603,4.874,4.7557,4.6615,4.6001,0.0,0.0,0.0,0.0,0.0,0.0,0.0,0.0,0.0,0.0,0.0,0.0,0.0,0.0,0.0,0.0,0.0,0.0,0.0,0.0,0.0,0.0,5.7465,5.7465,5.7465,5.7797,5.8636,5.93,5.9788,6.0026,6.1388,6.2279,6.2281,6.3085,6.3691,6.3926,6.3945,6.4043,6.4297,6.4297,6.4297,6.4297,6.4199,6.4026,6.3767,6.3033,6.2565,6.2319,6.1686,6.1447,6.1503,6.1548,6.1578,6.1607,6.1607,6.1607,6.1607,6.1607,6.1526,6.14,6.14,6.1255,6.1099,6.1099,6.1061,6.1002,6.0999,6.1359,6.1755,6.1675,6.1998,6.2399,6.2261,6.2116,6.1945,6.1863,6.1633,6.1408,6.1225,6.0956,6.0673,6.0438,5.9789,5.9187,5.9124,5.8156,5.7351,5.7401,5.6683,5.6078,5.5931,5.5227,0.0,5.4305,5.3813,5.3332,5.2939,5.287,5.2661,5.2395,5.2054,5.1883,5.1828,5.0994,5.0441,5.0121,4.915,4.8248,4.7389,4.7037,4.6396,0.0,0.0,0.0,0.0,0.0,0.0,0.0,0.0,0.0,0.0,0.0,0.0,0.0,0.0,0.0,0.0,0.0,0.0,0.0,0.0,0.0,0.0,5.8109,5.846,5.8831,5.8577,5.8675,5.9534,6.008,6.0686,6.1427,6.24,6.3157,6.3515,6.4004,6.4453,6.4824,6.4844,6.5019,6.5371,6.5321,6.5316,6.5316,6.5187,6.4942,6.4502,6.396,6.3527,6.32,6.271,6.2529,0.0,6.263,6.2659,6.2659,6.2659,6.2659,0.0,0.0,0.0,0.0,0.0,6.1421,6.164,6.1621,6.1794,6.2043,6.2017,6.2259,6.2551,6.249,6.2732,6.3034,6.2911,6.2723,6.2579,6.2416,6.2159,6.1921,6.163,6.1162,6.0701,6.0375,5.959,5.8915,5.8823,5.7688,0.0,5.6755,5.5883,5.5067,5.5024,5.4259,5.3647,5.3431,5.3043,5.2661,5.2378,5.2378,5.2236,5.1964,5.1908,0.0,0.0,0.0,5.0374,4.9512,4.8978,0.0,0.0,0.0,4.615,4.5384,0.0,0.0,0.0,4.4419,4.4281,0.0,0.0,0.0,0.0,0.0,0.0,0.0,0.0,0.0,0.0,0.0,0.0,0.0,0.0,0.0,0.0,5.8734,5.9553,6.0412,5.9885,5.9671,6.0451,6.0627,6.1295,6.2842,6.3178,6.3613,6.4394,6.4531,6.4922,6.5703,0.0,0.0,0.0,0.0,6.6688,6.6688,6.6631,6.6125,6.5277,6.5213,6.4792,6.4056,6.4027,6.4048,6.4101,6.4101,6.4101,6.4101,6.4101,6.4101,6.3935,6.2328,6.1639,6.1507,6.1326,6.1795,6.253,6.2471,0.0,0.0,6.3419,6.3378,6.331,6.3276,6.3272,6.3246,6.3108,6.2947,6.28,6.253,6.224,6.1951,6.1563,6.0849,6.0117,5.9653,5.9018,5.8426,5.8164,5.7208,5.6503,5.6436,5.5335,5.4372,5.4205,5.3484,5.2847,5.2537,5.252,5.2378,5.1964,0.0,0.0,5.1704,5.1631,5.1376,5.0968,5.0723,5.0128,4.889,4.8796,4.831,4.7263,4.6656,4.6083,4.5695,4.4802,4.4404,4.4388,4.4312,4.4281,0.0,0.0,0.0,0.0,0.0,0.0,0.0,0.0,0.0,0.0,0.0,0.0,0.0,0.0,0.0,5.9788,6.0041,6.0451,6.133,6.131,6.1252,6.1427,6.2071,6.2635,6.2966,6.4277,6.5176,6.5332,6.5996,6.6465,6.664,6.664,0.0,6.6894,6.6783,6.6688,6.6688,6.6516,6.6378,6.6219,0.0,0.0,6.5012,6.4324,6.4048,6.4101,6.4101,6.4101,6.4101,6.4101,6.407,6.3908,6.2828,6.2357,6.2283,6.2181,6.2704,6.3439,6.336,6.3413,6.3483,6.3419,6.3782,6.4231,6.4178,6.4527,0.0,6.4781,6.4533,6.4251,6.418,6.3817,6.335,6.266,6.2181,6.1656,6.078,5.9875,5.9073,5.871,5.7483,5.6457,5.6314,5.5518,5.4656,5.3737,5.3401,5.3003,5.2063,5.198,5.1835,5.1631,5.1285,5.0968,5.0755,5.0448,5.023,5.0152,4.9821,4.9439,4.9233,4.8814,4.826,4.75,4.72,4.6797,4.6165,4.527,4.4856,4.4856,4.4308,4.3988,0.0,0.0,0.0,0.0,0.0,0.0,0.0,0.0,0.0,0.0,0.0,5.8441,5.8441,0.0,5.9885,6.0334,6.0772,6.1206,6.1642,6.1701,6.1709,6.1707,6.2471,6.3178,6.3613,6.4824,6.5781,6.6211,6.664,6.6894,6.6894,6.6894,6.6894,6.6894,6.6766,6.6698,6.6687,6.6542,6.6461,6.6481,6.6067,6.5888,6.5939,6.5528,6.5375,6.5407,6.5407,6.5407,6.5407,6.5356,6.5032,6.4508,6.4035,6.356,6.3141,6.309,6.3574,6.4289,6.4226,6.4431,6.4729,6.4633,6.4802,6.5041,6.4967,6.5129,6.5321,6.5213,6.4974,6.4651,6.4425,6.3864,6.3234,6.2689,6.1824,6.092,6.0273,5.9346,5.8581,5.8283,5.7381,5.6754,5.6604,5.6154,5.5314,5.4129,5.3758,5.3403,5.2817,5.2382,5.2004,5.1625,5.1041,5.0509,5.0214,4.9836,4.9597,4.9597,4.9194,4.8949,4.8949,4.8687,4.8383,4.7963,4.7543,4.7058,4.6656,4.5713,4.5117,4.48,4.4388,4.3992,0.0,0.0,0.0,0.0,0.0,0.0,0.0,0.0,5.8055,5.805,5.8753,5.9358,5.9358,6.0061,6.0646,6.0646,6.1229,6.1704,6.1701,6.1705,6.1762,6.1933,6.2715,6.3594,6.4473,6.5332,6.6133,6.6855,6.6894,6.6894,6.6894,6.6894,6.6894,6.6894,6.6777,6.6711,6.6705,6.6575,6.651,6.6519,6.6571,6.6604,6.6626,6.6671,6.6712,6.6712,6.6702,6.6671,6.6649,6.6569,6.6062,6.533,6.5331,6.4887,6.423,6.4019,6.4443,6.5114,6.5048,6.5446,6.5953,6.5846,6.5701,6.558,6.5494,6.5413,6.5245,6.5147,6.485,6.4521,6.419,6.3416,6.2622,6.2146,6.0979,5.9786,5.9297,5.8545,5.7808,5.7588,5.7214,5.6987,5.6911,5.6619,5.594,5.4774,5.429,5.3934,5.3555,5.2941,5.2337,5.1868,5.0992,5.02,4.9677,4.9356,4.9194,4.9194,4.8785,4.862,4.862,4.862,4.8537,4.8286,4.7766,4.7341,4.7122,4.6162,4.5462,4.492,4.4518,4.4053,5.6503,5.65,5.6496,5.6491,5.7076,5.764,0.0,0.0,5.8944,5.8948,5.9651,6.0256,6.0256,6.0978,6.1544,6.1544,6.1639,6.1704,6.1701,6.1709,6.1992,6.2754,6.3613,6.4492,6.5371,6.623,6.6797,6.6894,6.6894,6.6894,6.6894,6.6894,6.6894,6.6894,6.6777,6.6693,6.67,6.6574,6.6517,6.6588,6.6594,6.6618,6.6682,6.6702,6.6712,6.6712,6.6638,6.6575,6.6504,6.6387,6.6258,6.6163,6.6109,6.5972,6.5756,6.5041,6.5271,6.5964,6.589,6.5856,6.582,6.5801,6.5674,6.5494,6.5425,6.5321,6.5147,6.485,6.4521,6.419,6.3817,6.3131,6.2284,6.1456,6.0562,5.9656,5.8789,5.8243,5.7808,5.7439,5.7139,5.6911,5.6541,5.6307,5.5886,5.5066,5.4718,5.427,5.348,5.2908,5.2589,5.2525,5.1162,4.993,4.8831,4.8687,4.8702,4.8702,4.862,4.862,4.862,4.862,4.8537,4.8286,4.8057,4.7773,4.7518,4.6616,4.6172,4.6067,4.487,4.3973,5.7204,5.7572,5.7841,0.0,5.7889,5.8557,5.8552,5.9232,5.9866,5.9866,6.0549,6.1154,6.1154,6.1447,6.1701,0.0,6.1697,6.1709,6.1692,6.1698,6.2207,6.3594,6.4082,6.4648,6.5527,6.6387,6.6894,6.6894,6.6894,6.6894,6.6894,6.6894,6.6893,6.6901,6.6842,6.6797,6.6756,6.6692,6.6666,6.6661,6.6663,6.6673,6.6712,6.6712,6.6671,6.6638,6.6575,6.647,6.637,6.6316,6.6282,6.6245,6.6205,6.6144,6.6063,6.5715,6.5788,6.6029,6.6001,6.5903,6.5781,6.5701,6.5571,6.5425,6.5352,6.5226,6.5008,6.4779,6.4445,6.405,6.3371,6.2503,6.1587,6.0605,5.9739,5.8875,5.8314,5.7808,5.7439,5.7214,5.6834,5.6619,5.6463,5.6165,5.5829,5.5534,5.523,5.4956,5.4567,5.3761,5.284,5.1935,5.0726,4.9795,4.9266,4.885,4.862,4.862,4.862,4.862,4.862,4.862,4.8453,4.8133,4.8049,4.7794,4.7381,4.7025,4.6696,4.6307,4.5753,4.4915,5.8061,5.8527,0.0,5.8215,5.876,5.9449,5.9463,6.0124,6.0764,6.0764,6.1252,6.1701,6.1701,6.1701,6.1701,6.1701,6.1697,6.1694,6.1699,6.1914,6.2617,6.4121,6.4512,6.5,6.5879,6.6523,6.6894,6.6894,6.6894,6.6894,6.6894,6.6856,6.6856,6.6874,6.6848,6.6836,6.6792,6.6789,6.677,6.6692,6.6672,6.6663,6.6671,6.6649,6.6613,6.6509,6.647,6.6389,6.6263,6.6263,6.6245,6.6205,6.6184,6.6123,6.608,6.6077,6.6029,6.5996,6.5972,6.5872,6.572,6.5627,6.5484,6.5352,6.5309,6.5128,6.4886,6.4651,6.4212,6.3656,6.2866,6.1842,6.0784,6.0023,5.9147,5.8402,5.7971,5.7588,5.7214,5.7063,5.6697,5.6385,5.6307,5.6006,5.5782,5.5685,5.5426,5.5246,5.5246,5.4301,5.3044,5.1608,5.0684,5.0082,4.9712,4.9204,4.8835,4.862,4.862,4.862,4.862,4.862,4.837,4.8049,4.7964,4.781,4.7309,4.7309,4.7055,4.6591,4.6411,4.5798,5.8957,5.8975,5.8991,5.8972,5.9664,6.0353,6.0353,6.1027,6.1661,6.1661,6.1681,6.1701,6.1701,6.1701,6.1701,6.1701,6.1697,6.1694,6.1699,6.2422,6.3281,6.4199,6.5058,6.5898,0.0,6.6875,6.6894,6.6894,6.6894,6.6894,6.6894,6.6789,6.6736,6.68,6.6737,6.6741,6.679,6.68,6.677,6.6712,6.6638,6.6613,6.6601,6.6533,6.6439,6.6316,6.6316,6.6263,6.6185,6.6185,6.6205,6.6185,6.6123,6.6058,6.6013,6.6001,6.5996,6.5996,6.5846,6.572,6.558,6.5523,6.5394,6.5309,6.5213,6.4974,6.4651,6.4328,6.3531,6.2751,6.2424,6.1304,6.0121,5.9774,5.9097,5.8402,5.7971,5.7588,5.7214,5.7063,5.6697,5.6307,5.6165,5.5943,5.5685,5.5426,5.5097,5.4848,5.4848,5.397,5.3009,5.1832,5.1652,5.1113,4.9805,4.9666,4.9358,4.8666,4.862,4.862,4.862,4.862,4.837,4.8049,4.7964,4.781,4.7309,4.7309,4.7294,4.7249,4.6621,4.6307,5.9854,6.0291,6.0584,5.9999,6.0531,6.1198,6.1192,6.1459,6.171,6.1696,6.1701,6.1701,6.1701,6.1701,6.1701,6.1701,6.1705,6.1899,6.248,6.2812,6.3535,6.498,6.543,0.0,0.0,0.0,0.0,6.6894,6.6894,6.6852,6.6763,6.6725,6.6665,6.661,6.667,6.6693,6.6683,6.6709,6.6702,6.6638,6.6561,6.6533,6.6533,6.6422,6.6334,6.6299,6.6245,6.6225,6.6205,6.6205,6.6165,6.6123,6.6102,6.6055,6.6001,6.6001,6.5947,6.5872,6.5839,6.5674,6.5523,6.5454,6.5352,6.5213,6.5095,6.4869,6.4521,6.3948,6.3307,6.2535,6.153,6.0598,5.9803,5.9097,5.8597,5.8188,5.7588,5.7364,5.7139,5.668,5.6385,5.6165,5.5943,5.5685,5.5426,5.5097,5.4848,5.4597,5.3985,5.364,5.3124,5.239,5.1975,5.1513,5.1067,5.0205,4.9574,4.9343,4.8881,4.862,4.862,4.8453,4.8286,4.8049,4.8233,4.8076,4.7309,4.7743,4.7728,4.7294,4.707,4.6741,6.075,6.1179,6.1471,6.0906,6.1197,6.1603,6.16,6.1641,6.1699,6.1691,6.1696,6.1701,6.1701,6.1701,6.1701,6.1709,6.1705,6.201,6.287,6.3262,6.4004,6.543,6.5879,6.6289,0.0,0.0,0.0,6.6894,6.6863,6.6777,6.6709,6.663,6.6572,6.6503,6.6536,6.656,6.6563,6.6615,6.6583,6.648,6.6454,6.6426,6.6392,6.63,6.6263,6.6263,6.6225,6.6184,6.6165,6.6165,6.6123,6.6058,6.6055,6.6029,6.5933,6.5947,6.5827,6.5693,6.572,6.5618,6.5435,6.5383,6.5258,6.5095,6.492,6.4707,6.4308,6.3674,6.2896,6.2002,6.0974,6.0093,5.9331,5.8667,5.826,5.7971,5.7439,5.7214,5.7063,5.6541,5.6244,5.6006,5.5863,5.5442,5.4998,5.4597,5.4428,5.4071,5.3465,5.3217,5.304,5.2713,5.2313,5.1959,5.1728,5.0682,4.9943,4.9697,4.902,4.862,4.862,4.8453,4.8286,4.8049,4.8218,4.8061,4.7309,4.7728,4.7713,4.7309,4.7309,4.7085,6.1588,6.1607,6.1607,6.1607,6.1606,6.1603,6.1603,6.1654,6.1699,6.1699,6.1691,6.1701,0.0,0.0,6.1705,6.1701,6.169,6.2029,6.2948,6.3789,6.4648,0.0,0.0,0.0,0.0,0.0,0.0,6.6889,0.0,6.669,6.6689,6.6515,6.6419,6.6489,6.6375,6.637,6.6474,6.6489,6.6422,6.6299,6.6299,6.6263,6.6205,6.6205,6.6205,6.6205,6.6205,6.6144,6.6102,6.6102,6.6058,6.599,6.6001,6.5909,6.5795,6.5801,6.5674,6.5494,6.558,6.5494,6.5364,6.534,6.5142,6.4955,6.476,6.4445,6.4027,6.3427,6.23,6.1135,6.0754,5.9696,5.8718,5.8561,5.8188,5.7808,5.7364,5.7139,5.6834,5.6463,5.6228,5.6006,5.5782,5.5262,5.4613,5.4236,5.3789,5.3424,5.3393,5.2966,5.2713,5.2713,5.2713,5.2452,5.1805,5.1097,5.042,4.9774,4.9035,4.862,4.862,4.862,4.837,4.8049,4.7995,4.777,4.7354,4.7354,4.7354,4.7354,4.7324,4.7309,6.1412,6.1607,6.1607,6.1607,6.1597,6.1606,6.16,6.1615,6.1648,6.1691,6.1696,6.1701,0.0,0.0,0.0,6.1704,6.1694,0.0,6.375,6.416,0.0,6.6387,0.0,6.6894,6.6894,6.6769,0.0,0.0,6.6678,6.6592,6.6551,6.6458,6.638,6.6355,6.6318,6.6316,6.6353,6.6353,6.6334,6.6299,6.6245,6.6205,6.6205,6.6205,6.6205,6.6205,6.6144,6.6123,6.6102,6.6058,6.6009,6.6001,6.602,6.5903,6.5801,6.5793,6.5674,6.5494,6.5454,6.5413,6.529,6.5245,6.5008,6.4779,6.4652,6.4109,6.3363,6.2689,6.166,6.0694,5.9891,5.9149,5.8561,5.8331,5.7954,5.7588,5.7364,5.6987,5.6697,5.6228,5.583,5.5588,5.5507,5.5097,5.4772,5.4869,5.4423,5.3881,5.3028,5.2788,5.2713,5.2713,5.2713,5.2637,5.2467,5.1374,5.062,5.0451,4.9281,4.862,4.862,4.8453,4.8301,4.7964,4.8278,4.8275,4.8042,4.8042,4.8042,4.8027,4.7534,4.6916,6.1354,6.1607,6.1607,6.1607,6.1607,6.1597,6.1603,6.1592,6.1607,6.1648,6.1679,6.1691,6.1691,6.1696,6.1705,0.0,0.0,0.0,6.4055,6.4295,6.4941,0.0,6.6894,0.0,6.6826,6.6724,6.6625,0.0,6.6555,6.6533,6.6506,6.6454,6.6397,6.6299,6.6299,6.6281,6.6263,6.6263,6.6263,6.6263,6.6225,6.6205,6.6205,6.6205,6.6165,6.6144,0.0,6.608,6.6032,6.6029,6.5982,6.5947,6.5923,6.5827,6.5701,6.5674,6.5561,6.5394,6.5383,6.529,6.5161,6.5128,6.4905,6.4596,6.4249,6.3674,6.2903,6.2003,6.1131,6.0282,5.9485,5.8892,5.8419,5.8116,5.7735,5.7439,5.7214,5.6834,5.6463,5.6006,5.5669,5.5328,5.518,5.4765,5.4581,5.4757,5.4407,5.3941,5.3606,5.3345,5.316,5.316,5.2898,5.2713,5.2713,5.1744,5.1005,5.0713,4.9682,4.8943,4.862,4.8537,4.8301,4.8049,4.8243,4.8332,4.8282,4.7997,4.7997,4.8267,4.7125,4.6344,6.1198,6.151,6.1607,6.1607,6.1607,6.1607,6.1588,6.1606,6.1603,6.1603,6.1654,6.1699,6.1699,6.1691,6.1701,6.1705,0.0,6.2264,6.3904,6.4233,6.4902,6.6523,6.6812,6.683,6.6709,6.6621,6.6528,6.6419,6.6437,6.6469,6.6469,6.6464,6.6406,6.6281,6.6281,6.6263,6.6205,6.6205,6.6205,6.6205,6.6205,6.6205,6.6205,6.6205,6.6144,6.6102,0.0,0.0,6.5996,6.5996,6.5947,6.5872,6.582,6.5701,6.558,6.5523,6.5394,6.5309,6.5277,6.5109,6.4955,6.4955,6.4743,6.4347,6.3718,6.3104,6.2384,6.1379,6.0651,5.9902,5.9351,5.8823,5.8348,5.7971,5.7588,5.7214,5.7063,5.668,5.6228,5.5863,5.5523,5.518,5.4848,5.4422,5.4206,5.4527,5.4189,5.4222,5.4914,5.433,5.3822,5.3729,5.3191,5.2806,5.2729,5.2098,5.1405,5.0728,5.0066,4.9358,4.8635,4.8604,4.837,4.8049,4.7964,4.8041,4.8282,4.7611,4.7538,4.8075,4.6456,4.558,6.0282,6.1042,6.1607,6.1607,6.1607,6.1597,6.1595,6.1595,6.1603,6.1607,6.1648,6.1699,6.1699,6.1691,6.1705,6.1704,6.1697,6.205,6.3084,6.3847,6.4687,0.0,6.6371,6.6743,6.6689,6.6554,0.0,0.0,0.0,6.6336,6.6336,6.6283,6.6225,6.6205,6.6205,6.6205,6.6205,6.6205,6.6205,6.6205,6.6205,6.6205,6.6205,6.6144,6.6102,6.6102,6.6029,0.0,6.5996,6.5947,6.5872,6.582,6.5793,6.5674,6.5494,6.5454,6.5383,6.5277,6.5109,6.492,6.476,6.476,6.4291,6.3718,6.3427,6.2489,6.1379,6.095,6.0129,5.9351,5.8754,5.8473,5.8188,5.7735,5.7439,5.7214,5.7063,5.6525,5.6006,5.5588,5.518,5.4848,5.4848,5.4561,5.4543,5.514,5.5271,5.5607,5.6315,5.533,5.4345,5.3791,5.3622,5.3314,5.276,5.2098,5.1405,5.0728,5.0066,4.9358,4.8635,4.8453,4.8202,4.7964,4.7794,4.7884,4.8282,4.7315,4.6862,4.7055,4.5881,4.4587,6.073,6.1276,6.1607,6.1607,6.1607,6.1588,6.1606,6.1606,6.1606,6.1603,6.1639,6.1654,6.1648,6.1685,6.1705,6.1694,6.1695,6.1992,6.2871,6.375,6.4597,6.5397,6.6212,6.665,6.6533,6.6456,6.6359,0.0,0.0,6.6263,6.6299,6.6282,6.6245,6.6245,6.6225,6.6205,6.6205,6.6205,6.6205,6.6205,6.6205,6.6165,6.6144,6.6102,6.6077,6.6052,6.6001,0.0,6.5897,6.5872,6.5774,6.5701,6.5646,6.5542,6.5454,6.5364,6.5258,6.5128,6.492,6.4743,6.4558,6.4131,6.3736,6.3298,6.2572,6.1678,6.0849,6.0254,5.96,5.8978,5.8561,5.826,5.7954,5.7514,5.7139,5.6757,5.6619,5.6244,5.5846,5.5491,5.5097,5.4681,5.4513,5.4395,5.4551,5.4977,5.5456,5.5946,5.6669,5.6192,5.5515,5.4822,5.4129,5.3591,5.3268,5.2621,5.179,5.0759,5.0389,4.9728,4.865,4.8537,4.8286,4.8049,4.788,4.768,4.7538,4.6964,4.6489,4.5995,4.4953,4.3863,6.114,6.1451,6.1607,6.1607,6.1607,6.1607,6.1607,6.1607,6.1607,6.1607,6.1606,6.1612,6.1595,6.1628,6.1634,0.0,6.1631,6.187,6.2578,6.3396,6.4229,6.5044,6.5857,0.0,6.6398,6.6359,0.0,0.0,0.0,0.0,6.6282,6.6281,6.6281,6.6281,6.6225,6.6205,6.6205,6.6205,6.6205,6.6184,6.6184,6.6144,6.608,6.6077,6.6052,6.5996,6.5972,0.0,0.0,6.5767,6.5674,6.558,6.5494,6.5454,6.5383,6.5258,6.5109,6.4886,6.4614,6.4445,6.4169,6.3206,6.297,6.2855,6.1752,6.0956,6.0317,5.9683,5.9183,5.8718,5.849,5.8116,5.7735,5.7364,5.6834,5.6307,5.6165,5.5927,5.5702,5.5409,5.4998,5.4513,5.4173,5.4257,5.4556,5.4653,5.5407,5.613,5.67,5.6761,5.6546,5.5992,5.473,5.3883,5.3729,5.3098,5.2129,5.0774,5.0697,5.0066,4.8666,4.8537,4.837,4.8049,4.7964,4.7504,4.6577,4.6547,4.5973,4.4743,4.3966,4.313,6.0399,6.1003,6.1607,6.1607,6.1607,6.1607,6.1607,6.1607,6.1607,6.1607,6.1606,6.1612,6.1595,6.1517,6.1452,0.0,0.0,6.1405,6.162,6.2281,6.3122,6.4097,0.0,0.0,6.6321,6.6282,0.0,0.0,0.0,0.0,6.6205,6.6205,6.6205,6.6205,6.6185,6.6205,6.6205,6.6205,6.6184,6.6102,6.6102,6.608,6.6013,6.6005,6.602,6.5996,6.5872,0.0,0.0,6.5674,6.5599,6.5494,6.5425,6.5383,6.5309,6.5109,6.4886,6.4651,6.4136,6.3723,6.3224,6.2073,6.1967,6.2162,6.1454,6.0485,5.9635,5.9369,5.8961,5.849,5.826,5.7954,5.7514,5.7139,5.6697,5.6307,5.6165,5.5927,5.5702,5.5409,5.4765,5.4189,5.4103,5.4395,5.4653,5.4714,5.5838,5.6684,5.6746,5.6761,5.673,5.6669,5.5453,5.4391,5.3775,5.3098,5.2129,5.0774,5.0697,5.0066,4.8666,4.8453,4.8202,4.7964,4.7794,4.7106,4.588,4.5983,4.4997,4.2997,4.3035,4.2459,6.1072,6.1334,6.1607,6.1607,6.1607,6.1598,6.1548,6.1568,6.1598,6.1548,6.1578,6.1549,6.1441,6.142,6.1367,0.0,0.0,0.0,6.1362,6.2085,6.2717,6.3091,6.4309,0.0,0.0,0.0,0.0,0.0,0.0,0.0,6.6205,6.6205,6.6205,6.6205,6.6205,6.6205,6.6205,6.6144,6.6123,6.6102,6.6058,6.6032,6.6005,6.6001,6.5947,6.5872,6.582,0.0,0.0,6.5552,6.5484,6.5383,6.5352,6.5258,6.5109,6.4886,6.4558,6.4155,6.3699,6.3122,6.2489,6.1641,6.1171,6.0879,6.0362,5.9861,5.9386,5.9047,5.8701,5.826,5.8044,5.7662,5.7139,5.6911,5.6541,5.6165,5.6086,5.5846,5.5426,5.5097,5.4765,5.4343,5.3742,5.4442,5.4993,5.473,5.5899,5.6761,5.6761,5.6761,5.6761,5.6761,5.5545,5.4622,5.4345,5.3329,5.2129,5.0774,5.0697,5.0066,4.8666,4.837,4.7934,4.7133,4.6857,4.5854,4.4003,4.476,4.3959,4.1895,4.2679,4.2409,6.1537,6.1568,6.1607,6.1588,6.1568,6.1558,6.1515,6.1537,6.1548,6.1428,6.1464,6.1456,6.1258,6.1216,6.1186,0.0,0.0,6.1138,6.1196,6.1714,6.2191,6.2471,0.0,6.4444,0.0,0.0,0.0,0.0,0.0,0.0,6.6205,6.6205,6.6205,6.6205,6.6205,6.6205,6.6205,6.6123,6.608,6.608,6.6013,6.5982,6.5972,6.5947,6.5897,6.5793,0.0,0.0,0.0,6.5454,6.5383,6.5309,6.5226,6.5076,6.4886,6.4743,6.4291,6.3662,6.3159,6.2489,6.1788,6.0992,6.0362,5.9856,5.9485,5.9234,5.9047,5.8701,5.8331,5.7954,5.7735,5.7289,5.6911,5.668,5.6385,5.6086,5.6006,5.5669,5.5246,5.4848,5.4681,5.4407,5.3818,5.4567,5.5147,5.4991,5.6007,5.6761,5.6761,5.6761,5.6761,5.6761,5.5715,5.4945,5.4745,5.3668,5.2344,5.079,5.0697,5.0066,4.8583,4.8088,4.7377,4.6388,4.5929,4.472,4.2792,4.3986,4.3466,4.1585,4.2565,4.2293,6.1428,6.1503,6.1578,6.1515,6.1503,6.1503,6.1503,6.1503,6.1447,6.1233,6.1259,6.1235,6.1051,6.0905,6.0839,6.0885,0.0,0.0,6.0973,6.0946,6.1302,0.0,0.0,6.3031,6.4831,0.0,0.0,0.0,0.0,0.0,6.6205,6.6205,6.6205,6.6205,6.6205,6.6205,6.6205,6.6123,6.6058,6.6013,6.5982,6.5972,6.5897,6.582,6.5793,0.0,0.0,0.0,0.0,6.5352,6.5309,6.5277,6.5076,6.4886,6.4688,6.4615,6.4046,6.3196,6.2489,6.1751,6.101,5.9972,5.9502,5.9251,5.8927,5.8788,5.8718,5.8331,5.7881,5.7514,5.7139,5.6987,5.6911,5.6463,5.6228,5.6006,5.5863,5.5604,5.5246,5.4848,5.4428,5.4136,5.4371,5.4529,5.4945,5.5592,5.63,5.6761,5.6761,5.6761,5.6761,5.6761,5.6115,5.5422,5.4791,5.4099,5.2852,5.082,5.0697,4.9981,4.8347,4.7377,4.655,4.6107,4.5101,4.3989,4.2792,4.3986,4.3667,4.2173,4.2748,4.1983,6.1381,6.1441,6.1467,6.1441,6.1441,6.1408,6.1313,6.1225,6.1158,6.1152,6.1077,6.0983,6.0824,6.0798,6.0792,6.0719,6.069,0.0,0.0,0.0,0.0,6.1443,6.1987,6.3052,0.0,0.0,0.0,0.0,0.0,0.0,6.6205,6.6205,6.6205,6.6205,6.6163,6.6123,6.6123,6.6074,6.6005,6.6001,6.5953,6.5897,6.582,6.5793,0.0,0.0,0.0,0.0,0.0,6.534,6.5226,6.5076,6.4886,6.452,6.4115,6.3822,6.3028,6.202,6.1641,6.0891,6.0036,5.9569,5.9183,5.9013,5.9105,5.8757,5.845,5.8507,5.8656,5.8541,5.7886,5.752,5.7153,5.6579,5.6165,5.5863,5.5782,5.536,5.4848,5.4428,5.4173,5.4049,5.3954,5.462,5.5302,5.5686,5.63,5.6761,5.6761,5.6761,5.6761,5.6761,5.6561,5.5961,5.4822,5.4114,5.2852,5.082,5.0697,4.9981,4.8347,4.7204,4.6107,4.5087,4.3989,4.3092,4.2364,4.3132,4.2892,4.1888,4.1657,4.0417,6.1255,6.1337,6.14,6.1352,6.1318,6.1283,6.1111,6.1019,6.0944,6.082,6.0798,6.0734,6.0578,6.0603,6.0622,6.0559,6.0629,0.0,0.0,0.0,0.0,6.0999,0.0,0.0,0.0,0.0,0.0,0.0,0.0,0.0,0.0,6.6184,6.6144,6.6144,6.6123,6.608,6.6058,6.6005,6.5996,6.5996,6.5897,6.5846,6.5793,6.572,0.0,0.0,0.0,0.0,0.0,6.5194,6.5076,6.4832,6.452,6.4115,6.3637,6.3094,6.2266,6.1343,6.0974,6.0254,5.9488,5.9529,5.9389,5.9285,5.9451,5.9191,5.8846,5.8849,5.9009,5.9035,5.8224,5.7711,5.7291,5.6488,5.6006,5.5782,5.5685,5.518,5.4681,5.4173,5.4136,5.4178,5.4067,5.4916,5.5674,5.6087,5.6484,5.6761,5.6761,5.6761,5.6761,5.6761,5.6761,5.6207,5.4853,5.4345,5.3129,5.0836,5.0697,4.9794,4.7724,4.655,4.5269,4.3989,4.2792,4.2246,4.216,4.2618,4.2571,4.2011,4.0789,3.9389,0.0,6.1242,6.1352,6.1217,6.12,6.1131,6.0925,6.0885,0.0,6.0384,6.0437,6.0508,6.0332,6.0352,6.0417,6.0499,6.0552,0.0,0.0,6.0846,0.0,0.0,6.1776,0.0,0.0,0.0,0.0,0.0,0.0,0.0,0.0,6.6123,6.608,6.608,6.608,6.6058,6.599,6.6001,6.5996,6.5996,6.5846,6.5793,6.5767,6.5571,0.0,0.0,0.0,0.0,0.0,6.5042,6.485,6.4595,6.4056,6.3593,6.3131,6.2387,6.1697,6.1027,6.0388,5.9796,5.9391,5.9749,5.9996,6.014,5.991,5.9833,5.9755,5.9364,5.9335,5.9122,5.8138,5.7747,5.7294,5.6332,5.5976,5.5685,5.5409,5.5097,5.4597,5.4173,5.422,5.4445,5.47,5.5268,5.593,5.6654,5.6761,5.6761,5.6761,5.6761,5.6761,5.6761,5.6761,5.6238,5.4914,5.476,5.3575,5.0867,5.0595,4.933,4.6624,4.545,4.4242,4.2792,4.1849,4.1716,4.2291,4.2503,4.2557,4.2397,4.022,3.8832,6.1099,0.0,6.1154,6.1136,6.1116,6.1079,0.0,6.0708,6.054,0.0,0.0,0.0,0.0,6.0352,6.0417,6.0499,0.0,0.0,6.071,0.0,0.0,0.0,0.0,0.0,0.0,0.0,0.0,0.0,0.0,0.0,0.0,6.6058,6.6032,6.6025,6.6025,6.6025,6.6001,6.5947,6.5897,6.5846,6.5839,6.572,6.5571,6.5523,0.0,0.0,0.0,0.0,6.5042,6.485,6.4483,6.4037,6.3612,6.2999,6.2214,6.1659,6.0968,6.0307,5.9731,5.9615,5.9783,6.0013,6.0368,6.0667,6.0291,6.0211,6.0131,6.0068,6.0305,6.0407,5.9383,5.8643,5.7904,5.6907,5.6059,5.5507,5.5409,5.4848,5.4258,5.4103,5.3955,5.4021,5.4607,5.5268,5.593,5.6654,5.6761,5.6761,5.6761,5.6761,5.6761,5.6761,5.6761,5.6407,5.5545,5.5007,5.3575,5.0867,4.9819,4.8388,4.655,4.4613,4.3313,4.2792,4.2642,4.2905,4.348,4.3297,4.2632,4.1558,3.99,3.85,6.0982,6.1022,6.1099,6.1099,6.1022,6.0901,6.0704,6.0508,0.0,0.0,0.0,0.0,0.0,0.0,0.0,0.0,6.0578,0.0,0.0,0.0,0.0,0.0,0.0,0.0,0.0,0.0,0.0,0.0,0.0,0.0,0.0,6.6032,6.6005,6.5996,6.5972,6.5947,6.5947,6.5897,6.5846,6.5793,6.572,6.559,6.5435,6.5425,6.5302,0.0,0.0,0.0,6.4798,6.4689,6.4251,6.355,6.2999,6.2336,6.153,6.0772,6.0227,5.9818,5.9649,6.0007,6.0489,6.0503,6.0757,6.1107,6.0882,6.0736,6.067,6.067,6.0788,6.0737,5.9811,5.8839,5.7887,5.6987,5.6092,5.5344,5.5164,5.4597,5.4017,5.3829,5.3936,5.4299,5.4668,5.5545,5.6315,5.67,5.6761,5.6761,5.6761,5.6761,5.6761,5.6761,5.6761,5.6469,5.5745,5.5099,5.3714,5.1313,4.9688,4.7894,4.5869,4.4055,4.2887,4.2538,4.3124,4.3334,4.3312,4.2881,4.2114,4.1031,3.9623,3.8315,6.0901,6.0982,6.1099,6.1061,6.0941,6.075,6.0559,0.0,0.0,0.0,0.0,0.0,0.0,6.0256,0.0,0.0,0.0,0.0,0.0,0.0,0.0,0.0,0.0,0.0,0.0,0.0,0.0,0.0,0.0,0.0,0.0,6.5982,6.5972,6.5972,6.5923,6.5872,6.5853,6.582,6.5793,6.5767,6.5571,6.5465,6.5364,6.534,6.5194,6.5008,0.0,0.0,6.4596,6.4463,6.3944,6.3149,6.2336,6.1659,6.1004,6.013,5.9743,5.9731,6.0026,6.0574,6.117,6.1038,6.119,6.1383,6.1383,6.1252,6.1019,6.1019,6.0902,6.0569,5.986,5.8754,5.7737,5.7118,5.6173,5.5262,5.4848,5.4428,5.3915,5.3465,5.4049,5.473,5.473,5.5853,5.6761,5.6761,5.6761,5.6761,5.6761,5.6761,5.6761,5.6761,5.6761,5.6515,5.5899,5.5161,5.3807,5.1693,4.9659,4.7362,4.4705,4.3546,4.2749,4.2511,4.3376,4.3458,4.2658,4.2239,4.157,4.0663,3.9268,3.8217,6.1061,6.108,6.1061,6.088,6.0817,6.075,6.0559,6.0349,0.0,0.0,0.0,0.0,0.0,6.0256,6.0352,0.0,0.0,0.0,0.0,0.0,0.0,0.0,0.0,0.0,0.0,0.0,0.0,0.0,0.0,0.0,0.0,6.5947,6.5897,6.582,6.582,6.5747,6.5655,6.5747,6.572,6.5542,6.5523,6.5425,6.529,6.529,6.5194,6.4989,0.0,6.467,6.4539,6.3817,6.3243,6.2695,6.1715,6.1104,6.0662,6.0565,6.0408,6.0376,6.1018,6.1121,6.1021,6.1421,6.1463,6.14,6.1169,6.1002,6.0717,6.0717,6.0717,6.06,6.0177,5.8978,5.7867,5.7518,5.6381,5.5262,5.4848,5.4428,5.3915,5.3465,5.4049,5.473,5.473,5.5853,5.6761,5.6761,5.6761,5.6761,5.6761,5.6761,5.6761,5.6761,5.6761,5.6715,5.6607,5.5263,5.351,5.1143,4.8638,4.5856,4.2711,4.2409,4.2719,4.3585,4.3781,4.3666,4.3254,4.2426,4.157,4.0663,3.9268,3.7924,6.0817,6.0922,6.1041,6.0704,6.0681,6.0681,6.0584,6.0349,0.0,0.0,0.0,0.0,0.0,0.0,0.0,0.0,0.0,0.0,0.0,0.0,0.0,0.0,0.0,0.0,0.0,0.0,0.0,0.0,0.0,0.0,0.0,0.0,6.582,6.5793,6.572,6.5627,6.5552,6.559,6.5561,6.5494,6.5425,6.5352,6.5245,6.5161,6.5008,6.4762,0.0,6.4482,6.4188,6.3792,6.3084,6.2146,6.153,6.1038,6.0679,6.0791,6.0905,6.1045,6.1374,6.1424,6.1337,6.1592,6.1482,6.1169,6.1002,6.0818,6.0633,6.0479,6.0394,6.0308,6.0152,5.8905,5.7732,5.7664,5.6311,5.4931,5.4513,5.4087,5.3568,5.3129,5.368,5.4299,5.4668,5.5545,5.6315,5.67,5.6761,5.6761,5.6761,5.6761,5.6761,5.6761,5.6664,5.6342,5.5674,5.4157,5.1929,4.8814,4.6239,4.3931,4.1804,4.2304,4.2879,4.3402,4.3588,4.3347,4.2588,4.1684,4.0779,3.9873,3.9313,3.8089,6.0589,6.0773,6.0963,6.054,6.054,6.0657,6.0613,6.0376,0.0,0.0,0.0,0.0,0.0,0.0,0.0,0.0,0.0,0.0,0.0,0.0,0.0,0.0,0.0,0.0,0.0,0.0,0.0,0.0,0.0,0.0,0.0,0.0,6.5767,6.572,6.5627,6.5523,6.5435,6.5394,6.5394,6.5454,6.5321,6.5245,6.5147,6.5008,6.4798,6.4596,6.4463,6.4247,6.3897,6.3705,6.2922,6.177,6.1466,6.1237,6.1068,6.1143,6.1479,6.1749,6.1656,6.1621,6.1709,6.1628,6.14,6.1019,6.0802,6.0633,6.0548,6.0222,6.0066,5.9946,5.9767,5.869,5.7531,5.7352,5.6015,5.4681,5.4189,5.3742,5.3305,5.2788,5.3252,5.3929,5.4607,5.5268,5.593,5.6654,5.6761,5.6761,5.6761,5.6761,5.6761,5.6664,5.6567,5.5758,5.4285,5.2222,4.9694,4.6546,4.4083,4.2373,4.1507,4.2487,4.2971,4.2878,4.3227,4.2824,4.1684,4.1009,4.0223,3.9297,3.893,3.7874,6.0531,6.0692,6.0882,6.0353,6.0501,0.0,6.0613,6.0456,0.0,6.0129,0.0,0.0,0.0,0.0,0.0,0.0,0.0,0.0,0.0,0.0,0.0,0.0,0.0,0.0,0.0,0.0,0.0,0.0,0.0,0.0,0.0,0.0,0.0,6.5523,6.5523,6.5454,6.5309,6.5309,6.5309,6.529,6.5245,6.5128,6.5008,6.4815,6.467,6.4558,6.4147,6.3939,6.3854,6.3176,6.2479,6.1769,6.1658,6.1786,6.2049,6.181,6.2097,6.2547,6.2088,6.1883,6.1628,6.1465,6.1252,6.1019,6.0802,6.0548,6.0394,6.0152,5.9892,5.9555,5.8891,5.8146,5.7401,5.6737,5.5661,5.4681,5.4189,5.3742,5.3305,5.2788,5.3252,5.3929,5.4607,5.5268,5.593,5.6654,5.6761,5.6761,5.6761,5.6761,5.6664,5.647,5.6372,5.5478,5.3172,4.9427,4.6765,4.567,4.3011,4.1647,4.2082,4.2696,4.2824,4.2563,4.3077,4.2488,4.0791,4.0675,4.0223,3.9308,3.8052,3.6682,6.0666,6.0843,6.1022,6.052,6.1027,0.0,0.0,6.0406,6.0408,6.0833,6.0929,0.0,0.0,0.0,0.0,0.0,0.0,0.0,0.0,0.0,0.0,0.0,0.0,0.0,0.0,0.0,0.0,0.0,0.0,0.0,0.0,0.0,0.0,6.5494,6.5425,6.5352,6.5309,6.5194,6.5042,6.492,6.5042,6.4974,6.4815,6.467,6.4444,6.4147,6.3981,6.3767,6.3565,6.3289,6.2753,6.2126,6.2024,6.1981,6.1981,6.2233,6.2438,6.2459,6.2093,6.1854,6.1628,6.1465,6.1235,6.1019,6.0649,6.0463,6.0308,5.9963,5.948,5.8972,5.8713,5.8097,5.73,5.6321,5.5192,5.4258,5.3742,5.3305,5.2877,5.2713,5.2914,5.3437,5.4545,5.493,5.5468,5.6592,5.6761,5.6761,5.6761,5.6761,5.6664,5.647,5.4756,5.2899,5.0696,4.7512,4.5315,4.452,4.2456,4.1415,4.1625,4.2186,4.2333,4.2024,4.2023,4.158,4.0675,4.0106,3.965,3.9308,3.7921,3.6438,6.0681,6.0862,6.1002,6.0444,6.0987,0.0,6.0884,6.0924,6.1133,6.1397,6.1904,0.0,0.0,0.0,0.0,0.0,0.0,0.0,0.0,0.0,0.0,0.0,0.0,0.0,0.0,0.0,0.0,0.0,0.0,0.0,0.0,0.0,0.0,0.0,6.5321,6.5245,6.5194,6.5008,6.4815,6.467,6.4724,6.4688,6.4521,6.4444,6.4206,6.3878,6.3811,6.3591,6.34,6.3128,6.2676,6.2177,6.2212,6.2176,6.2114,6.2506,6.2537,6.2206,6.2014,6.1773,6.1547,6.14,6.1169,6.1019,6.0565,6.0394,6.0308,5.9788,5.9198,5.8583,5.8356,5.7773,5.6961,5.5729,5.4778,5.4001,5.3465,5.3055,5.2713,5.2713,5.2713,5.3083,5.4222,5.4591,5.5114,5.6253,5.6623,5.6761,5.6761,5.6761,5.6342,5.562,5.304,5.0836,4.9484,4.6654,4.4787,4.4199,4.2539,4.1507,4.1324,4.1644,4.1595,4.104,4.0869,4.0511,3.9988,3.9569,3.9049,3.867,3.7177,3.5683,6.0527,6.0704,6.082,6.0093,6.0218,0.0,6.1172,6.2064,6.2557,6.1715,0.0,6.4062,6.4191,0.0,0.0,0.0,0.0,0.0,0.0,0.0,0.0,0.0,0.0,0.0,0.0,0.0,0.0,0.0,0.0,0.0,0.0,0.0,0.0,0.0,6.5245,6.5128,6.5008,6.4815,6.467,6.4596,6.4347,6.4209,6.419,6.4004,6.3897,6.3897,6.3565,6.34,6.3336,6.2446,6.2039,6.2053,6.2168,6.2368,6.271,6.271,6.2442,6.1997,6.179,6.1547,6.14,6.1186,6.1102,6.1019,6.0565,6.0394,6.0308,5.9788,5.9182,5.847,5.7741,5.7029,5.6217,5.5092,5.4428,5.4001,5.3481,5.3055,5.2713,5.2713,5.2713,5.2929,5.3606,5.4283,5.4945,5.5592,5.63,5.6761,5.6761,5.6567,5.572,5.4009,5.1428,4.9915,4.9915,4.7238,4.5375,4.48,4.3127,4.1912,4.1337,4.0991,4.045,3.964,3.9801,3.9447,3.8585,3.9067,3.8551,3.7298,3.555,3.4083,6.085,6.088,0.0,6.0418,0.0,0.0,0.0,6.147,0.0,0.0,0.0,6.4927,0.0,0.0,0.0,0.0,0.0,0.0,0.0,0.0,0.0,0.0,0.0,0.0,0.0,0.0,0.0,0.0,0.0,0.0,0.0,0.0,0.0,0.0,6.5128,6.4974,6.4796,6.467,6.4444,6.4106,6.4023,6.4004,6.4004,6.3939,6.3767,6.3565,6.3428,6.3289,6.3076,6.2795,6.296,6.3441,6.282,6.26,6.2632,6.2347,6.2093,6.1917,6.1628,6.1465,6.14,6.1186,6.1002,6.0734,6.0479,6.0308,6.0038,5.9188,5.8437,5.7725,5.6996,5.6034,5.5105,5.4476,5.4189,5.3915,5.3055,5.2803,5.2713,5.2713,5.2713,5.2929,5.3606,5.4283,5.4945,5.5592,5.63,5.6761,5.6567,5.5391,5.4112,5.2736,5.1003,4.9589,4.8726,4.6829,4.5375,4.4774,4.2564,4.1055,4.0517,4.0325,3.9865,3.8659,3.8752,3.8742,3.8585,3.7613,3.6992,3.6924,3.4302,3.2152,6.0999,0.0,0.0,0.0,6.0767,6.1153,0.0,0.0,0.0,0.0,0.0,0.0,0.0,0.0,0.0,0.0,0.0,0.0,0.0,0.0,0.0,0.0,0.0,0.0,0.0,0.0,0.0,0.0,0.0,0.0,0.0,0.0,0.0,0.0,6.4939,6.4798,6.467,6.4444,6.4206,6.3897,6.3767,6.368,6.368,6.368,6.3565,6.3326,6.3593,6.3413,6.2996,6.3572,6.3859,6.3907,6.3674,6.3325,6.2966,6.2608,6.2218,6.1854,6.1547,6.1318,6.1252,6.1102,6.0919,6.0633,6.0463,6.001,5.9545,5.8761,5.7919,5.7045,5.6608,5.5628,5.4681,5.4173,5.3915,5.3655,5.2877,5.2713,5.2713,5.2713,5.2713,5.2837,5.3252,5.4099,5.4868,5.5253,5.605,5.6342,5.5506,5.4009,5.2615,5.1319,5.0028,4.8944,4.8302,4.6826,4.5715,4.5127,4.2686,4.0854,4.0011,3.9345,3.8741,3.8012,3.7899,3.7638,3.7294,3.6522,3.5738,3.4933,3.3058,3.1011,6.1001,0.0,0.0,0.0,0.0,0.0,0.0,0.0,0.0,0.0,0.0,0.0,0.0,0.0,0.0,0.0,0.0,0.0,0.0,0.0,0.0,0.0,0.0,0.0,0.0,0.0,0.0,0.0,0.0,0.0,0.0,0.0,0.0,6.4955,6.4689,6.4539,6.4558,6.4106,6.3878,6.3854,6.3565,6.34,6.3336,6.34,6.3307,6.3202,6.3867,6.3758,6.3215,6.4599,6.4626,6.3983,6.4591,6.4323,6.357,6.3331,6.2668,6.1854,6.1692,6.1465,6.1318,6.1252,6.102,6.0686,6.045,5.9703,5.886,5.8539,5.7498,5.6478,5.633,5.558,5.4597,5.4173,5.3742,5.329,5.2803,5.2713,5.2713,5.2713,5.2713,5.2713,5.2713,5.3837,5.4776,5.4805,5.5674,5.562,5.4024,5.2722,5.1428,5.0014,4.8828,4.8185,4.8185,4.714,4.6238,4.5552,4.3156,4.1103,3.9664,3.8238,3.7406,3.7299,3.6922,3.6263,3.5199,3.5456,3.4452,3.2261,3.1661,2.9995,0.0,6.0789,0.0,0.0,0.0,0.0,0.0,0.0,0.0,0.0,0.0,0.0,0.0,0.0,0.0,0.0,0.0,0.0,0.0,0.0,0.0,0.0,0.0,0.0,0.0,0.0,0.0,0.0,0.0,0.0,0.0,0.0,0.0,6.4708,6.4425,6.4209,6.4065,6.3939,6.3767,0.0,6.3428,6.3289,6.3099,6.3213,6.3147,6.3088,6.3668,6.4158,6.4585,6.4757,6.5028,6.5347,6.4852,6.4532,6.4323,6.3952,6.3719,6.341,6.3113,6.2963,6.2829,6.2591,6.1951,6.1071,6.0338,5.9433,5.8396,5.7277,5.6737,5.6282,5.5384,5.4708,5.4087,5.364,5.3465,5.329,5.2803,5.2713,5.2713,5.2713,5.2713,5.2713,5.2713,5.3837,5.5005,5.5873,5.531,5.442,5.3906,5.1741,5.0238,4.9901,4.8828,4.8185,4.8185,4.714,4.6,4.4633,4.2524,4.0526,3.8707,3.7917,3.6977,3.5904,3.5102,3.448,3.4149,3.2445,3.1674,3.1495,2.9232,2.727,0.0,0.0,0.0,0.0,0.0,0.0,0.0,0.0,0.0,0.0,0.0,0.0,0.0,0.0,0.0,0.0,0.0,0.0,0.0,0.0,0.0,0.0,0.0,0.0,0.0,0.0,0.0,0.0,0.0,0.0,0.0,6.4671,6.4539,6.4405,6.4169,6.3963,6.3792,6.3724,6.3565,6.3307,6.3242,6.3051,6.2805,6.2953,6.2953,6.286,6.3917,6.4528,6.484,6.5533,6.6019,6.6294,6.5824,6.5356,6.4941,6.4634,6.4288,6.3898,6.3483,6.3393,6.3285,6.2621,6.1944,6.1215,6.0136,5.9202,5.83,5.7522,5.708,5.6559,5.5474,5.4883,5.4295,5.3552,5.3217,5.2966,5.2788,5.2713,5.2713,5.2713,5.2713,5.2713,5.2713,5.373,5.4672,5.5295,5.4522,5.346,5.2065,5.0782,4.9702,4.916,4.8508,4.8185,4.8185,4.677,4.5525,4.4776,4.2088,3.9982,3.8394,3.7304,3.6143,3.4792,3.3979,3.3059,3.188,3.1,3.0056,2.9067,2.7777,2.6077,0.0,0.0,5.992,0.0,0.0,0.0,0.0,0.0,0.0,0.0,0.0,0.0,0.0,0.0,0.0,0.0,0.0,0.0,0.0,0.0,0.0,0.0,0.0,0.0,0.0,0.0,0.0,0.0,0.0,0.0,6.4596,6.4501,6.4366,6.4169,6.3963,6.3767,6.3661,6.3474,6.3307,6.3165,6.3002,6.2805,6.2552,6.2654,6.2654,6.2643,6.4252,6.4803,6.4747,6.6289,6.6903,6.6804,6.6745,6.6233,6.5533,6.5338,6.4806,6.4112,6.3707,6.3583,6.3318,6.2282,6.1645,6.1075,5.9971,5.8959,5.8219,5.8143,5.7615,5.692,5.5829,5.5263,5.4685,5.3552,5.2966,5.2713,5.2713,5.2713,5.2713,5.2713,5.2806,5.296,5.31,5.3743,5.4171,5.4126,5.3564,5.2388,5.0126,4.9689,4.9274,4.8289,4.8185,4.8185,4.7938,4.6167,4.4928,4.4697,4.1638,3.9329,3.8225,3.6589,3.4956,3.3646,3.2995,3.1762,2.9656,2.9932,2.8832,2.6541,2.6635,2.5346,0.0,0.0,5.8334,0.0,0.0,0.0,0.0,0.0,0.0,0.0,0.0,0.0,0.0,0.0,0.0,0.0,0.0,0.0,0.0,0.0,0.0,0.0,0.0,0.0,0.0,0.0,0.0,0.0,0.0,0.0,6.4596,6.4188,6.3981,6.392,6.3742,6.3602,6.3428,6.3382,6.3289,6.3002,6.2755,6.2552,6.2415,6.2467,6.2467,6.2506,6.4021,6.4602,6.4747,6.6192,6.6804,6.6804,6.659,6.6452,6.6312,6.5985,6.5796,6.5561,6.4692,6.4268,6.3798,6.2708,6.1603,6.0601,5.9665,5.8795,5.8039,5.7506,5.7172,5.6724,5.541,5.4934,5.4449,5.3129,5.2713,5.2713,5.2713,5.2713,5.2713,5.2713,5.3191,5.3853,5.4816,5.421,5.3748,5.3892,5.2051,5.0532,5.0014,4.9045,4.8405,4.8185,4.8185,4.7821,4.6955,4.5806,4.4465,4.2831,4.0822,3.9163,3.7751,3.5232,3.3228,3.182,3.1317,3.0344,2.8672,2.8219,2.7353,2.6063,2.5219,2.4046,6.08,5.9369,5.8054,0.0,5.9406,6.0094,6.0909,0.0,0.0,0.0,0.0,0.0,0.0,0.0,0.0,0.0,0.0,0.0,0.0,0.0,0.0,0.0,0.0,0.0,0.0,0.0,0.0,0.0,0.0,6.4463,6.4247,6.4023,6.3854,6.3761,6.3583,6.34,6.3307,6.3194,6.3051,6.2787,6.2603,6.2415,6.231,6.2203,6.2222,6.2382,6.3439,6.4147,6.4599,6.5645,6.6329,6.659,6.6512,6.6139,6.5579,6.5438,6.5028,6.4501,6.4037,6.3743,6.3218,6.2099,6.1278,6.046,5.9425,5.8907,5.8562,5.8263,5.7741,5.698,5.5843,5.4968,5.4163,5.2951,5.2713,5.2713,5.2713,5.2713,5.2821,5.3206,5.3822,5.428,5.43,5.3829,5.3012,5.1952,5.0865,4.9788,4.9045,4.8508,4.8185,4.8185,4.8185,4.7821,4.6836,4.5221,4.3647,4.186,3.9944,3.7959,3.5787,3.4617,3.2843,3.0485,2.9849,2.8938,2.7659,2.6907,2.5881,2.4811,2.3698,2.268,0.0,0.0,5.7925,5.8482,5.9307,6.0102,0.0,0.0,0.0,0.0,0.0,0.0,0.0,0.0,0.0,0.0,0.0,0.0,0.0,0.0,0.0,0.0,0.0,0.0,0.0,0.0,0.0,0.0,0.0,6.4287,6.3939,6.3854,6.3742,6.3557,6.3447,6.3307,6.3165,6.3002,6.2805,6.2552,6.2397,6.2257,6.215,6.206,6.206,6.2204,6.3003,6.3638,6.4142,6.4918,6.5529,6.5935,6.5797,6.5273,6.4588,6.4509,6.4054,6.3359,6.3181,6.2844,6.2322,6.129,6.0653,6.008,5.9253,5.8858,5.8789,5.8789,5.8014,5.6946,5.5906,5.4936,5.3976,5.2951,5.2713,5.276,5.2929,5.296,5.3221,5.4068,5.4326,5.4258,5.3863,5.3041,5.1937,5.0463,4.9788,4.916,4.8289,4.8185,4.8185,4.8185,4.7938,4.7455,4.6478,4.438,4.2568,4.101,3.8994,3.6838,3.4503,3.3892,3.2332,2.9815,2.8894,2.8017,2.721,2.5993,2.4856,2.3781,2.28,2.1642,0.0,5.9117,0.0,5.7644,5.887,0.0,0.0,0.0,0.0,0.0,0.0,0.0,0.0,0.0,0.0,0.0,0.0,0.0,0.0,0.0,0.0,0.0,0.0,0.0,0.0,0.0,0.0,0.0,0.0,6.3939,6.3897,6.3717,6.3557,6.34,6.34,6.3289,6.3002,6.2737,6.2552,6.2415,6.2257,6.215,6.2023,6.2005,6.2005,6.206,6.2838,6.3219,6.3309,6.3971,6.4292,6.427,6.3938,6.38,6.3764,6.3528,6.3431,6.3288,6.2592,6.1858,6.119,6.0388,5.9669,5.9064,5.903,5.8562,5.812,5.812,5.7297,5.6146,5.5247,5.4569,5.3821,5.2862,5.2713,5.2883,5.3529,5.3668,5.4052,5.533,5.457,5.3778,5.4126,5.2088,5.0282,5.0014,4.8944,4.8302,4.8185,4.8185,4.8185,4.8185,4.7324,4.6358,4.5403,4.2937,4.101,4.0051,3.7797,3.6023,3.4964,3.2959,3.1374,3.0357,2.8955,2.7946,2.7578,2.5871,2.4517,2.3454,2.2367,2.1365,0.0,0.0,0.0,5.772,5.914,6.0516,0.0,0.0,0.0,0.0,0.0,0.0,0.0,0.0,0.0,0.0,0.0,0.0,0.0,0.0,0.0,0.0,0.0,0.0,0.0,0.0,0.0,0.0,0.0,6.3854,6.3717,6.3538,6.3447,6.34,6.3242,6.3051,6.2855,6.2705,6.2552,6.2415,6.2257,6.2096,6.2023,6.2023,6.2023,6.2041,6.2203,6.2562,6.3068,6.33,6.3617,6.389,6.3771,6.3328,6.282,6.2742,6.236,6.1878,6.1369,6.0892,6.044,5.9919,5.9418,5.8944,5.8562,5.8263,5.8031,5.7668,5.6503,5.541,5.5083,5.4094,5.3113,5.2788,5.3037,5.3545,5.4222,5.436,5.4637,5.5515,5.4896,5.3993,5.3283,5.1604,5.0,4.8944,4.8508,4.8185,4.8185,4.8185,4.7938,4.7324,4.6955,4.6105,4.4422,4.2449,4.0766,3.9316,3.6901,3.4767,3.3379,3.1978,3.0645,2.9613,2.8064,2.6921,2.6563,2.5153,2.3749,2.2463,2.1327,2.0017,6.0403,0.0,0.0,0.0,0.0,6.016,0.0,0.0,0.0,0.0,0.0,0.0,0.0,0.0,0.0,0.0,0.0,0.0,0.0,0.0,0.0,0.0,0.0,0.0,0.0,0.0,0.0,0.0,0.0,0.0,6.3602,6.3447,6.3354,6.3242,6.3051,6.2855,6.2755,6.2603,6.2467,6.231,6.2203,6.2114,6.2023,6.2023,6.2023,6.2023,6.1858,6.2109,6.2596,6.2483,6.2597,6.2904,6.2845,6.2463,6.1896,6.1896,6.1497,6.0914,6.0671,6.0297,5.9896,5.9635,5.9369,5.8875,5.8263,5.7959,5.7668,5.7072,5.5812,5.4701,5.4701,5.3883,5.3052,5.3052,5.3575,5.4145,5.4523,5.4865,5.5143,5.5516,5.4715,5.3535,5.228,5.0643,4.9247,4.8289,4.8185,4.8185,4.8185,4.7938,4.7442,4.6704,4.6105,4.5135,4.3541,4.1599,3.9904,3.8553,3.6019,3.3892,3.2502,3.1359,3.0343,2.9307,2.7589,2.643,2.5674,2.4014,2.2745,2.1846,2.0257,1.8215,0.0,0.0,0.0,0.0,0.0,0.0,5.9492,0.0,0.0,0.0,0.0,0.0,0.0,0.0,0.0,0.0,0.0,0.0,0.0,0.0,0.0,0.0,0.0,0.0,0.0,0.0,0.0,0.0,6.3602,6.3602,6.3602,6.3447,6.3242,6.3002,6.2855,6.2755,6.2603,6.2467,6.231,6.2203,6.206,6.2023,6.2023,6.2023,6.2023,6.1969,6.1858,6.1802,6.1746,6.1426,6.1328,6.1252,6.1152,6.1093,6.1093,6.1093,6.0854,6.0609,6.0609,6.0153,5.9569,5.9569,5.9301,5.8858,5.8263,5.7668,5.7072,5.6459,5.5197,5.4103,5.4119,5.3923,5.3729,5.3745,5.4268,5.4648,5.4503,5.5125,5.5628,5.55,5.3891,5.2159,5.1347,4.9489,4.8185,4.8185,4.8185,4.8185,4.8185,4.7324,4.6717,4.6598,4.4902,4.3553,4.2776,4.0363,3.8564,3.7795,3.5285,3.3408,3.2374,3.1359,3.0343,2.9307,2.7833,2.6352,2.4873,2.2931,2.1859,2.1727,1.9145,1.6067,6.0368,0.0,0.0,0.0,0.0,0.0,5.9734,6.1248,0.0,0.0,0.0,0.0,0.0,0.0,0.0,0.0,0.0,0.0,0.0,0.0,0.0,0.0,0.0,0.0,0.0,0.0,0.0,0.0,6.3602,6.3602,6.3602,6.3354,6.3099,6.2855,6.2805,6.2755,6.2603,6.2467,6.231,6.2203,6.206,6.2023,6.2023,6.2023,6.1969,6.1858,6.169,6.1577,6.1444,6.1328,6.1252,6.1152,6.1093,6.1093,6.1093,6.1093,6.0854,6.0565,6.0297,5.9961,5.9569,5.9284,5.9081,5.8789,5.7741,5.7355,5.698,5.5941,5.4899,5.4041,5.3839,5.3758,5.3852,5.4345,5.4474,5.451,5.4496,5.4605,5.4678,5.4669,5.2963,5.1442,5.1237,4.9489,4.8185,4.8185,4.8185,4.7938,4.7205,4.6836,4.6105,4.478,4.3666,4.2661,4.1806,3.9489,3.7657,3.6732,3.424,3.2384,3.124,3.0204,2.9159,2.7833,2.6352,2.4865,2.3365,2.2795,2.1952,2.0699,1.7169,1.4526,0.0,0.0,0.0,0.0,0.0,0.0,5.9488,6.0697,6.2002,0.0,0.0,0.0,0.0,0.0,0.0,0.0,0.0,0.0,0.0,0.0,0.0,0.0,0.0,0.0,0.0,6.3897,6.3717,6.3602,6.3602,6.3557,6.3465,6.3213,6.3002,6.2823,6.2805,6.2705,6.25,6.2467,6.231,6.2114,6.2005,6.2023,6.2023,6.2023,6.1913,6.1802,6.1633,6.1519,6.1328,6.127,6.1152,6.1093,6.1093,6.1093,6.1093,6.0914,6.0671,6.0343,6.0025,5.9635,5.9284,5.9081,5.8858,5.8422,5.752,5.698,5.6614,5.5475,5.4704,5.4172,5.3788,5.4129,5.4637,5.5037,5.5049,5.4849,5.4436,5.4024,5.3771,5.3771,5.2566,5.1361,5.0837,4.9516,4.8521,4.8185,4.8185,4.7821,4.6836,4.6358,4.5513,4.3927,4.3051,4.2086,4.0757,3.8722,3.7043,3.5706,3.312,3.1488,3.0861,2.9822,2.8642,2.7169,2.5816,2.3917,2.1878,2.1878,2.0683,1.8329,1.5942,1.3617,0.0,0.0,0.0,0.0,0.0,0.0,5.9041,5.9823,6.0836,0.0,0.0,0.0,0.0,0.0,0.0,0.0,0.0,0.0,0.0,0.0,0.0,0.0,0.0,0.0,6.3939,6.3717,6.3602,6.3602,6.3602,6.3465,6.3213,6.3051,6.2953,6.2805,6.2805,6.2654,6.2415,6.2415,6.2275,6.2023,6.2023,6.2023,6.2023,6.2023,6.1913,6.1746,6.1633,6.1462,6.127,6.1152,6.1093,6.1093,6.1093,6.1093,6.1034,6.075,6.0423,6.0043,5.9766,5.9369,5.9012,5.8927,5.8562,5.7959,5.7281,5.6768,5.61,5.5095,5.464,5.4348,5.399,5.4807,5.5715,5.5681,5.5478,5.5104,5.4289,5.3442,5.2914,5.2914,5.2366,5.1498,5.0222,4.9543,4.8855,4.8302,4.8068,4.769,4.6717,4.5755,4.4792,4.3689,4.2822,4.1497,3.9719,3.8157,3.6397,3.4596,3.2106,3.0723,3.0602,2.9561,2.837,2.7028,2.5412,2.3249,2.0665,2.0665,1.896,1.5557,1.5128,1.3147,0.0,0.0,0.0,0.0,0.0,0.0,5.9431,5.9868,6.0297,0.0,0.0,0.0,0.0,0.0,0.0,0.0,0.0,0.0,0.0,0.0,0.0,0.0,0.0,0.0,6.3878,6.3717,6.3602,6.3602,6.3511,6.3289,6.3051,6.3002,6.2953,6.2805,6.2805,6.2654,6.2415,6.2415,6.2275,6.2023,6.2023,6.2023,6.2023,6.2023,6.1858,6.1633,6.1633,6.1404,6.1152,6.1093,6.1093,6.1093,6.1093,6.1093,6.1093,6.1034,6.0591,6.0089,6.0025,5.9551,5.8927,5.8405,5.8192,5.7887,5.6844,5.6381,5.6119,5.5251,5.4741,5.4567,5.5116,5.5499,5.5632,5.5599,5.5014,5.4289,5.3442,5.2609,5.199,5.199,5.154,5.0878,5.0123,4.9543,4.8855,4.8302,4.756,4.6598,4.5755,4.4669,4.3689,4.2708,4.1945,4.0974,3.9719,3.7634,3.5628,3.3556,3.1718,3.0464,2.9569,2.837,2.6894,2.5412,2.2839,2.1214,2.0665,2.0394,1.8686,1.5557,1.4853,1.2866,0.0,0.0,0.0,5.9286,0.0,0.0,0.0,5.9767,6.0485,0.0,0.0,0.0,0.0,0.0,0.0,0.0,0.0,0.0,0.0,0.0,0.0,0.0,0.0,0.0,6.3742,6.3647,6.3557,6.3511,6.3354,6.3194,6.3002,6.2953,6.2855,6.2805,6.2755,6.2603,6.2415,6.231,6.2222,6.2023,6.2023,6.2023,6.2023,6.2023,6.1858,6.1577,6.1577,6.1404,6.1129,6.1521,6.17,6.1646,6.1254,6.1093,6.1093,6.0914,6.0547,6.0107,5.9896,5.9485,5.8875,5.8263,5.7887,5.7504,5.6536,5.6009,5.5644,5.5193,5.5086,5.5117,5.5609,5.5658,5.5591,5.5545,5.4582,5.3547,5.3126,5.2408,5.1787,5.1787,5.1568,5.1017,5.0123,4.977,4.9072,4.7677,4.7074,4.6225,4.4792,4.4051,4.3439,4.2454,4.1856,4.0595,3.8668,3.6746,3.4626,3.2069,3.071,2.9822,2.9307,2.7973,2.6218,2.391,2.1753,2.0665,2.0665,1.9396,1.7544,1.5274,1.3859,1.1872,0.0,0.0,0.0,0.0,0.0,5.8834,0.0,0.0,0.0,0.0,0.0,0.0,0.0,0.0,0.0,0.0,0.0,0.0,0.0,0.0,0.0,0.0,0.0,0.0,0.0,6.3602,6.3557,6.34,6.326,6.3117,6.2953,6.2855,6.2805,6.2805,6.2654,6.2552,6.2415,6.2257,6.215,6.2023,6.2023,6.2023,6.2023,6.2023,6.1858,6.1577,6.1577,6.1494,6.1379,6.2021,6.236,6.2431,6.1789,6.1539,6.1479,6.1193,6.0801,6.0463,6.0136,5.9802,5.9305,5.8617,5.7866,5.7199,5.6669,5.6021,5.5439,5.5493,5.5684,5.5825,5.5853,5.5719,5.5421,5.532,5.4068,5.2914,5.2808,5.2301,5.1787,5.1787,5.1787,5.1458,5.0235,4.9883,4.9058,4.6942,4.6345,4.5622,4.4051,4.3689,4.32,4.2339,4.188,4.0455,3.7636,3.6002,3.3897,3.1,2.9822,2.9176,2.8905,2.7294,2.5128,2.2415,2.1346,2.0665,2.0665,1.8105,1.6263,1.4982,1.3005,1.1015,0.0,0.0,0.0,0.0,5.7903,0.0,0.0,0.0,0.0,6.0371,0.0,0.0,0.0,0.0,0.0,0.0,0.0,0.0,0.0,0.0,0.0,0.0,0.0,0.0,0.0,6.3602,6.3511,6.326,6.3213,6.3117,6.2855,6.2823,6.2805,6.2805,6.2654,6.2552,6.2415,6.2257,6.215,6.2023,6.2023,6.2023,6.2023,6.2023,6.1858,6.1577,6.1577,6.1799,6.2164,6.2253,6.2681,6.3252,6.3163,6.3127,6.3066,6.2772,6.2405,6.2059,6.1656,6.1311,6.0816,5.9625,5.8472,5.7572,5.7488,5.713,5.6718,5.6895,5.6709,5.642,5.6676,5.6085,5.532,5.4611,5.3652,5.2808,5.2099,5.1882,5.1787,5.1787,5.1787,5.1458,5.0235,4.9274,4.8197,4.6942,4.5257,4.4051,4.3814,4.3075,4.2466,4.2339,4.188,4.0455,3.7636,3.6002,3.3897,3.1,2.9822,2.8774,2.7435,2.4716,2.2559,2.0937,2.0804,2.0665,2.0665,1.6972,1.5124,1.4982,1.2719,1.0875,0.0,0.0,0.0,0.0,0.0,0.0,5.8987,0.0,6.0042,0.0,0.0,0.0,0.0,0.0,0.0,0.0,6.2366,0.0,0.0,0.0,0.0,0.0,0.0,0.0,0.0,0.0,0.0,0.0,6.3117,6.3002,6.2805,6.2805,6.2755,6.2705,6.2552,6.2415,6.231,6.215,6.206,6.2023,6.2023,6.2023,6.2023,6.1913,6.1802,6.1577,6.1462,6.1525,6.1664,6.2556,6.3109,6.3484,6.443,6.4216,6.3333,6.3038,6.2652,6.2305,6.1536,6.1057,6.0546,5.9276,5.8265,5.7579,5.7579,5.7512,5.746,5.7227,5.7133,5.6933,5.6265,5.5421,5.4597,5.3756,5.2929,5.2193,5.1896,5.1787,5.1787,5.1787,5.1787,5.121,4.9489,4.8789,4.7717,4.5366,4.4287,4.3565,4.2949,4.2316,4.1891,4.1891,4.0536,3.8565,3.6297,3.4455,3.2507,3.0091,2.8765,2.7427,2.595,2.391,2.2147,2.0665,2.0665,2.0243,1.9396,1.6404,1.4561,1.3575,1.1302,0.9876,5.8769,0.0,0.0,0.0,0.0,0.0,0.0,0.0,0.0,0.0,0.0,0.0,0.0,0.0,0.0,0.0,0.0,0.0,0.0,0.0,0.0,0.0,0.0,0.0,0.0,0.0,0.0,0.0,0.0,6.2953,6.2823,6.2805,6.2755,6.2603,6.2467,6.2362,6.2203,6.206,6.2023,6.2023,6.2023,6.2023,6.2023,6.1858,6.1746,6.1577,6.1386,6.1336,6.1504,6.2628,6.3341,6.3841,6.5019,6.4813,6.3831,6.3483,6.307,6.2509,6.1641,6.0993,6.032,5.9429,5.8722,5.8162,5.8162,5.8259,5.822,5.7666,5.7463,5.7069,5.5804,5.4699,5.3771,5.3126,5.2408,5.1787,5.1787,5.1787,5.1787,5.1787,5.1554,5.0615,4.8505,4.8171,4.7103,4.4287,4.3565,4.3016,4.227,4.1799,4.1387,4.0853,3.9186,3.7164,3.4722,3.3183,3.1304,2.8897,2.7427,2.595,2.446,2.2963,2.1747,2.0665,2.0665,1.9959,1.8406,1.6122,1.414,1.2588,1.0305,0.9304,0.0,0.0,0.0,5.7732,0.0,0.0,0.0,0.0,5.962,0.0,0.0,0.0,0.0,0.0,0.0,0.0,0.0,0.0,0.0,0.0,0.0,0.0,0.0,0.0,0.0,0.0,0.0,0.0,0.0,0.0,6.2823,6.2805,6.2755,6.2603,6.2467,6.2362,6.2203,6.206,6.2023,6.2023,6.2023,6.2023,6.2023,6.1858,6.1746,6.1577,6.1386,6.164,6.2253,6.2307,6.3216,6.459,6.4626,6.4863,6.5123,6.4773,6.4024,6.3113,6.2676,6.1736,6.0635,6.0635,6.0141,5.9636,5.9636,5.9668,5.9403,5.8455,5.7574,5.68,5.5804,5.4274,5.302,5.302,5.2408,5.1787,5.1787,5.1787,5.1787,5.1787,5.0851,4.9321,4.7418,4.717,4.6364,4.4163,4.2949,4.2155,4.1661,4.1581,4.0853,3.9077,3.847,3.678,3.3479,3.2692,3.09,2.7427,2.595,2.446,2.2956,2.1477,2.0804,2.0665,2.0665,1.9959,1.8406,1.6122,1.414,1.2588,1.0305,0.9304,0.0,0.0,5.8738,5.8719,0.0,0.0,0.0,0.0,0.0,0.0,0.0,0.0,0.0,0.0,0.0,0.0,0.0,0.0,0.0,0.0,0.0,0.0,0.0,0.0,0.0,0.0,0.0,0.0,0.0,0.0,0.0,6.2805,6.2723,6.2449,6.2415,6.231,6.206,6.2005,6.2023,6.2023,6.2023,6.1969,6.1858,6.1746,6.1577,6.1386,6.1211,6.1313,6.1539,6.2075,6.2592,6.3127,6.3609,6.3953,6.4104,6.4513,6.4039,6.3032,6.1803,6.0769,6.0049,6.0049,5.9875,5.9716,5.9716,5.9716,5.9419,5.787,5.7181,5.6495,5.4435,5.3428,5.2914,5.2301,5.199,5.1787,5.1787,5.1787,5.1554,5.074,5.0154,4.908,4.6364,4.5597,4.4655,4.2673,4.2073,4.165,4.1145,4.0017,3.8985,3.8426,3.6362,3.4322,3.2663,3.0334,2.846,2.7294,2.4858,2.3365,2.2819,2.1477,2.0665,2.0665,1.968,1.8401,1.6841,1.457,1.2727,1.1168,0.9876,0.9304,5.9696,5.9816,0.0,5.9582,5.9701,0.0,5.8788,0.0,0.0,0.0,0.0,0.0,0.0,0.0,0.0,0.0,0.0,0.0,0.0,6.0148,0.0,0.0,0.0,0.0,0.0,0.0,0.0,0.0,0.0,0.0,0.0,0.0,6.2361,6.2397,6.2415,6.2257,6.2005,6.2023,6.2023,6.2023,6.2023,6.1913,6.1802,6.1633,6.1519,6.131,6.1152,6.1093,6.1147,6.1646,6.2021,6.2342,6.2806,6.301,6.3196,6.3746,6.3238,6.2105,6.0769,6.0049,5.9716,5.9716,5.9716,5.9716,5.9716,5.9716,5.9282,5.7277,5.6599,5.5947,5.3331,5.265,5.2394,5.1896,5.1787,5.1787,5.1787,5.143,5.0851,5.0028,4.8933,4.7496,4.5262,4.3989,4.2889,4.1784,4.142,4.1122,4.0617,3.9132,3.7874,3.7208,3.4919,3.2863,3.1717,2.8854,2.7028,2.6494,2.4181,2.2552,2.2009,2.1207,2.0623,2.0533,1.9072,1.7513,1.5737,1.3693,1.1876,1.0311,0.959,0.9304]},{"header":{"parameterUnit":"m.s-1","parameterCategory":1,"la1":30.6,"la2":29.2853,"lo1":-89.7004,"lo2":-87.6739,"dy":0.0162,"dx":0.0183,"nx":112,"ny":82,"refTime":"2024-04-18T06:00:00:Z","depth":0,"parameterNumber":3,"parameterNumberName":"V-component_of_WINDS"},"data":[0.0,0.0,0.0,0.0,0.0,0.0,0.0,0.0,0.0,0.0,0.0,0.0,0.0,0.0,0.0,0.0,0.0,0.0,0.0,0.0,0.0,0.0,0.0,0.0,0.0,0.0,0.0,0.0,0.0,0.0,0.0,0.0,0.0,0.0,0.0,0.0,0.0,0.0,0.0,0.0,0.0,0.0,0.0,0.0,0.0,0.0,0.0,0.0,0.0,0.0,0.0,0.0,0.0,0.0,0.0,0.0,0.0,0.0,0.0,0.0,0.0,0.0,0.0,0.0,0.0,0.0,0.0,0.0,0.0,0.0,0.0,0.0,0.0,0.0,0.0,0.0,0.0,0.0,0.0,0.0,0.0,0.0,0.0,0.0,0.0,0.0,0.0,0.0,0.0,0.0,-1.0183,-0.9819,-0.9822,-0.9822,-0.9822,-0.9822,-0.9943,-1.0304,0.0,0.0,0.0,0.0,0.0,0.0,0.0,0.0,0.0,0.0,0.0,0.0,0.0,0.0,0.0,0.0,0.0,0.0,0.0,0.0,0.0,0.0,0.0,0.0,0.0,0.0,0.0,0.0,0.0,0.0,0.0,0.0,0.0,0.0,0.0,0.0,0.0,0.0,0.0,0.0,0.0,0.0,0.0,0.0,0.0,0.0,0.0,0.0,0.0,0.0,0.0,0.0,0.0,0.0,0.0,0.0,0.0,0.0,0.0,0.0,0.0,0.0,0.0,0.0,0.0,0.0,0.0,0.0,0.0,0.0,0.0,0.0,0.0,0.0,0.0,0.0,0.0,0.0,0.0,0.0,0.0,0.0,0.0,0.0,0.0,0.0,0.0,0.0,0.0,0.0,0.0,0.0,0.0,0.0,0.0,0.0,0.0,0.0,0.0,0.0,0.0,0.0,0.0,0.0,-1.0183,-0.9819,-0.9822,-0.9822,-0.9822,-0.9822,-1.0061,-1.0668,0.0,0.0,0.0,0.0,0.0,0.0,0.0,0.0,0.0,0.0,0.0,0.0,0.0,0.0,0.0,0.0,0.0,0.0,0.0,0.0,0.0,0.0,0.0,0.0,0.0,0.0,0.0,0.0,0.0,0.0,0.0,0.0,0.0,0.0,0.0,0.0,0.0,0.0,0.0,0.0,0.0,0.0,0.0,0.0,0.0,0.0,0.0,0.0,0.0,0.0,0.0,0.0,0.0,0.0,0.0,0.0,0.0,0.0,0.0,0.0,0.0,0.0,0.0,0.0,0.0,0.0,0.0,0.0,0.0,0.0,0.0,0.0,0.0,0.0,0.0,0.0,0.0,0.0,0.0,0.0,0.0,0.0,0.0,0.0,0.0,0.0,0.0,0.0,0.0,0.0,0.0,0.0,0.0,0.0,0.0,0.0,0.0,0.0,0.0,0.0,0.0,0.0,0.0,-1.0183,-0.9943,-0.9822,-0.9822,-0.9822,-0.9822,-0.9822,-1.0061,-1.0789,-1.0789,0.0,0.0,0.0,0.0,0.0,0.0,0.0,0.0,0.0,0.0,0.0,0.0,0.0,0.0,0.0,0.0,0.0,0.0,0.0,0.0,0.0,0.0,0.0,0.0,0.0,0.0,0.0,0.0,0.0,0.0,0.0,0.0,0.0,0.0,0.0,0.0,0.0,0.0,0.0,0.0,0.0,0.0,0.0,0.0,0.0,0.0,0.0,0.0,0.0,0.0,0.0,0.0,0.0,0.0,0.0,0.0,0.0,0.0,0.0,0.0,0.0,0.0,0.0,0.0,0.0,0.0,0.0,0.0,0.0,0.0,0.0,0.0,0.0,0.0,0.0,0.0,0.0,0.0,0.0,0.0,0.0,0.0,0.0,0.0,0.0,0.0,0.0,0.0,0.0,0.0,0.0,0.0,0.0,0.0,0.0,0.0,0.0,0.0,0.0,0.0,0.0,0.0,-1.0061,-0.9822,-0.9822,-0.9822,-0.9822,-0.9822,-0.9822,-1.0061,-1.0789,-1.1027,0.0,0.0,0.0,0.0,0.0,0.0,0.0,0.0,0.0,0.0,0.0,0.0,0.0,0.0,0.0,0.0,0.0,0.0,0.0,0.0,0.0,0.0,0.0,0.0,0.0,0.0,0.0,0.0,0.0,0.0,0.0,0.0,0.0,0.0,0.0,0.0,0.0,0.0,0.0,0.0,0.0,0.0,0.0,0.0,0.0,0.0,0.0,0.0,0.0,0.0,0.0,0.0,0.0,0.0,0.0,0.0,0.0,0.0,0.0,0.0,0.0,0.0,0.0,0.0,0.0,0.0,0.0,0.0,0.0,0.0,0.0,0.0,0.0,0.0,0.0,0.0,0.0,0.0,0.0,0.0,0.0,0.0,0.0,0.0,0.0,0.0,0.0,0.0,0.0,0.0,0.0,0.0,0.0,0.0,0.0,0.0,0.0,0.0,0.0,0.0,0.0,0.0,-1.0183,-0.9822,-0.9822,-0.9822,-0.9822,-0.9822,-0.9822,-1.0061,-1.0789,-1.1864,0.0,0.0,0.0,0.0,0.0,0.0,0.0,0.0,0.0,0.0,0.0,0.0,0.0,0.0,0.0,0.0,0.0,0.0,0.0,0.0,0.0,0.0,0.0,0.0,0.0,0.0,0.0,0.0,0.0,0.0,0.0,0.0,0.0,0.0,0.0,0.0,0.0,0.0,0.0,0.0,0.0,0.0,0.0,0.0,0.0,0.0,0.0,0.0,0.0,0.0,0.0,0.0,0.0,0.0,0.0,0.0,0.0,0.0,0.0,0.0,0.0,0.0,0.0,0.0,0.0,0.0,0.0,0.0,0.0,0.0,0.0,0.0,0.0,0.0,0.0,0.0,0.0,0.0,0.0,0.0,0.0,0.0,0.0,0.0,0.0,0.0,0.0,0.0,0.0,0.0,0.0,0.0,0.0,0.0,0.0,0.0,0.0,0.0,0.0,0.0,0.0,0.0,-1.0425,-1.0061,0.0,-0.9822,-0.9822,-0.9822,-0.9822,-1.0061,-1.0789,0.0,0.0,0.0,0.0,0.0,0.0,0.0,0.0,0.0,0.0,0.0,0.0,0.0,0.0,0.0,0.0,0.0,0.0,0.0,0.0,0.0,0.0,0.0,0.0,0.0,0.0,0.0,0.0,0.0,0.0,0.0,0.0,0.0,0.0,0.0,0.0,0.0,0.0,0.0,0.0,0.0,0.0,0.0,0.0,0.0,0.0,0.0,0.0,0.0,0.0,0.0,0.0,0.0,0.0,0.0,0.0,0.0,0.0,0.0,0.0,0.0,0.0,0.0,0.0,0.0,0.0,0.0,0.0,0.0,0.0,0.0,0.0,0.0,0.0,0.0,0.0,0.0,0.0,0.0,0.0,0.0,0.0,0.0,0.0,0.0,0.0,0.0,0.0,0.0,0.0,0.0,0.0,0.0,0.0,0.0,0.0,0.0,0.0,0.0,0.0,0.0,0.0,-1.1031,-1.0668,-1.0425,0.0,-1.0065,-1.0065,-1.0065,-1.0065,-1.0304,-1.091,0.0,0.0,0.0,0.0,0.0,0.0,0.0,0.0,0.0,0.0,0.0,0.0,0.0,0.0,0.0,0.0,0.0,0.0,0.0,0.0,0.0,0.0,0.0,0.0,0.0,0.0,0.0,0.0,0.0,0.0,0.0,0.0,0.0,0.0,0.0,0.0,0.0,0.0,0.0,0.0,0.0,0.0,0.0,0.0,0.0,0.0,0.0,0.0,0.0,0.0,0.0,0.0,0.0,0.0,0.0,0.0,0.0,0.0,0.0,0.0,0.0,0.0,0.0,0.0,0.0,0.0,0.0,0.0,0.0,0.0,0.0,0.0,0.0,0.0,0.0,0.0,0.0,0.0,0.0,0.0,0.0,0.0,0.0,0.0,0.0,0.0,0.0,0.0,0.0,0.0,0.0,0.0,0.0,0.0,0.0,0.0,0.0,0.0,0.0,0.0,0.0,0.0,-1.1273,-1.1031,-1.0789,-1.0789,-1.0789,-1.0789,-1.0789,-1.0789,-1.091,0.0,0.0,0.0,0.0,0.0,0.0,0.0,0.0,0.0,0.0,0.0,0.0,0.0,0.0,0.0,0.0,0.0,0.0,0.0,0.0,0.0,0.0,0.0,0.0,0.0,0.0,0.0,0.0,0.0,0.0,0.0,0.0,0.0,0.0,0.0,0.0,0.0,0.0,0.0,0.0,0.0,0.0,0.0,0.0,0.0,0.0,0.0,0.0,0.0,0.0,0.0,0.0,0.0,0.0,0.0,0.0,0.0,0.0,0.0,0.0,0.0,0.0,0.0,0.0,0.0,0.0,0.0,0.0,0.0,0.0,0.0,0.0,0.0,0.0,0.0,0.0,0.0,0.0,0.0,0.0,0.0,0.0,0.0,0.0,0.0,0.0,0.0,0.0,0.0,0.0,0.0,0.0,0.0,0.0,0.0,0.0,0.0,0.0,0.0,0.0,0.0,0.0,0.0,-1.1394,-1.1152,-1.1031,-1.0789,-1.0789,-1.0789,-1.0789,-1.0789,-1.091,-1.1273,0.0,0.0,0.0,0.0,0.0,0.0,0.0,0.0,0.0,0.0,0.0,0.0,0.0,0.0,0.0,0.0,0.0,0.0,0.0,0.0,0.0,0.0,0.0,0.0,0.0,0.0,0.0,0.0,0.0,0.0,0.0,0.0,0.0,0.0,0.0,0.0,0.0,0.0,0.0,0.0,0.0,0.0,0.0,0.0,0.0,0.0,0.0,0.0,0.0,0.0,0.0,0.0,0.0,0.0,0.0,0.0,0.0,0.0,0.0,0.0,0.0,0.0,0.0,0.0,0.0,0.0,0.0,0.0,0.0,0.0,0.0,0.0,0.0,0.0,0.0,0.0,0.0,0.0,0.0,0.0,0.0,0.0,0.0,0.0,0.0,0.0,0.0,0.0,0.0,0.0,0.0,0.0,0.0,0.0,0.0,0.0,0.0,0.0,0.0,0.0,0.0,0.0,-1.1756,-1.1518,-1.1402,-1.116,-1.116,-1.116,-1.116,-1.116,-1.1281,-1.1522,0.0,0.0,0.0,0.0,0.0,0.0,0.0,0.0,0.0,0.0,0.0,0.0,0.0,0.0,0.0,0.0,0.0,0.0,0.0,0.0,0.0,0.0,0.0,0.0,0.0,0.0,0.0,0.0,0.0,0.0,0.0,0.0,0.0,0.0,0.0,0.0,0.0,0.0,0.0,0.0,0.0,0.0,0.0,0.0,0.0,0.0,0.0,0.0,0.0,0.0,0.0,0.0,0.0,0.0,0.0,0.0,0.0,0.0,0.0,0.0,0.0,0.0,0.0,0.0,0.0,0.0,0.0,0.0,0.0,0.0,0.0,0.0,0.0,0.0,0.0,0.0,0.0,0.0,0.0,0.0,0.0,0.0,0.0,0.0,0.0,0.0,0.0,0.0,0.0,0.0,0.0,0.0,0.0,0.0,0.0,0.0,0.0,0.0,0.0,0.0,0.0,0.0,-1.2234,-1.201,-1.1776,-1.1776,-1.1776,-1.1776,-1.1776,-1.1776,-1.1897,-1.2014,0.0,0.0,0.0,0.0,0.0,0.0,0.0,0.0,0.0,0.0,0.0,0.0,0.0,0.0,0.0,0.0,0.0,0.0,0.0,0.0,0.0,0.0,0.0,0.0,0.0,0.0,0.0,0.0,0.0,0.0,0.0,0.0,0.0,0.0,0.0,0.0,0.0,0.0,0.0,0.0,0.0,0.0,0.0,0.0,0.0,0.0,0.0,0.0,0.0,0.0,0.0,0.0,0.0,0.0,0.0,0.0,0.0,0.0,0.0,0.0,-0.8277,0.0,0.0,0.0,0.0,0.0,0.0,0.0,0.0,0.0,0.0,0.0,0.0,0.0,0.0,0.0,0.0,0.0,0.0,0.0,0.0,0.0,0.0,0.0,0.0,0.0,0.0,0.0,0.0,0.0,0.0,0.0,0.0,0.0,0.0,0.0,0.0,0.0,0.0,0.0,0.0,0.0,-1.2234,-1.201,-1.1776,-1.1776,-1.1776,-1.1776,-1.1776,-1.2005,-1.2595,-1.3536,-1.566,0.0,0.0,0.0,0.0,0.0,0.0,0.0,0.0,0.0,0.0,0.0,0.0,0.0,0.0,0.0,0.0,0.0,0.0,0.0,0.0,0.0,0.0,0.0,0.0,0.0,0.0,0.0,0.0,0.0,0.0,0.0,0.0,0.0,0.0,0.0,0.0,0.0,0.0,0.0,0.0,0.0,0.0,0.0,0.0,0.0,0.0,0.0,0.0,0.0,0.0,0.0,0.0,0.0,0.0,0.0,0.0,0.0,0.0,0.0,0.0,-0.8345,0.0,0.0,0.0,0.0,0.0,0.0,0.0,0.0,0.0,0.0,0.0,0.0,0.0,0.0,0.0,0.0,0.0,0.0,0.0,0.0,0.0,0.0,0.0,0.0,0.0,0.0,0.0,0.0,0.0,0.0,0.0,0.0,0.0,0.0,0.0,0.0,0.0,0.0,0.0,0.0,-1.2996,-1.2759,-1.2483,-1.2399,-1.2386,-1.2348,-1.2255,-1.2951,-1.3655,-1.4242,-1.6715,0.0,0.0,0.0,0.0,0.0,0.0,0.0,0.0,0.0,0.0,0.0,0.0,0.0,0.0,0.0,0.0,0.0,0.0,0.0,0.0,0.0,0.0,0.0,0.0,0.0,0.0,0.0,0.0,0.0,0.0,0.0,0.0,0.0,0.0,0.0,0.0,0.0,0.0,0.0,0.0,0.0,0.0,0.0,0.0,0.0,0.0,0.0,0.0,0.0,0.0,0.0,0.0,0.0,0.0,-0.2984,-0.8473,-0.8342,-0.8392,-0.8878,-0.872,-0.8649,-0.8644,0.0,0.0,0.0,0.0,0.0,0.0,0.0,0.0,0.0,0.0,0.0,0.0,0.0,0.0,0.0,0.0,0.0,0.0,0.0,0.0,0.0,0.0,0.0,0.0,0.0,-1.2644,-1.2893,0.0,0.0,0.0,0.0,0.0,0.0,0.0,0.0,0.0,0.0,0.0,0.0,-1.3927,-1.3802,-1.3738,-1.3569,-1.3551,-1.3709,-1.3611,-1.466,-1.5348,-1.5424,-1.8112,-1.9862,0.0,0.0,0.0,0.0,0.0,0.0,0.0,0.0,0.0,0.0,0.0,0.0,0.0,0.0,0.0,0.0,0.0,0.0,0.0,0.0,0.0,0.0,0.0,0.0,0.0,0.0,0.0,0.0,0.0,0.0,0.0,0.0,-0.1977,-0.1977,0.0,0.0,0.0,0.0,0.0,0.0,0.0,0.0,0.0,0.0,0.0,0.0,0.0,-0.1423,-0.1966,-0.1974,-0.1334,0.0,0.0,-0.1819,-0.5387,-0.616,-0.7491,-0.9226,-0.9,0.0,-0.8902,-0.8886,0.0,0.0,0.0,0.0,0.0,0.0,0.0,0.0,0.0,0.0,0.0,0.0,0.0,0.0,0.0,0.0,0.0,0.0,0.0,0.0,0.0,0.0,-1.2505,-1.3164,-1.3295,-1.3421,0.0,-1.3774,-1.377,-1.4145,-1.4246,0.0,0.0,0.0,0.0,0.0,0.0,0.0,-1.3927,-1.4543,-1.5261,-1.5458,-1.6081,-1.6597,-1.7165,-1.7625,-1.8245,-1.8938,-2.02,-2.1479,-2.2877,-2.4214,0.0,0.0,0.0,0.0,0.0,0.0,0.0,0.0,0.0,0.0,0.0,0.0,0.0,0.0,0.0,0.0,0.0,0.0,0.0,0.0,0.0,0.0,0.0,0.0,0.0,0.0,0.0,0.0,0.0,-0.1977,-0.1977,-0.1977,-0.1977,-0.1977,0.0,0.0,0.0,0.0,0.0,0.0,0.0,0.0,0.0,-0.2048,-0.1685,-0.1309,-0.0923,-0.0937,-0.0543,0.0,0.0,-0.2389,-0.6942,-0.7407,-0.813,-0.8965,-0.8863,-0.8676,-0.8382,-0.8115,-0.8063,-0.8063,0.0,0.0,0.0,0.0,-0.8668,-0.866,-0.8606,-0.8587,0.0,0.0,0.0,0.0,0.0,0.0,0.0,0.0,0.0,0.0,0.0,0.0,0.0,-1.3367,-1.3625,-1.4019,-1.4141,-1.4655,-1.5003,0.0,-1.5388,-1.6043,-1.6414,0.0,0.0,0.0,0.0,-1.6684,-1.5671,-1.6546,-1.7113,-1.7219,-1.7937,-1.8686,-1.924,-1.9905,-2.0461,-2.1263,-2.248,-2.3528,-2.4119,-2.5331,-2.62,0.0,0.0,0.0,0.0,0.0,0.0,0.0,0.0,0.0,0.0,0.0,0.0,0.0,0.0,0.0,0.0,0.0,0.0,0.0,0.0,0.0,0.0,0.0,0.0,0.0,0.0,0.0,0.0,-0.1977,-0.1977,-0.1977,-0.1977,-0.1977,0.0,0.0,0.0,0.0,0.0,0.0,-0.2033,-0.1545,-0.1297,-0.1429,-0.1447,-0.1062,-0.0,0.0,0.0,0.0,0.0,-0.2664,-0.7592,-0.8303,-0.857,-0.8539,-0.8508,-0.8216,-0.7507,-0.765,-0.746,-0.7325,-0.7325,-0.746,-0.7728,-0.8241,-0.8499,-0.863,-0.8598,-0.8587,-0.8587,-0.8587,0.0,-0.8989,-0.9658,0.0,0.0,0.0,0.0,-1.2045,-1.2704,-1.3104,-1.3503,-1.363,-1.4015,-1.4534,-1.4796,-1.5578,-1.6053,0.0,-1.6339,-1.7219,-1.7468,0.0,0.0,0.0,0.0,-1.8285,-1.7759,-1.8768,-1.9568,-1.9731,-2.0695,-2.1551,-2.2071,-2.2583,-2.3068,-2.3566,-2.4734,-2.5331,-2.5221,-2.6309,-2.7079,-2.7314,0.0,0.0,0.0,0.0,0.0,0.0,0.0,0.0,0.0,0.0,0.0,0.0,0.0,0.0,0.0,0.0,0.0,0.0,0.0,0.0,0.0,0.0,0.0,0.0,0.0,0.0,0.0,0.0,0.0,-0.1977,-0.1977,0.0,0.0,0.0,0.0,-0.2016,-0.1405,-0.1289,-0.1936,-0.1961,-0.1317,-0.0132,-0.0133,-0.0135,-0.0,0.0,0.0,0.0,0.0,-0.1541,-0.4617,-0.7294,-0.8415,-0.7968,-0.7864,-0.7408,-0.6729,-0.7502,-0.74,-0.6842,-0.6842,-0.7261,-0.7807,-0.7842,-0.8214,-0.8745,-0.8628,-0.8587,-0.8587,-0.8587,-0.9125,-0.9661,-1.006,-1.0588,0.0,0.0,-1.1776,-1.2309,-1.2704,-1.3104,-1.3498,-1.4146,-1.4403,-1.4665,-1.5714,-1.6488,-1.6742,0.0,-1.6592,-1.7227,-1.7871,0.0,-1.8145,-1.853,-1.9054,-1.9559,-1.9757,-2.1042,-2.2541,-2.397,-2.5098,-2.5965,-2.6575,-2.6537,-2.639,-2.6151,-2.6545,-2.6763,-2.6418,-2.752,-2.8184,-2.8184,-2.8814,0.0,0.0,0.0,0.0,0.0,0.0,0.0,0.0,0.0,0.0,0.0,0.0,0.0,0.0,0.0,0.0,0.0,0.0,0.0,0.0,0.0,0.0,0.0,0.0,0.0,0.0,0.0,0.0,-0.1977,-0.1992,0.0,-0.2003,-0.2031,-0.2048,-0.205,-0.1817,-0.1308,-0.0785,-0.0663,-0.0534,-0.0,0.0,0.0,0.0,0.0,0.0,-0.0,-0.3827,-0.5055,-0.4358,-0.6687,-0.7643,-0.7626,-0.7051,-0.6498,-0.5825,-0.6126,-0.6139,-0.5867,-0.5867,-0.6275,-0.6951,-0.7451,-0.7978,-0.8647,-0.8603,-0.8587,-0.8587,-0.8851,-0.9256,-0.9794,-1.006,-1.0721,-1.1247,-1.1516,-1.2045,-1.2704,-1.3104,-1.3625,-1.4146,-1.4922,-1.5183,-1.5709,-1.6488,-1.7389,-1.7905,-1.7776,-1.8156,-1.8804,-1.8932,-1.9194,-1.9456,-1.9584,-2.069,-2.1539,-2.1644,-2.3514,-2.513,-2.5733,-2.6737,-2.7674,-2.8501,-2.8226,-2.8279,-2.8833,-2.8632,-2.8465,-2.8346,-2.8846,-2.9132,-2.9132,-2.9459,-2.9879,0.0,0.0,0.0,0.0,0.0,0.0,0.0,0.0,0.0,0.0,0.0,0.0,0.0,0.0,0.0,0.0,0.0,0.0,0.0,0.0,0.0,0.0,0.0,0.0,0.0,0.0,-0.198,-0.199,-0.2007,-0.2022,-0.2033,-0.2061,-0.195,-0.1951,-0.1581,-0.0931,-0.0,0.0,0.0,0.0,0.0,0.0,0.0,0.0,-0.0953,-0.2983,-0.6796,-0.7451,-0.5371,-0.6589,-0.6991,-0.6715,-0.6317,-0.5649,-0.4978,-0.4978,-0.4978,-0.4978,-0.4978,-0.5649,-0.6453,-0.6985,-0.7784,-0.8587,-0.8587,-0.872,-0.8853,-0.912,-0.9522,-0.9927,-1.0455,-1.0982,-1.1512,-1.1912,-1.2441,-1.3104,-1.3494,-1.4146,-1.4922,-1.5438,-1.5964,-1.6618,-1.7389,-1.8162,-1.8676,-1.9066,-1.945,-1.9711,-1.9711,-2.0462,-2.0956,-2.1082,-2.2416,-2.3762,-2.4255,-2.5863,-2.7211,-2.782,-2.8554,-2.9294,-3.0011,-2.9737,-2.9833,-3.0423,-3.0198,-3.0007,-2.9908,-3.012,-3.0201,-3.0096,-3.037,-3.0806,-3.1197,0.0,0.0,0.0,0.0,0.0,0.0,0.0,0.0,0.0,0.0,0.0,0.0,0.0,0.0,0.0,0.0,0.0,0.0,0.0,0.0,0.0,0.0,0.0,-0.1978,-0.1978,-0.1988,-0.2016,-0.202,-0.2033,-0.2063,-0.1963,-0.198,-0.198,-0.0669,0.0,0.0,0.0,0.0,0.0,0.0,0.0,0.0,-0.014,-0.3066,-0.8568,-0.8562,-0.8075,-0.727,-0.7134,-0.6591,-0.5381,-0.5381,-0.4978,-0.4308,-0.4308,-0.4308,-0.4308,-0.4308,-0.5112,-0.6453,-0.6453,-0.7386,-0.8587,-0.8587,-0.8853,-0.9117,-0.9525,-0.993,-1.0329,-1.0993,-1.1527,-1.1927,-1.2192,-1.2856,-1.3515,-1.3897,-1.4679,-1.5588,-1.5989,-1.6639,-1.7411,-1.8442,-1.8693,-1.9084,-1.9998,-2.0253,-2.024,-2.0234,-2.1566,-2.2776,-2.3025,-2.4493,0.0,-2.7847,-2.8095,-2.8701,-3.0265,-3.0733,-3.1082,-3.1325,-3.1271,-3.1134,-3.1144,-3.1388,-3.136,-3.1041,-3.1346,-3.1413,-3.12,-3.1478,-3.2037,-3.2812,0.0,0.0,0.0,0.0,0.0,0.0,0.0,0.0,0.0,0.0,0.0,0.0,0.0,0.0,0.0,0.0,0.0,0.0,0.0,0.0,0.0,0.0,-0.2007,-0.2007,-0.2007,-0.2018,-0.2048,-0.2071,-0.2088,-0.1965,-0.2144,-0.1767,-0.0679,-0.0275,0.0,0.0,0.0,0.0,0.0,0.0,0.0,0.0,-0.4489,-0.7578,-0.9104,-0.8859,-0.8237,-0.7376,-0.6892,-0.6187,-0.5381,-0.4844,-0.4441,-0.4308,-0.4308,-0.4308,-0.4308,-0.4308,-0.5112,-0.6453,-0.6453,-0.7386,-0.8587,-0.8587,-0.8853,-0.9117,-0.9525,-0.9993,-1.0473,-1.1153,-1.1771,-1.227,-1.295,-1.3629,-1.4301,-1.4567,-1.551,-1.6454,-1.7123,-1.8056,-1.8985,-1.9783,-2.1319,-2.272,-2.2992,-2.394,-2.4196,-2.2466,-2.3769,-2.5114,-2.5489,-2.6936,0.0,-2.8874,-2.9982,-3.0946,-3.1652,-3.1767,-3.2113,-3.2581,-3.2685,-3.2736,-3.2859,-3.2643,-3.26,-3.3018,-3.2997,-3.3005,-3.3182,-3.3242,-3.34,0.0,0.0,0.0,0.0,0.0,0.0,0.0,0.0,0.0,0.0,0.0,0.0,0.0,0.0,0.0,0.0,0.0,0.0,0.0,0.0,0.0,0.0,-0.2029,-0.2041,-0.2054,-0.2046,-0.2049,-0.2079,-0.2098,-0.2119,-0.2145,-0.1634,-0.0965,-0.0,0.0,0.0,0.0,0.0,0.0,0.0,-0.2566,-0.3852,-0.3852,-0.6277,-0.7974,-0.9209,-0.8563,-0.78,-0.7061,-0.6315,-0.5746,0.0,-0.4517,-0.4382,-0.4382,-0.4382,-0.4382,0.0,0.0,0.0,0.0,0.0,-0.795,-0.8663,-0.8797,-0.9235,-0.9549,-0.9961,-1.0419,-1.1029,-1.1582,-1.2194,-1.2681,-1.3372,-1.4049,-1.4591,-1.5273,-1.6365,-1.7318,-1.8256,-1.9578,-2.0901,-2.1826,-2.3623,-2.516,-2.5424,-2.6901,0.0,-2.6315,-2.6655,-2.7305,-2.7434,-2.9002,-3.0198,-3.0539,-3.1401,-3.2113,-3.2571,-3.2571,-3.2799,-3.3264,-3.3388,0.0,0.0,0.0,-3.3977,-3.4508,-3.4454,0.0,0.0,0.0,-3.4462,-3.4667,0.0,0.0,0.0,-3.5017,-3.5223,0.0,0.0,0.0,0.0,0.0,0.0,0.0,0.0,0.0,0.0,0.0,0.0,0.0,0.0,0.0,0.0,-0.2051,-0.208,-0.211,-0.2091,-0.2084,-0.2111,-0.2117,-0.2007,-0.192,-0.0827,0.0,0.0,0.0,0.0,0.0,0.0,0.0,0.0,0.0,-0.9372,-0.9372,-0.6563,-0.6513,-0.8884,-0.8007,-0.7239,-0.6591,-0.5883,-0.5181,-0.4482,-0.4482,-0.4482,-0.4482,-0.4482,-0.4482,-0.4611,-0.4632,-0.5393,-0.6736,-0.8074,-0.8685,-0.8927,-0.9197,0.0,0.0,-1.047,-1.1175,-1.1877,-1.2156,-1.2586,-1.3011,-1.3846,-1.4388,-1.4932,-1.6026,-1.7115,-1.8204,-1.9411,-2.125,-2.3077,-2.4253,-2.5662,-2.6935,-2.7587,-2.9306,-3.0519,-3.0642,-2.9888,-2.9368,-2.9431,-3.0879,-3.2069,-3.2352,-3.2342,-3.2571,-3.3264,0.0,0.0,-3.3738,-3.3851,-3.4166,-3.4703,-3.5024,-3.5263,-3.5684,-3.5779,-3.5747,-3.5777,-3.5317,-3.536,-3.5701,-3.5478,-3.532,-3.5308,-3.5247,-3.5223,0.0,0.0,0.0,0.0,0.0,0.0,0.0,0.0,0.0,0.0,0.0,0.0,0.0,0.0,0.0,-0.2088,-0.2097,-0.2111,-0.2142,-0.2141,-0.2139,-0.2145,-0.2168,-0.164,-0.0549,-0.014,0.0,0.0,0.0,0.0,0.0,0.0,0.0,0.0,-0.599,-0.9372,-0.9372,-0.8757,-0.8297,-0.7984,0.0,0.0,-0.5831,-0.5628,-0.5181,-0.4482,-0.4482,-0.4482,-0.4482,-0.4482,-0.4902,-0.5451,-0.5911,-0.6692,-0.751,-0.8462,-0.8812,-0.8916,-0.9328,-0.976,-1.0197,-1.047,-1.1246,-1.205,-1.233,-1.2982,0.0,-1.451,-1.5493,-1.6467,-1.6897,-1.8149,-1.9519,-2.127,-2.2632,-2.4132,-2.6113,-2.808,-2.9775,-3.04,-3.17,-3.276,-3.3006,-3.2702,-3.2356,-3.2448,-3.2885,-3.312,-3.3328,-3.3275,-3.3501,-3.3851,-3.4267,-3.4703,-3.5046,-3.5488,-3.5829,-3.5938,-3.6363,-3.675,-3.6764,-3.7287,-3.7367,-3.6944,-3.7043,-3.6892,-3.6557,-3.6333,-3.6162,-3.6162,-3.5721,-3.562,0.0,0.0,0.0,0.0,0.0,0.0,0.0,0.0,0.0,0.0,0.0,-0.2041,-0.2041,0.0,-0.2091,-0.2107,-0.1857,-0.1736,-0.2153,-0.2155,-0.1885,-0.1212,-0.109,-0.0827,-0.0139,0.0,0.0,0.0,0.0,0.0,0.0,0.0,0.0,0.0,-0.3061,-0.5835,-0.8188,-0.7582,-0.7425,-0.7428,-0.6507,-0.5909,-0.5769,-0.5301,-0.5002,-0.4574,-0.4574,-0.4574,-0.4574,-0.5,-0.5833,-0.678,-0.7154,-0.7523,-0.7893,-0.8586,-0.9076,-0.9321,-0.9742,-1.0205,-1.0687,-1.1251,-1.1864,-1.2495,-1.2775,-1.3547,-1.4332,-1.4906,-1.5749,-1.6871,-1.7715,-1.9373,-2.1158,-2.2662,-2.4822,-2.6964,-2.8427,-3.0401,-3.1973,-3.2473,-3.3464,-3.4101,-3.4348,-3.4411,-3.4397,-3.3824,-3.4083,-3.435,-3.4464,-3.4343,-3.4421,-3.4986,-3.5079,-3.5367,-3.5817,-3.6375,-3.67,-3.67,-3.7239,-3.756,-3.756,-3.7868,-3.7971,-3.7811,-3.7648,-3.7599,-3.7445,-3.7183,-3.6862,-3.6603,-3.6428,-3.6264,0.0,0.0,0.0,0.0,0.0,0.0,0.0,0.0,-0.2408,-0.2027,-0.2052,-0.2073,-0.2073,-0.2097,-0.2118,-0.2118,-0.1603,-0.1346,-0.2155,-0.202,-0.1348,-0.0135,0.0,0.0,0.0,0.0,0.0,0.0,0.0,0.0,0.0,0.0,0.0,0.0,0.0,-0.1893,-0.5983,-0.5678,-0.5965,-0.6698,-0.5239,-0.4803,-0.5536,-0.4955,-0.4665,-0.4665,-0.481,-0.4955,-0.5245,-0.597,-0.6943,-0.8021,-0.8166,-0.8255,-0.8313,-0.8855,-0.9344,-0.9877,-1.0303,-1.0659,-1.1185,-1.1907,-1.2474,-1.2896,-1.3325,-1.3904,-1.4763,-1.519,-1.6169,-1.7288,-1.8406,-2.0605,-2.2792,-2.4167,-2.6831,-2.9483,-3.054,-3.2119,-3.3544,-3.3922,-3.4548,-3.4922,-3.5046,-3.5552,-3.5638,-3.456,-3.492,-3.5361,-3.5615,-3.5374,-3.5468,-3.615,-3.6038,-3.6139,-3.6592,-3.7024,-3.7239,-3.7239,-3.7773,-3.7986,-3.7986,-3.7986,-3.8092,-3.8409,-3.7995,-3.7995,-3.8329,-3.8053,-3.7643,-3.7194,-3.719,-3.6801,-0.3951,-0.3703,-0.3455,-0.3208,-0.2866,-0.2517,0.0,0.0,-0.2187,-0.2059,-0.2083,-0.2104,-0.2104,-0.2129,-0.2149,-0.2149,-0.1614,-0.1346,-0.2155,-0.1077,-0.0135,-0.0,0.0,0.0,0.0,0.0,0.0,0.0,0.0,0.0,0.0,0.0,0.0,0.0,0.0,-0.0873,-0.2766,-0.4947,-0.6112,-0.5972,-0.568,-0.5389,-0.4809,-0.481,-0.4665,-0.4665,-0.5391,-0.6117,-0.6843,-0.7564,-0.7989,-0.8124,-0.885,-0.9419,-0.9681,-0.9575,-0.9755,-1.0006,-1.0731,-1.1168,-1.1606,-1.2047,-1.2617,-1.3325,-1.3757,-1.4332,-1.519,-1.6169,-1.7288,-1.8406,-1.9663,-2.1584,-2.3753,-2.5771,-2.7759,-2.9744,-3.1754,-3.2785,-3.3544,-3.4173,-3.4673,-3.5046,-3.5675,-3.6044,-3.612,-3.559,-3.5875,-3.6091,-3.5903,-3.6363,-3.6652,-3.6778,-3.7342,-3.7625,-3.7809,-3.7868,-3.788,-3.788,-3.7986,-3.7986,-3.7986,-3.7986,-3.8092,-3.8409,-3.857,-3.8859,-3.9171,-3.8943,-3.8743,-3.8655,-3.7651,-3.6897,-0.4,-0.3773,-0.3538,0.0,-0.3034,-0.2557,-0.2684,-0.2327,-0.2091,-0.2091,-0.2114,-0.2136,-0.2136,-0.2146,-0.2155,0.0,-0.1616,-0.1077,-0.0942,-0.0404,0.0,0.0,0.0,0.0,0.0,0.0,0.0,0.0,0.0,0.0,0.0,0.0,0.0438,0.1314,0.1313,0.0146,-0.2331,-0.2475,-0.3494,-0.51,-0.4515,-0.437,-0.4665,-0.4665,-0.4955,-0.5391,-0.6117,-0.6986,-0.7709,-0.7996,-0.8432,-0.8868,-0.9157,-0.959,-0.9873,-0.9821,-1.0126,-1.0606,-1.0897,-1.1472,-1.2043,-1.2474,-1.3043,-1.3757,-1.4189,-1.4759,-1.5607,-1.6452,-1.757,-1.8821,-2.0743,-2.3059,-2.5353,-2.7619,-2.9622,-3.1469,-3.2657,-3.3544,-3.4173,-3.4548,-3.517,-3.5552,-3.5798,-3.63,-3.6603,-3.641,-3.6729,-3.6894,-3.6806,-3.7122,-3.7517,-3.7906,-3.8225,-3.8382,-3.8491,-3.8166,-3.7986,-3.7986,-3.7986,-3.7986,-3.7986,-3.7986,-3.8198,-3.8631,-3.8736,-3.905,-3.9581,-3.9459,-3.9182,-3.8856,-3.8391,-3.7688,-0.406,-0.3836,0.0,-0.3816,-0.3208,-0.2726,-0.2856,-0.2494,-0.2122,-0.2122,-0.2139,-0.2155,-0.2155,-0.2155,-0.2155,-0.2155,-0.1616,-0.0808,-0.0135,0.0,0.0,0.0,0.0,0.0,0.0,0.0,0.0,0.0,0.0,0.0,0.0,-0.1605,-0.1605,0.0292,0.1021,-0.0,-0.2916,-0.1895,-0.2478,-0.4664,-0.4078,-0.4223,-0.4955,-0.5245,-0.5682,-0.6404,-0.6986,-0.7711,-0.843,-0.843,-0.8721,-0.9304,-0.9449,-0.9735,-1.0023,-1.017,-1.0606,-1.1044,-1.1188,-1.1763,-1.2477,-1.2757,-1.3472,-1.4189,-1.4479,-1.5186,-1.6028,-1.6871,-1.8261,-1.9918,-2.2108,-2.4672,-2.7222,-2.8952,-3.0954,-3.254,-3.3301,-3.3922,-3.4548,-3.4797,-3.5428,-3.5921,-3.6044,-3.6545,-3.6921,-3.7032,-3.7385,-3.7616,-3.7616,-3.8022,-3.8539,-3.9066,-3.9244,-3.9128,-3.8839,-3.8443,-3.8154,-3.7986,-3.7986,-3.7986,-3.7986,-3.7986,-3.8303,-3.8736,-3.8841,-3.9062,-3.9697,-3.9697,-3.9484,-3.9094,-3.8944,-3.8429,-0.4123,-0.3865,-0.3608,-0.3607,-0.3127,-0.2635,-0.2635,-0.2398,-0.2153,-0.2153,-0.2154,-0.2155,-0.2155,-0.2155,-0.2155,-0.2155,-0.1616,-0.0808,-0.0135,0.0,0.0,0.0,0.0,0.0,0.0,0.0,0.0,0.0,0.0,0.0,0.0,-0.5696,-0.7604,-0.4525,-0.233,-0.2185,-0.467,-0.4525,-0.4669,-0.4665,-0.5391,-0.5682,-0.5827,-0.6553,-0.7276,-0.7996,-0.7996,-0.8577,-0.9302,-0.9302,-0.9304,-0.9302,-0.9735,-1.0167,-1.0455,-1.0897,-1.1044,-1.1044,-1.1907,-1.2477,-1.2896,-1.3182,-1.39,-1.4479,-1.4906,-1.5749,-1.6871,-1.7991,-2.0184,-2.2375,-2.3495,-2.618,-2.8838,-2.9639,-3.1092,-3.254,-3.3301,-3.3922,-3.4548,-3.4797,-3.5428,-3.6044,-3.63,-3.6678,-3.7032,-3.7385,-3.7867,-3.8227,-3.8227,-3.9391,-4.0127,-4.0314,-4.0355,-3.9934,-3.8912,-3.8803,-3.8563,-3.8022,-3.7986,-3.7986,-3.7986,-3.7986,-3.8303,-3.8736,-3.8841,-3.9062,-3.9697,-3.9697,-3.9685,-3.9647,-3.912,-3.8856,-0.4185,-0.4084,-0.4104,-0.4064,-0.3702,-0.3341,-0.3073,-0.2818,-0.2425,-0.2289,-0.2155,-0.2155,-0.2155,-0.2155,-0.2155,-0.2155,-0.202,-0.1351,-0.0136,0.0,0.0,0.0,0.0,0.0,0.0,0.0,0.0,0.0,0.0,-0.1751,-0.5988,-0.8193,-0.8038,-0.5242,-0.3786,-0.3349,-0.4225,-0.3788,-0.4226,-0.5391,-0.6263,-0.6553,-0.6553,-0.7421,-0.7851,-0.814,-0.8721,-0.9013,-0.9304,-0.9304,-0.9446,-0.9735,-0.9879,-1.0314,-1.0897,-1.0897,-1.1332,-1.1763,-1.2054,-1.2617,-1.3182,-1.3615,-1.4189,-1.4906,-1.5328,-1.6174,-1.7439,-1.9094,-2.0876,-2.2916,-2.5644,-2.7776,-2.9492,-3.1092,-3.2147,-3.2921,-3.3922,-3.4298,-3.4673,-3.5418,-3.5921,-3.63,-3.6678,-3.7032,-3.7385,-3.7867,-3.8227,-3.8585,-3.9403,-3.9873,-4.0396,-4.0932,-4.0607,-4.0246,-3.9898,-3.9224,-3.8731,-3.8551,-3.819,-3.7986,-3.7986,-3.8198,-3.8409,-3.8736,-3.9408,-3.9631,-3.9697,-4.0061,-4.0049,-3.9685,-3.9496,-3.922,-0.4248,-0.4278,-0.4298,-0.4259,-0.4011,-0.3768,-0.3498,-0.3096,-0.2694,-0.2424,-0.2289,-0.2155,-0.2155,-0.2155,-0.2155,-0.1885,-0.202,-0.1624,-0.0274,0.0,0.0,0.0,0.0,0.0,0.0,0.0,0.0,-0.0146,-0.2043,-0.5109,-0.9079,-0.9364,-0.8321,-0.6257,-0.5675,-0.5385,-0.5093,-0.4658,-0.5094,-0.6694,-0.7131,-0.7568,-0.7858,-0.8288,-0.8577,-0.8577,-0.9013,-0.9449,-0.9446,-0.9446,-0.9735,-1.0167,-1.0314,-1.0606,-1.1181,-1.1332,-1.1903,-1.2621,-1.2477,-1.2904,-1.3611,-1.4047,-1.4617,-1.5328,-1.5886,-1.6734,-1.8137,-1.9924,-2.1964,-2.4267,-2.6988,-2.8986,-3.0558,-3.2019,-3.2794,-3.3301,-3.4173,-3.4548,-3.4797,-3.5675,-3.6178,-3.6545,-3.68,-3.7396,-3.7976,-3.8585,-3.8823,-3.9285,-4.0106,-4.0467,-4.0699,-4.1184,-4.0872,-4.0595,-4.0415,-3.9597,-3.902,-3.8827,-3.8298,-3.7986,-3.7986,-3.8198,-3.8409,-3.8736,-3.9396,-3.9618,-3.9697,-4.0049,-4.0036,-3.9697,-3.9697,-3.9509,-0.4307,-0.4308,-0.4308,-0.4308,-0.4038,-0.3768,-0.3768,-0.3231,-0.2694,-0.2694,-0.2424,-0.2155,0.0,0.0,-0.202,-0.1481,-0.1885,-0.1624,-0.0275,0.0,0.0,0.0,0.0,0.0,0.0,0.0,0.0,-0.0876,0.0,-0.9076,-0.9224,-0.92,-0.8892,-0.7869,-0.8003,-0.7709,-0.7133,-0.6988,-0.7421,-0.814,-0.814,-0.8577,-0.9304,-0.9304,-0.9304,-0.9304,-0.9304,-0.959,-0.9879,-0.9879,-1.0167,-1.0599,-1.0897,-1.1325,-1.1749,-1.2047,-1.2617,-1.3325,-1.2896,-1.3325,-1.4043,-1.4336,-1.5039,-1.5744,-1.6447,-1.757,-1.8966,-2.0762,-2.3603,-2.6424,-2.7527,-2.9926,-3.2047,-3.2294,-3.2921,-3.3544,-3.4298,-3.4673,-3.517,-3.5798,-3.6167,-3.6545,-3.6921,-3.7626,-3.8596,-3.9224,-3.9802,-4.0258,-4.0235,-4.0826,-4.1184,-4.1184,-4.1184,-4.098,-4.0475,-3.9922,-3.9393,-3.8888,-3.831,-3.7986,-3.7986,-3.7986,-3.8303,-3.8736,-3.8865,-3.9203,-3.9735,-3.9735,-3.9735,-3.9735,-3.971,-3.9697,-0.4294,-0.4308,-0.4308,-0.4308,-0.4172,-0.4038,-0.3498,-0.3229,-0.2961,-0.2424,-0.2289,-0.2155,0.0,0.0,0.0,-0.1346,-0.175,0.0,-0.0139,0.0,0.0,0.0,0.0,0.0,0.0,-0.5695,0.0,0.0,-0.6274,-0.6559,-0.8171,-0.8897,-0.8887,-0.8,-0.8143,-0.7996,-0.7853,-0.7853,-0.7851,-0.814,-0.8721,-0.9157,-0.9304,-0.9304,-0.9304,-0.9304,-0.959,-0.9735,-0.9879,-1.0167,-1.0603,-1.0897,-1.09,-1.1472,-1.2047,-1.2194,-1.2617,-1.3325,-1.3615,-1.3904,-1.4474,-1.4763,-1.5607,-1.6452,-1.7021,-1.8686,-2.0894,-2.2662,-2.5226,-2.766,-2.9535,-3.112,-3.2294,-3.2667,-3.3292,-3.3922,-3.4298,-3.4922,-3.5428,-3.6167,-3.6778,-3.7143,-3.7264,-3.7867,-3.8709,-3.9682,-4.0455,-4.0787,-4.0874,-4.1057,-4.1184,-4.1184,-4.1184,-4.1124,-4.0992,-4.0138,-3.9549,-3.9417,-3.8503,-3.7986,-3.7986,-3.8198,-3.8421,-3.8841,-3.9445,-3.9972,-4.0312,-4.0312,-4.0312,-4.03,-3.9885,-4.007,-0.429,-0.4308,-0.4308,-0.4308,-0.4308,-0.4172,-0.3768,-0.3632,-0.3363,-0.2961,-0.2693,-0.2424,-0.2424,-0.2289,-0.202,0.0,0.0,0.0,-0.0978,-0.0421,0.0,0.0,0.0,0.0,-0.3795,-0.5984,-0.7886,0.0,-0.7289,-0.6553,-0.7724,-0.816,-0.83,-0.814,-0.814,-0.8285,-0.8577,-0.8577,-0.8577,-0.8577,-0.9013,-0.9304,-0.9304,-0.9304,-0.9446,-0.959,0.0,-1.0023,-1.0458,-1.0606,-1.0894,-1.1332,-1.1476,-1.1903,-1.2474,-1.2617,-1.319,-1.39,-1.4047,-1.4474,-1.5044,-1.5186,-1.6032,-1.7157,-1.8272,-1.9924,-2.2121,-2.4424,-2.6581,-2.8592,-3.0473,-3.1644,-3.2549,-3.3048,-3.367,-3.4173,-3.4548,-3.517,-3.5798,-3.6545,-3.7021,-3.7495,-3.7747,-3.8347,-3.9112,-4.0333,-4.0999,-4.1578,-4.1882,-4.1677,-4.1533,-4.1533,-4.1329,-4.1184,-4.1184,-4.0427,-3.985,-3.9621,-3.8815,-3.8238,-3.7986,-3.8092,-3.8421,-3.8736,-3.9241,-3.9842,-4.0513,-4.0275,-4.0275,-4.0501,-4.0427,-4.0642,-0.4279,-0.4301,-0.4308,-0.4308,-0.4308,-0.4308,-0.4307,-0.4038,-0.3768,-0.3768,-0.3231,-0.2694,-0.2694,-0.2424,-0.2155,-0.202,0.0,-0.0408,-0.1673,-0.0841,0.0,0.0,-0.0729,-0.3356,-0.8782,-0.6855,-0.6406,-0.9039,-0.8452,-0.7867,-0.7867,-0.7573,-0.7566,-0.8285,-0.8285,-0.8577,-0.9304,-0.9304,-0.9304,-0.9304,-0.9304,-0.9304,-0.9304,-0.9304,-0.959,-0.9879,0.0,0.0,-1.1044,-1.1044,-1.1332,-1.1763,-1.2051,-1.2474,-1.2896,-1.3182,-1.39,-1.4479,-1.4621,-1.5181,-1.5744,-1.5744,-1.6593,-1.7996,-1.9785,-2.1421,-2.3324,-2.6054,-2.78,-2.9378,-3.0732,-3.1772,-3.2676,-3.3301,-3.3922,-3.4548,-3.4797,-3.5418,-3.6167,-3.68,-3.7275,-3.7747,-3.8227,-3.8999,-3.9928,-4.0903,-4.1768,-4.2363,-4.2904,-4.2447,-4.205,-4.1978,-4.1557,-4.1256,-4.1196,-4.0703,-4.0162,-3.9633,-3.9116,-3.8563,-3.7998,-3.7974,-3.8303,-3.8736,-3.8841,-3.9426,-4.0513,-4.0127,-4.0244,-4.0698,-4.1282,-4.1584,-0.4215,-0.4268,-0.4308,-0.4308,-0.4308,-0.4172,-0.3902,-0.3902,-0.3768,-0.3363,-0.2961,-0.2694,-0.2694,-0.2424,-0.202,-0.1346,-0.0538,-0.0135,-0.0413,-0.0139,0.0,0.0,-0.4496,-0.8047,-0.9224,-0.8762,0.0,0.0,0.0,-0.7998,-0.7998,-0.8579,-0.9013,-0.9157,-0.9157,-0.9157,-0.9304,-0.9304,-0.9304,-0.9304,-0.9304,-0.9304,-0.9304,-0.959,-0.9879,-0.9879,-1.0606,0.0,-1.1044,-1.1332,-1.1763,-1.2051,-1.2194,-1.2617,-1.3325,-1.3615,-1.4047,-1.4621,-1.5181,-1.5886,-1.6447,-1.6447,-1.7981,-1.9785,-2.0762,-2.3209,-2.6054,-2.7137,-2.9003,-3.0732,-3.1901,-3.2412,-3.2921,-3.367,-3.4173,-3.4548,-3.4797,-3.5665,-3.6545,-3.7143,-3.7747,-3.8227,-3.8227,-3.9641,-4.0915,-4.1551,-4.2603,-4.3445,-4.3998,-4.3228,-4.2459,-4.2026,-4.1894,-4.1653,-4.122,-4.0703,-4.0162,-3.9633,-3.9116,-3.8563,-3.7998,-3.8198,-3.8514,-3.8841,-3.905,-3.9648,-4.0513,-4.1312,-4.1826,-4.1814,-4.2785,-4.3435,-0.4247,-0.4285,-0.4308,-0.4308,-0.4308,-0.4307,-0.4038,-0.4038,-0.4038,-0.3768,-0.35,-0.3231,-0.2961,-0.2558,-0.202,-0.175,-0.0673,0.0,0.0,0.0,-0.1269,-0.443,-0.7544,-0.9367,-0.9351,-0.934,-0.9326,0.0,0.0,-0.8577,-0.814,-0.8432,-0.8721,-0.8721,-0.9013,-0.9304,-0.9304,-0.9304,-0.9304,-0.9304,-0.9304,-0.9446,-0.959,-0.9879,-1.017,-1.0462,-1.0897,0.0,-1.1619,-1.1763,-1.2191,-1.2474,-1.276,-1.3186,-1.3615,-1.4043,-1.4617,-1.5186,-1.5886,-1.6593,-1.7298,-1.8541,-1.9791,-2.1026,-2.2929,-2.5233,-2.7411,-2.874,-3.0204,-3.1525,-3.2294,-3.2794,-3.3292,-3.4047,-3.4673,-3.5294,-3.5552,-3.6178,-3.6789,-3.7253,-3.7867,-3.8466,-3.8704,-4.0067,-4.1294,-4.2185,-4.2939,-4.3709,-4.4275,-4.3902,-4.3373,-4.2832,-4.2291,-4.187,-4.1617,-4.1112,-4.0463,-3.9657,-3.9369,-3.8852,-3.801,-3.8092,-3.8409,-3.8736,-3.8945,-3.9832,-4.1324,-4.1917,-4.2413,-4.2891,-4.3983,-4.4441,-0.4275,-0.4297,-0.4308,-0.4308,-0.4308,-0.4308,-0.4308,-0.4308,-0.4308,-0.4308,-0.4038,-0.3633,-0.3228,-0.296,-0.2826,0.0,-0.1883,-0.081,-0.0137,-0.0553,-0.2945,-0.8563,-0.9256,0.0,-0.9332,-0.9326,0.0,0.0,0.0,0.0,-0.8432,-0.8285,-0.8285,-0.8285,-0.9013,-0.9304,-0.9304,-0.9304,-0.9304,-0.9449,-0.9449,-0.959,-1.0023,-1.017,-1.0462,-1.1044,-1.1188,0.0,0.0,-1.2338,-1.2617,-1.2896,-1.3325,-1.3615,-1.4047,-1.4617,-1.5181,-1.6028,-1.6861,-1.757,-1.8552,-2.1302,-2.199,-2.2258,-2.4949,-2.698,-2.8608,-3.0083,-3.1138,-3.2047,-3.2422,-3.3048,-3.367,-3.4298,-3.517,-3.6044,-3.63,-3.6667,-3.7043,-3.7374,-3.7976,-3.8704,-3.9178,-4.0515,-4.1674,-4.2699,-4.3289,-4.3854,-4.4299,-4.4347,-4.4178,-4.3746,-4.276,-4.2098,-4.1978,-4.1485,-4.0727,-3.9669,-3.9609,-3.9116,-3.8022,-3.8092,-3.8303,-3.8736,-3.8841,-3.986,-4.1938,-4.2466,-4.3058,-4.3778,-4.5133,-4.5449,-0.4224,-0.4266,-0.4308,-0.4308,-0.4308,-0.4308,-0.4308,-0.4308,-0.4308,-0.4308,-0.4038,-0.3633,-0.3228,-0.3897,-0.4567,0.0,0.0,-0.3487,-0.0403,-0.2311,-0.5245,-0.8866,0.0,0.0,-0.9321,-0.9315,0.0,0.0,0.0,0.0,-0.9157,-0.9157,-0.9157,-0.9157,-0.9302,-0.9304,-0.9304,-0.9304,-0.9449,-0.9879,-0.9879,-1.0023,-1.0455,-1.075,-1.09,-1.1044,-1.1763,0.0,0.0,-1.2617,-1.29,-1.3325,-1.3757,-1.4047,-1.4479,-1.5181,-1.6028,-1.6871,-1.8239,-1.9634,-2.1308,-2.4139,-2.4409,-2.4017,-2.5927,-2.8205,-3.0222,-3.0741,-3.1515,-3.2422,-3.2794,-3.3292,-3.4047,-3.4673,-3.5428,-3.6044,-3.63,-3.6667,-3.7043,-3.7374,-3.8347,-3.919,-3.9308,-4.1176,-4.2699,-4.2747,-4.3625,-4.4287,-4.4335,-4.4347,-4.4323,-4.4275,-4.3325,-4.2495,-4.2014,-4.1485,-4.0727,-3.9669,-3.9609,-3.9116,-3.8022,-3.8198,-3.8514,-3.8841,-3.905,-3.9878,-4.1311,-4.3446,-4.4412,-4.4331,-4.6555,-4.6949,-0.4404,-0.4289,-0.4308,-0.4308,-0.4308,-0.4442,-0.4844,-0.4575,-0.4442,-0.4844,-0.4441,-0.4304,-0.4701,-0.4969,-0.5369,0.0,0.0,0.0,-0.4964,-0.4478,-0.5625,-0.9007,-0.9181,0.0,0.0,0.0,0.0,0.0,0.0,0.0,-0.9304,-0.9304,-0.9304,-0.9304,-0.9304,-0.9304,-0.9304,-0.959,-0.9735,-0.9879,-1.0167,-1.0458,-1.075,-1.0897,-1.1332,-1.1763,-1.2051,0.0,0.0,-1.3039,-1.3472,-1.4047,-1.4189,-1.4617,-1.5181,-1.6028,-1.6997,-1.8245,-1.9779,-2.1427,-2.3209,-2.5375,-2.6439,-2.7105,-2.8468,-2.9683,-3.075,-3.1396,-3.2038,-3.2794,-3.3175,-3.3796,-3.4673,-3.5046,-3.5675,-3.63,-3.6423,-3.6789,-3.7385,-3.7867,-3.8347,-3.8942,-3.9767,-4.1211,-4.2388,-4.276,-4.3673,-4.4347,-4.4347,-4.4347,-4.4347,-4.4347,-4.3397,-4.2675,-4.2459,-4.1665,-4.0727,-3.9669,-3.9609,-3.9116,-3.8022,-3.8303,-3.8816,-3.9725,-4.002,-4.1106,-4.3054,-4.476,-4.5521,-4.5321,-4.6986,-4.71,-0.4978,-0.4575,-0.4308,-0.4577,-0.4575,-0.471,-0.5247,-0.4978,-0.4844,-0.578,-0.5377,-0.5242,-0.6303,-0.6704,-0.6971,0.0,0.0,-0.8865,-0.8737,-0.7168,-0.6948,-0.9197,0.0,-0.92,0.0,0.0,0.0,0.0,0.0,0.0,-0.9304,-0.9304,-0.9304,-0.9304,-0.9304,-0.9304,-0.9304,-0.9735,-1.0023,-1.0023,-1.0455,-1.0894,-1.1188,-1.1332,-1.1619,-1.2194,0.0,0.0,0.0,-1.3615,-1.4047,-1.4479,-1.4759,-1.5323,-1.6028,-1.6593,-1.7981,-1.9767,-2.144,-2.3209,-2.4964,-2.6996,-2.8468,-2.9518,-3.0473,-3.1,-3.1396,-3.2038,-3.2667,-3.3292,-3.367,-3.4423,-3.5046,-3.5418,-3.5921,-3.6423,-3.6545,-3.7021,-3.7616,-3.8227,-3.8466,-3.8987,-4.0188,-4.1306,-4.2316,-4.2964,-4.3758,-4.4347,-4.4347,-4.4347,-4.4347,-4.4347,-4.3529,-4.2928,-4.2772,-4.193,-4.0896,-3.9681,-3.9609,-3.9116,-3.8128,-3.8594,-3.9403,-4.0503,-4.0993,-4.2252,-4.4312,-4.5549,-4.6206,-4.6185,-4.7274,-4.7177,-0.6185,-0.5381,-0.4441,-0.5247,-0.5381,-0.5381,-0.5381,-0.5381,-0.5781,-0.7247,-0.6844,-0.6706,-0.7767,-0.9102,-0.9908,-0.9235,0.0,0.0,-1.0751,-1.0336,-0.9984,0.0,0.0,-0.928,-0.9111,0.0,0.0,0.0,0.0,0.0,-0.9304,-0.9304,-0.9304,-0.9304,-0.9304,-0.9304,-0.9304,-0.9735,-1.0167,-1.0455,-1.0894,-1.1188,-1.1619,-1.2051,-1.2194,0.0,0.0,0.0,0.0,-1.4189,-1.4479,-1.4621,-1.5323,-1.6028,-1.6729,-1.7163,-1.8971,-2.1452,-2.3209,-2.5106,-2.7004,-2.9413,-3.0482,-3.1009,-3.1662,-3.1919,-3.2047,-3.2667,-3.3418,-3.4047,-3.4673,-3.4922,-3.5046,-3.5798,-3.6167,-3.6545,-3.68,-3.7154,-3.7616,-3.8227,-3.8823,-3.9694,-4.0786,-4.2031,-4.2928,-4.3433,-4.3986,-4.4347,-4.4347,-4.4347,-4.4347,-4.4347,-4.3842,-4.3301,-4.2808,-4.2267,-4.1293,-3.9705,-3.9609,-3.9225,-3.8457,-3.9403,-4.0287,-4.0792,-4.1874,-4.304,-4.4312,-4.5549,-4.6419,-4.6838,-4.7477,-4.7453,-0.6451,-0.6051,-0.5783,-0.6051,-0.6051,-0.6183,-0.6715,-0.6976,-0.7374,-0.8051,-0.8312,-0.8571,-0.9634,-1.0038,-1.0309,-1.0843,-1.1111,0.0,0.0,0.0,0.0,-0.9594,-0.9264,-0.9002,0.0,0.0,0.0,0.0,0.0,0.0,-0.9304,-0.9304,-0.9304,-0.9304,-0.9593,-0.9735,-0.9735,-1.0317,-1.075,-1.0897,-1.1185,-1.1619,-1.2051,-1.2194,0.0,0.0,0.0,0.0,0.0,-1.4336,-1.4759,-1.5323,-1.6028,-1.7137,-1.8385,-1.9512,-2.1702,-2.4274,-2.5375,-2.727,-2.9282,-3.0352,-3.1138,-3.1709,-3.2762,-3.2906,-3.2734,-3.3779,-3.4724,-3.5524,-3.5473,-3.5768,-3.6061,-3.5871,-3.63,-3.68,-3.6921,-3.7517,-3.8227,-3.8823,-3.9178,-3.9812,-4.14,-4.1912,-4.2435,-4.3312,-4.3986,-4.4347,-4.4347,-4.4347,-4.4347,-4.4347,-4.419,-4.3721,-4.2832,-4.2279,-4.1293,-3.9705,-3.9609,-3.9225,-3.8457,-3.9609,-4.0792,-4.1861,-4.304,-4.4429,-4.6031,-4.6864,-4.7637,-4.8186,-4.7921,-4.7954,-0.7386,-0.6853,-0.6453,-0.6719,-0.6851,-0.6982,-0.791,-0.8304,-0.8701,-0.9905,-1.0038,-1.03,-1.1501,-1.1369,-1.1372,-1.1909,-1.1648,0.0,0.0,0.0,0.0,-0.9525,0.0,0.0,0.0,0.0,0.0,0.0,0.0,0.0,0.0,-0.9449,-0.959,-0.959,-0.9735,-1.0023,-1.0167,-1.075,-1.1044,-1.1044,-1.1619,-1.1907,-1.2194,-1.2477,0.0,0.0,0.0,0.0,0.0,-1.4901,-1.5323,-1.6164,-1.7137,-1.8385,-1.9912,-2.1571,-2.3746,-2.6039,-2.6988,-2.874,-3.0638,-3.132,-3.2245,-3.3201,-3.3979,-3.4002,-3.3975,-3.5012,-3.5807,-3.6177,-3.5855,-3.6237,-3.6499,-3.616,-3.6545,-3.6921,-3.7032,-3.7747,-3.8466,-3.9178,-3.9694,-4.0457,-4.2052,-4.2329,-4.272,-4.3623,-4.413,-4.4347,-4.4347,-4.4347,-4.4347,-4.4347,-4.4347,-4.3914,-4.2856,-4.2459,-4.1509,-3.9717,-3.9609,-3.9431,-3.9166,-4.0287,-4.1663,-4.304,-4.4312,-4.5502,-4.6824,-4.796,-4.8757,-4.9189,-4.9044,-4.9078,0.0,-0.7655,-0.6719,-0.7381,-0.7514,-0.7912,-0.8969,-0.9235,0.0,-1.2285,-1.2022,-1.1762,-1.3099,-1.3104,-1.2704,-1.2309,-1.2045,0.0,0.0,-1.0455,0.0,0.0,-0.8957,0.0,0.0,0.0,0.0,0.0,0.0,0.0,0.0,-0.9735,-1.0023,-1.0023,-1.0023,-1.0167,-1.0599,-1.0897,-1.1044,-1.1044,-1.1907,-1.2194,-1.2338,-1.3043,0.0,0.0,0.0,0.0,0.0,-1.5465,-1.6169,-1.7007,-1.8519,-2.0051,-2.1584,-2.3481,-2.5241,-2.7012,-2.832,-2.9813,-3.1247,-3.2441,-3.3771,-3.4897,-3.529,-3.542,-3.5551,-3.62,-3.6361,-3.6408,-3.6328,-3.6436,-3.6676,-3.6582,-3.6699,-3.7032,-3.7374,-3.7867,-3.8585,-3.9178,-4.0304,-4.1401,-4.2544,-4.318,-4.3697,-4.4263,-4.4347,-4.4347,-4.4347,-4.4347,-4.4347,-4.4347,-4.4347,-4.3938,-4.2904,-4.2784,-4.1858,-3.9741,-3.9708,-3.9947,-4.0351,-4.1465,-4.2724,-4.4312,-4.547,-4.633,-4.6969,-4.8894,-4.9827,-4.986,-5.0564,-5.0607,-0.8587,0.0,-0.8187,-0.832,-0.8318,-0.8584,0.0,-1.0568,-1.1494,0.0,0.0,0.0,0.0,-1.3104,-1.2704,-1.2309,0.0,0.0,-1.1115,0.0,0.0,0.0,0.0,0.0,0.0,0.0,0.0,0.0,0.0,0.0,0.0,-1.0167,-1.0458,-1.0753,-1.0753,-1.0753,-1.0897,-1.1332,-1.1619,-1.1907,-1.2054,-1.2477,-1.3043,-1.3182,0.0,0.0,0.0,0.0,-1.5465,-1.6169,-1.7278,-1.8514,-2.0057,-2.1846,-2.3882,-2.5383,-2.7145,-2.8765,-2.9944,-3.1199,-3.246,-3.3781,-3.4853,-3.5736,-3.6406,-3.6537,-3.6668,-3.681,-3.7318,-3.7746,-3.7649,-3.754,-3.7424,-3.731,-3.7281,-3.7264,-3.7374,-3.8227,-3.906,-3.9308,-4.0658,-4.2016,-4.2663,-4.318,-4.3697,-4.4263,-4.4347,-4.4347,-4.4347,-4.4347,-4.4347,-4.4347,-4.4347,-4.407,-4.3397,-4.2976,-4.1858,-3.9741,-4.0523,-4.0963,-4.0465,-4.2336,-4.3693,-4.4312,-4.6332,-4.7651,-4.829,-4.9808,-5.0583,-5.0638,-5.0841,-5.086,-0.925,-0.8984,-0.8587,-0.8587,-0.8984,-0.9646,-1.0704,-1.1762,0.0,0.0,0.0,0.0,0.0,0.0,0.0,0.0,-1.1912,0.0,0.0,0.0,0.0,0.0,0.0,0.0,0.0,0.0,0.0,0.0,0.0,0.0,0.0,-1.0458,-1.075,-1.1044,-1.1188,-1.1332,-1.1332,-1.1619,-1.1907,-1.2194,-1.2477,-1.3047,-1.3611,-1.3757,-1.4328,0.0,0.0,0.0,-1.6457,-1.688,-1.8121,-2.019,-2.1846,-2.3617,-2.5644,-2.7535,-2.8888,-2.9987,-3.1217,-3.2581,-3.4049,-3.4932,-3.5968,-3.6716,-3.7126,-3.7401,-3.7544,-3.7544,-3.7984,-3.8322,-3.8104,-3.8028,-3.7952,-3.7719,-3.7479,-3.7506,-3.7736,-3.8585,-3.9426,-3.965,-4.12,-4.2423,-4.2711,-4.3397,-4.3998,-4.4299,-4.4347,-4.4347,-4.4347,-4.4347,-4.4347,-4.4347,-4.4347,-4.4118,-4.3553,-4.3048,-4.1966,-4.009,-4.096,-4.145,-4.1119,-4.2917,-4.4411,-4.5417,-4.7268,-4.8552,-4.9172,-5.0653,-5.1545,-5.1815,-5.1871,-5.178,-0.9646,-0.925,-0.8587,-0.8853,-0.9516,-1.0439,-1.1497,0.0,0.0,0.0,0.0,0.0,0.0,-1.3358,0.0,0.0,0.0,0.0,0.0,0.0,0.0,0.0,0.0,0.0,0.0,0.0,0.0,0.0,0.0,0.0,0.0,-1.0894,-1.1188,-1.1188,-1.1476,-1.1763,-1.176,-1.2051,-1.2194,-1.2338,-1.3043,-1.3468,-1.4043,-1.4336,-1.4901,-1.5607,0.0,0.0,-1.7308,-1.7726,-1.9245,-2.159,-2.3617,-2.5383,-2.7161,-2.949,-3.044,-3.0763,-3.2422,-3.4097,-3.5495,-3.5954,-3.6767,-3.7616,-3.7616,-3.7904,-3.8314,-3.8314,-3.8426,-3.8587,-3.8319,-3.8338,-3.8215,-3.7805,-3.7533,-3.7626,-3.8227,-3.8823,-3.9532,-4.0106,-4.1661,-4.276,-4.276,-4.3637,-4.4347,-4.4347,-4.4347,-4.4347,-4.4347,-4.4347,-4.4347,-4.4347,-4.4347,-4.4154,-4.3673,-4.3096,-4.2228,-4.0934,-4.1485,-4.2087,-4.2609,-4.3737,-4.5245,-4.7007,-4.8174,-4.9121,-4.9946,-5.1241,-5.226,-5.2993,-5.3067,-5.2843,-0.8853,-0.872,-0.8853,-0.9779,-1.0041,-1.0439,-1.1497,-1.2553,0.0,0.0,0.0,0.0,0.0,-1.3358,-1.3104,0.0,0.0,0.0,0.0,0.0,0.0,0.0,0.0,0.0,0.0,0.0,0.0,0.0,0.0,0.0,0.0,-1.1332,-1.1619,-1.2051,-1.2051,-1.2334,-1.2613,-1.2334,-1.2477,-1.3186,-1.3182,-1.3757,-1.4474,-1.4474,-1.4901,-1.5603,0.0,-1.6875,-1.7444,-1.9663,-2.1314,-2.2819,-2.5248,-2.6886,-2.8287,-3.0197,-3.1112,-3.1597,-3.3823,-3.5111,-3.5944,-3.6723,-3.7297,-3.7626,-3.8037,-3.8304,-3.8681,-3.8681,-3.8681,-3.8793,-3.9267,-3.8852,-3.8301,-3.8614,-3.8029,-3.7626,-3.8227,-3.8823,-3.9532,-4.0106,-4.1661,-4.276,-4.276,-4.3637,-4.4347,-4.4347,-4.4347,-4.4347,-4.4347,-4.4347,-4.4347,-4.4347,-4.4347,-4.4311,-4.4227,-4.3566,-4.2947,-4.2724,-4.3031,-4.4089,-4.6003,-4.6281,-4.703,-4.8406,-4.8624,-4.9355,-5.0644,-5.1467,-5.226,-5.2993,-5.3067,-5.3414,-1.0041,-0.9513,-0.8987,-1.0704,-1.0836,-1.0836,-1.1365,-1.2553,0.0,0.0,0.0,0.0,0.0,0.0,0.0,0.0,0.0,0.0,0.0,0.0,0.0,0.0,0.0,0.0,0.0,0.0,0.0,0.0,0.0,0.0,0.0,0.0,-1.2051,-1.2194,-1.2477,-1.2757,-1.3039,-1.3047,-1.319,-1.3325,-1.3757,-1.4189,-1.4763,-1.5044,-1.5607,-1.6598,0.0,-1.758,-1.8557,-1.9808,-2.1721,-2.4167,-2.5644,-2.7656,-2.9924,-3.1646,-3.2726,-3.3491,-3.4547,-3.5642,-3.6673,-3.7008,-3.7492,-3.8037,-3.8304,-3.8559,-3.8814,-3.9088,-3.922,-3.9352,-3.9625,-3.9174,-3.8575,-3.8712,-3.8341,-3.8107,-3.8704,-3.9297,-4.0001,-4.0583,-4.1564,-4.2423,-4.2711,-4.3397,-4.3998,-4.4299,-4.4347,-4.4347,-4.4347,-4.4347,-4.4347,-4.4347,-4.447,-4.4816,-4.5488,-4.4842,-4.4156,-4.3568,-4.3688,-4.451,-4.6225,-4.6983,-4.7622,-4.8203,-4.9267,-5.0307,-5.1434,-5.217,-5.2905,-5.364,-5.3616,-5.3895,-1.123,-1.0306,-0.9247,-1.1494,-1.1494,-1.0969,-1.1097,-1.2421,0.0,0.0,0.0,0.0,0.0,0.0,0.0,0.0,0.0,0.0,0.0,0.0,0.0,0.0,0.0,0.0,0.0,0.0,0.0,0.0,0.0,0.0,0.0,0.0,-1.2338,-1.2477,-1.2757,-1.3182,-1.3611,-1.39,-1.39,-1.3615,-1.4332,-1.4763,-1.519,-1.5607,-1.6457,-1.7308,-1.7726,-1.8422,-1.9535,-2.0086,-2.2127,-2.5113,-2.6249,-2.8718,-3.179,-3.3025,-3.4079,-3.5114,-3.5239,-3.6117,-3.7079,-3.7213,-3.7626,-3.8314,-3.8549,-3.8814,-3.8946,-3.9483,-3.9757,-3.9866,-3.9747,-3.9215,-3.8805,-3.8685,-3.8498,-3.8466,-3.919,-3.9767,-4.0351,-4.1057,-4.1605,-4.2134,-4.2663,-4.318,-4.3697,-4.4263,-4.4347,-4.4347,-4.4347,-4.4347,-4.4347,-4.447,-4.4594,-4.5354,-4.6569,-4.6202,-4.5536,-4.4753,-4.447,-4.4847,-4.6098,-4.7187,-4.7934,-4.8252,-4.9946,-5.1263,-5.217,-5.2726,-5.3377,-5.4087,-5.4327,-5.4594,-1.1219,-1.0429,-0.9643,-1.2142,-1.1487,0.0,-1.1097,-1.2025,0.0,-1.3744,0.0,0.0,0.0,0.0,0.0,0.0,0.0,0.0,0.0,0.0,0.0,0.0,0.0,0.0,0.0,0.0,0.0,0.0,0.0,0.0,0.0,0.0,0.0,-1.3182,-1.3182,-1.3615,-1.4479,-1.4479,-1.4479,-1.4474,-1.4763,-1.5186,-1.5607,-1.631,-1.6875,-1.7449,-1.8697,-1.9396,-1.9675,-2.1753,-2.3515,-2.527,-2.7613,-3.0637,-3.369,-3.4086,-3.4776,-3.5568,-3.6209,-3.6634,-3.7213,-3.7482,-3.7904,-3.8314,-3.8549,-3.8946,-3.922,-3.9625,-4.0018,-4.017,-3.9722,-3.922,-3.8717,-3.827,-3.8254,-3.8466,-3.919,-3.9767,-4.0351,-4.1057,-4.1605,-4.2134,-4.2663,-4.318,-4.3697,-4.4263,-4.4347,-4.4347,-4.4347,-4.4347,-4.447,-4.4717,-4.484,-4.5327,-4.6631,-4.711,-4.7175,-4.6881,-4.6124,-4.6051,-4.6737,-4.7419,-4.8404,-4.9616,-5.0436,-5.1542,-5.292,-5.3009,-5.3377,-5.4103,-5.4851,-5.5683,-1.0697,-0.9637,-0.8712,-1.149,-1.0898,0.0,0.0,-1.2565,-1.3392,-1.3905,-1.3927,0.0,0.0,0.0,0.0,0.0,0.0,0.0,0.0,0.0,0.0,0.0,0.0,0.0,0.0,0.0,0.0,0.0,0.0,0.0,0.0,0.0,0.0,-1.3325,-1.3757,-1.4189,-1.4479,-1.4901,-1.5465,-1.5886,-1.5465,-1.5749,-1.631,-1.6875,-1.7721,-1.8697,-1.9256,-1.9953,-2.0653,-2.1484,-2.3619,-2.6691,-3.0419,-3.2783,-3.418,-3.4852,-3.5326,-3.5879,-3.6393,-3.6799,-3.7213,-3.7482,-3.7893,-3.8314,-3.8824,-3.9078,-3.9352,-3.9877,-3.9931,-3.9777,-3.9602,-3.9187,-3.8832,-3.8708,-3.8826,-3.906,-3.9767,-4.0351,-4.0942,-4.1184,-4.1341,-4.1749,-4.2615,-4.2916,-4.3337,-4.4214,-4.4347,-4.4347,-4.4347,-4.4347,-4.447,-4.4717,-4.656,-4.805,-4.9171,-4.8986,-4.8595,-4.8161,-4.6741,-4.5996,-4.6229,-4.6853,-4.7848,-4.9203,-5.0304,-5.1577,-5.3009,-5.3465,-5.3829,-5.4103,-5.4918,-5.5843,-1.0836,-0.964,-0.8709,-1.1886,-1.1441,0.0,-1.2664,-1.3228,-1.3553,-1.3893,-1.3865,0.0,0.0,0.0,0.0,0.0,0.0,0.0,0.0,0.0,0.0,0.0,0.0,0.0,0.0,0.0,0.0,0.0,0.0,0.0,0.0,0.0,0.0,0.0,-1.4332,-1.4763,-1.4901,-1.5607,-1.631,-1.6875,-1.6588,-1.6729,-1.7288,-1.7721,-1.8563,-1.9529,-1.9814,-2.0509,-2.1214,-2.1891,-2.4689,-2.8829,-3.2385,-3.4111,-3.4786,-3.5364,-3.5743,-3.6278,-3.6529,-3.6934,-3.7348,-3.7626,-3.8037,-3.8314,-3.8956,-3.922,-3.9352,-4.0138,-3.993,-3.9515,-3.9362,-3.8969,-3.8602,-3.8841,-3.9073,-3.9414,-4.0106,-4.0711,-4.1184,-4.1184,-4.1184,-4.1473,-4.2363,-4.2651,-4.306,-4.395,-4.4239,-4.4347,-4.4347,-4.4347,-4.4816,-4.5646,-4.839,-5.0395,-5.1019,-5.047,-4.9741,-4.9088,-4.7245,-4.6098,-4.5895,-4.6658,-4.7639,-4.891,-5.0469,-5.1852,-5.3065,-5.3719,-5.4242,-5.4465,-5.5377,-5.6282,-1.1765,-1.0704,-0.9905,-1.346,-1.3075,0.0,-1.4263,-1.4044,-1.344,-1.3541,0.0,-1.4056,-1.3644,0.0,0.0,0.0,0.0,0.0,0.0,0.0,0.0,0.0,0.0,0.0,0.0,0.0,0.0,0.0,0.0,0.0,0.0,0.0,0.0,0.0,-1.4763,-1.5186,-1.5607,-1.631,-1.6875,-1.7308,-1.7996,-1.8412,-1.8406,-1.9111,-1.9535,-1.9535,-2.0653,-2.1214,-2.1346,-2.3659,-2.7137,-3.1108,-3.3055,-3.4571,-3.5479,-3.5479,-3.587,-3.6519,-3.6944,-3.7348,-3.7626,-3.8048,-3.8181,-3.8314,-3.8956,-3.922,-3.9352,-4.0138,-3.9919,-3.9438,-3.8947,-3.8466,-3.8098,-3.8219,-3.8823,-3.9414,-4.0118,-4.0711,-4.1184,-4.1184,-4.1184,-4.1353,-4.1882,-4.2411,-4.2928,-4.3433,-4.3986,-4.4347,-4.4347,-4.4594,-4.5525,-4.7365,-5.0099,-5.1688,-5.1688,-5.1101,-5.0394,-4.9756,-4.7898,-4.6548,-4.5909,-4.7154,-4.8207,-4.8951,-5.0944,-5.2348,-5.3107,-5.3771,-5.4549,-5.5296,-5.6343,-5.7288,-1.0319,-0.9779,0.0,-1.2018,0.0,0.0,0.0,-1.4616,0.0,0.0,0.0,-1.4394,0.0,0.0,0.0,0.0,0.0,0.0,0.0,0.0,0.0,0.0,0.0,0.0,0.0,0.0,0.0,0.0,0.0,0.0,0.0,0.0,0.0,0.0,-1.5186,-1.5749,-1.6306,-1.6875,-1.7721,-1.8837,-1.9117,-1.9111,-1.9111,-1.9396,-1.9953,-2.0653,-2.1069,-2.1484,-2.2336,-2.601,-2.8527,-3.009,-3.3578,-3.5237,-3.5616,-3.5996,-3.6393,-3.6654,-3.7213,-3.7482,-3.7626,-3.8048,-3.8304,-3.8692,-3.9088,-3.9352,-3.955,-3.9735,-3.9416,-3.8936,-3.8444,-3.8331,-3.8406,-3.8857,-3.919,-3.9532,-4.0711,-4.1069,-4.1184,-4.1184,-4.1184,-4.1353,-4.1882,-4.2411,-4.2928,-4.3433,-4.3986,-4.4347,-4.4594,-4.5864,-4.7247,-4.8749,-5.056,-5.2028,-5.2943,-5.1555,-5.0394,-4.9727,-4.8322,-4.7228,-4.6609,-4.7007,-4.7932,-4.9704,-5.0275,-5.1412,-5.3107,-5.3967,-5.4843,-5.5523,-5.7089,-5.8304,-0.9525,0.0,0.0,0.0,-1.2363,-1.3278,0.0,0.0,0.0,0.0,0.0,0.0,0.0,0.0,0.0,0.0,0.0,0.0,0.0,0.0,0.0,0.0,0.0,0.0,0.0,0.0,0.0,0.0,0.0,0.0,0.0,0.0,0.0,0.0,-1.5891,-1.6457,-1.6875,-1.7721,-1.8563,-1.9535,-1.9953,-2.0231,-2.0231,-2.0231,-2.0653,-2.1496,-2.1742,-2.2612,-2.4024,-2.6985,-2.8766,-2.997,-3.2619,-3.4204,-3.4902,-3.5422,-3.6103,-3.6799,-3.7348,-3.776,-3.7904,-3.8181,-3.8437,-3.8814,-3.9078,-3.9344,-3.9412,-3.9635,-3.9067,-3.8477,-3.8182,-3.8232,-3.8466,-3.9178,-3.9532,-3.9884,-4.0942,-4.1184,-4.1184,-4.1184,-4.1184,-4.128,-4.1605,-4.2267,-4.2868,-4.3168,-4.3988,-4.4816,-4.5755,-4.7365,-4.8851,-5.0211,-5.1579,-5.2716,-5.341,-5.2006,-5.0772,-5.0119,-4.8889,-4.8045,-4.7683,-4.7729,-4.827,-4.9538,-5.0066,-5.1332,-5.3261,-5.4146,-5.5296,-5.6728,-5.784,-5.8941,-0.9253,0.0,0.0,0.0,0.0,0.0,0.0,0.0,0.0,0.0,0.0,0.0,0.0,0.0,0.0,0.0,0.0,0.0,0.0,0.0,0.0,0.0,0.0,0.0,0.0,0.0,0.0,0.0,0.0,0.0,0.0,0.0,0.0,-1.5744,-1.688,-1.7444,-1.7449,-1.8837,-1.9529,-1.9675,-2.0653,-2.1214,-2.1346,-2.1214,-2.149,-2.1917,-2.2617,-2.3997,-2.5862,-2.6758,-2.8436,-3.0176,-3.0808,-3.207,-3.3623,-3.4029,-3.5275,-3.6799,-3.7069,-3.7482,-3.776,-3.7904,-3.8129,-3.8476,-3.8882,-3.8957,-3.8959,-3.93,-3.8783,-3.8095,-3.8174,-3.8199,-3.8585,-3.9178,-3.9767,-4.0339,-4.1069,-4.1184,-4.1184,-4.1184,-4.1184,-4.1184,-4.1184,-4.2062,-4.2796,-4.3011,-4.4087,-4.5646,-4.7377,-4.8736,-5.0099,-5.1565,-5.2822,-5.3515,-5.3515,-5.2354,-5.1352,-5.0813,-4.9646,-4.8985,-4.8981,-4.8943,-4.8969,-4.905,-5.0355,-5.1789,-5.3432,-5.4338,-5.5946,-5.82,-5.8617,-5.9509,0.0,-1.0445,0.0,0.0,0.0,0.0,0.0,0.0,0.0,0.0,0.0,0.0,0.0,0.0,0.0,0.0,0.0,0.0,0.0,0.0,0.0,0.0,0.0,0.0,0.0,0.0,0.0,0.0,0.0,0.0,0.0,0.0,0.0,-1.6885,-1.7715,-1.8412,-1.8977,-1.9396,-1.9953,0.0,-2.1069,-2.1484,-2.2035,-2.1766,-2.1897,-2.2186,-2.3173,-2.3988,-2.4792,-2.6989,-2.8444,-2.9266,-3.0759,-3.1649,-3.207,-3.2761,-3.317,-3.3716,-3.4268,-3.4543,-3.4827,-3.5412,-3.5588,-3.5974,-3.7338,-3.7681,-3.7742,-3.8271,-3.827,-3.8141,-3.8243,-3.8664,-3.9297,-3.9873,-4.0106,-4.0339,-4.1069,-4.1184,-4.1184,-4.1184,-4.1184,-4.1184,-4.1184,-4.2062,-4.3168,-4.4244,-4.5594,-4.6891,-4.7482,-4.9748,-5.1347,-5.1674,-5.2822,-5.3515,-5.3515,-5.2354,-5.1539,-5.1571,-5.0903,-5.0269,-4.9766,-4.9192,-4.9293,-5.0104,-5.0836,-5.1847,-5.309,-5.508,-5.6559,-5.7707,-5.9604,-6.0891,0.0,0.0,0.0,0.0,0.0,0.0,0.0,0.0,0.0,0.0,0.0,0.0,0.0,0.0,0.0,0.0,0.0,0.0,0.0,0.0,0.0,0.0,0.0,0.0,0.0,0.0,0.0,0.0,0.0,0.0,0.0,-1.7026,-1.7444,-1.7861,-1.8552,-1.9251,-1.9808,-2.0092,-2.0653,-2.149,-2.1622,-2.2173,-2.2859,-2.2448,-2.2448,-2.2879,-2.3739,-2.4447,-2.5052,-2.6643,-2.7515,-2.797,-2.8963,-2.9957,-3.0801,-3.135,-3.2053,-3.291,-3.3577,-3.3707,-3.3826,-3.4355,-3.469,-3.4987,-3.6133,-3.6279,-3.6253,-3.6645,-3.6539,-3.6555,-3.7418,-3.8074,-3.8908,-3.9989,-4.0467,-4.0826,-4.1057,-4.1184,-4.1184,-4.1184,-4.1184,-4.1184,-4.1184,-4.2167,-4.3683,-4.5581,-4.6773,-4.7925,-4.9408,-5.0782,-5.192,-5.2487,-5.317,-5.3515,-5.3515,-5.2632,-5.2141,-5.2195,-5.1743,-5.1174,-5.072,-5.0414,-5.0438,-5.0859,-5.1336,-5.2395,-5.4121,-5.5638,-5.7127,-5.8619,-6.0253,-6.1433,0.0,0.0,-1.26,0.0,0.0,0.0,0.0,0.0,0.0,0.0,0.0,0.0,0.0,0.0,0.0,0.0,0.0,0.0,0.0,0.0,0.0,0.0,0.0,0.0,0.0,0.0,0.0,0.0,0.0,0.0,-1.7308,-1.7585,-1.8002,-1.8552,-1.9251,-1.9953,-2.0225,-2.0931,-2.149,-2.1904,-2.231,-2.2859,-2.3543,-2.327,-2.327,-2.3577,-2.4183,-2.4876,-2.5505,-2.6279,-2.6692,-2.6991,-2.7136,-2.8114,-2.952,-2.9949,-3.1084,-3.2491,-3.2811,-3.2923,-3.3137,-3.3465,-3.3819,-3.4203,-3.4799,-3.4903,-3.4809,-3.4936,-3.479,-3.4881,-3.6603,-3.7451,-3.8291,-3.9989,-4.0826,-4.1184,-4.1184,-4.1184,-4.1184,-4.1184,-4.1256,-4.1377,-4.1673,-4.2749,-4.4457,-4.6844,-4.7808,-4.9066,-5.1456,-5.1906,-5.238,-5.3395,-5.3515,-5.3515,-5.371,-5.311,-5.2836,-5.3032,-5.2581,-5.2192,-5.1894,-5.2013,-5.2069,-5.1811,-5.2043,-5.3123,-5.5193,-5.5998,-5.7514,-5.9612,-6.0532,-6.1569,0.0,0.0,-1.2266,0.0,0.0,0.0,0.0,0.0,0.0,0.0,0.0,0.0,0.0,0.0,0.0,0.0,0.0,0.0,0.0,0.0,0.0,0.0,0.0,0.0,0.0,0.0,0.0,0.0,0.0,0.0,-1.7308,-1.8557,-1.9256,-1.939,-2.0098,-2.0665,-2.1069,-2.1207,-2.1484,-2.231,-2.2996,-2.3543,-2.3959,-2.3823,-2.3823,-2.3994,-2.4896,-2.5447,-2.5505,-2.6576,-2.6991,-2.6991,-2.7412,-2.7695,-2.7977,-2.8691,-2.9122,-2.9361,-2.9482,-2.9798,-3.043,-3.0754,-3.1219,-3.1715,-3.3243,-3.3434,-3.334,-3.4213,-3.4693,-3.5273,-3.7199,-3.7932,-3.8659,-4.0583,-4.1184,-4.1184,-4.1184,-4.1184,-4.1184,-4.1184,-4.1557,-4.2264,-4.3408,-4.4687,-4.5905,-4.7262,-4.9395,-5.0975,-5.1565,-5.2594,-5.329,-5.3515,-5.3515,-5.3815,-5.4494,-5.3396,-5.3226,-5.4575,-5.3928,-5.3411,-5.3417,-5.3994,-5.4222,-5.402,-5.3432,-5.3632,-5.4787,-5.5985,-5.7346,-5.8884,-6.0141,-6.1438,-1.0721,-1.1272,-1.2075,0.0,-1.4262,-1.4983,-1.5186,0.0,0.0,0.0,0.0,0.0,0.0,0.0,0.0,0.0,0.0,0.0,0.0,0.0,0.0,0.0,0.0,0.0,0.0,0.0,0.0,0.0,0.0,-1.7726,-1.8422,-1.9117,-1.9675,-2.0104,-2.0659,-2.1214,-2.149,-2.176,-2.2173,-2.2853,-2.3406,-2.3959,-2.4231,-2.4503,-2.451,-2.4259,-2.4989,-2.543,-2.5772,-2.6522,-2.6967,-2.7412,-2.755,-2.7734,-2.8006,-2.8284,-2.8444,-2.8381,-2.8511,-2.8881,-2.9647,-2.9953,-3.0386,-3.1139,-3.2097,-3.215,-3.2128,-3.2629,-3.3505,-3.4746,-3.6438,-3.7779,-3.8992,-4.0815,-4.1184,-4.1184,-4.1184,-4.1184,-4.1268,-4.1569,-4.205,-4.2983,-4.4761,-4.5569,-4.6901,-4.9301,-5.0643,-5.1783,-5.2594,-5.317,-5.3515,-5.3515,-5.3515,-5.3815,-5.4597,-5.3892,-5.3899,-5.5298,-5.4727,-5.4464,-5.4845,-5.513,-5.548,-5.5855,-5.4689,-5.4425,-5.5174,-5.6411,-5.779,-5.9168,-6.0547,-6.1893,0.0,0.0,-1.2312,-1.2965,-1.3829,-1.4707,0.0,0.0,0.0,0.0,0.0,0.0,0.0,0.0,0.0,0.0,0.0,0.0,0.0,0.0,0.0,0.0,0.0,0.0,0.0,0.0,0.0,0.0,0.0,-1.8282,-1.9396,-1.9675,-2.0098,-2.0804,-2.1075,-2.149,-2.1904,-2.231,-2.2859,-2.3543,-2.3952,-2.4367,-2.4638,-2.4916,-2.4916,-2.466,-2.4977,-2.5389,-2.5915,-2.6393,-2.6809,-2.7311,-2.7591,-2.7875,-2.8084,-2.8217,-2.8184,-2.8209,-2.813,-2.864,-2.9393,-2.9563,-3.024,-3.1109,-3.134,-3.1625,-3.1754,-3.1754,-3.299,-3.4726,-3.6306,-3.7757,-3.9216,-4.0815,-4.1184,-4.122,-4.1353,-4.1377,-4.1581,-4.2242,-4.302,-4.4134,-4.58,-4.6927,-4.8432,-5.0906,-5.1783,-5.2487,-5.3395,-5.3515,-5.3515,-5.3515,-5.371,-5.4112,-5.4902,-5.4561,-5.473,-5.5931,-5.5432,-5.5393,-5.6029,-5.6127,-5.6568,-5.7274,-5.6102,-5.5584,-5.5788,-5.6709,-5.7855,-5.9232,-6.0578,-6.1974,0.0,-1.2431,0.0,-1.3308,-1.3727,0.0,0.0,0.0,0.0,0.0,0.0,0.0,0.0,0.0,0.0,0.0,0.0,0.0,0.0,0.0,0.0,0.0,0.0,0.0,0.0,0.0,0.0,0.0,0.0,-1.9396,-1.9535,-2.0243,-2.0804,-2.1214,-2.1214,-2.1484,-2.231,-2.2989,-2.3543,-2.3959,-2.4367,-2.4638,-2.5059,-2.5052,-2.5052,-2.5074,-2.5388,-2.5542,-2.5579,-2.6334,-2.6631,-2.6786,-2.747,-2.7741,-2.7725,-2.8118,-2.8241,-2.8178,-2.7868,-2.8681,-2.9679,-2.9453,-3.0239,-3.1405,-3.1387,-3.2128,-3.2883,-3.2883,-3.4258,-3.6114,-3.744,-3.8387,-3.9463,-4.093,-4.1184,-4.1317,-4.1822,-4.193,-4.223,-4.3228,-4.4586,-4.5931,-4.6844,-4.9214,-5.1167,-5.1565,-5.2716,-5.341,-5.3515,-5.3515,-5.3515,-5.3515,-5.42,-5.5003,-5.5819,-5.5704,-5.5931,-5.667,-5.6302,-5.6274,-5.6778,-5.7087,-5.7484,-5.8005,-5.7758,-5.7298,-5.6543,-5.6443,-5.7065,-5.8417,-5.9822,-6.1181,0.0,0.0,0.0,-1.3061,-1.4198,-1.5229,0.0,0.0,0.0,0.0,0.0,0.0,0.0,0.0,0.0,0.0,0.0,0.0,0.0,0.0,0.0,0.0,0.0,0.0,0.0,0.0,0.0,0.0,0.0,-1.9675,-2.0243,-2.0798,-2.1075,-2.1214,-2.1622,-2.2173,-2.2722,-2.3133,-2.3543,-2.3959,-2.4367,-2.4774,-2.5059,-2.5059,-2.5059,-2.5066,-2.5448,-2.5754,-2.5963,-2.622,-2.6677,-2.7285,-2.7563,-2.77,-2.7642,-2.7771,-2.7764,-2.755,-2.7967,-2.8718,-2.9479,-2.9874,-3.0602,-3.1506,-3.2128,-3.2629,-3.3,-3.3631,-3.5479,-3.7199,-3.7681,-3.9121,-4.0571,-4.1057,-4.1437,-4.1834,-4.2363,-4.2471,-4.2687,-4.3373,-4.5052,-4.6729,-4.7976,-4.9833,-5.1551,-5.2716,-5.317,-5.3515,-5.3515,-5.3515,-5.371,-5.42,-5.4494,-5.519,-5.6603,-5.6077,-5.611,-5.7206,-5.6823,-5.7013,-5.7814,-5.8288,-5.8868,-5.9394,-5.917,-5.8733,-5.7952,-5.8195,-5.8782,-5.9682,-6.1071,-6.2067,-1.2289,0.0,0.0,0.0,0.0,-1.5279,0.0,0.0,0.0,0.0,0.0,0.0,0.0,0.0,0.0,0.0,0.0,0.0,0.0,0.0,0.0,0.0,0.0,0.0,0.0,0.0,0.0,0.0,0.0,0.0,-2.0665,-2.1075,-2.1352,-2.1622,-2.2173,-2.2722,-2.2996,-2.3406,-2.3823,-2.4231,-2.4503,-2.4781,-2.5059,-2.5059,-2.5059,-2.5059,-2.5464,-2.5726,-2.5928,-2.6201,-2.6732,-2.7352,-2.7489,-2.7484,-2.7558,-2.7558,-2.7541,-2.76,-2.813,-2.8922,-2.97,-3.0222,-3.0741,-3.1635,-3.2629,-3.3126,-3.3631,-3.4632,-3.6592,-3.8302,-3.8302,-3.9872,-4.1449,-4.1449,-4.1858,-4.2493,-4.3369,-4.3252,-4.3277,-4.416,-4.5912,-4.7782,-4.918,-5.0865,-5.2352,-5.3395,-5.3515,-5.3515,-5.3515,-5.371,-5.4097,-5.4684,-5.519,-5.5986,-5.7259,-5.6735,-5.6726,-5.7699,-5.7363,-5.7537,-5.8334,-5.8978,-5.9551,-6.0089,-6.0189,-6.0067,-5.9757,-5.9812,-6.0035,-6.043,-6.1886,-6.3006,0.0,0.0,0.0,0.0,0.0,0.0,-1.5524,0.0,0.0,0.0,0.0,0.0,0.0,0.0,0.0,0.0,0.0,0.0,0.0,0.0,0.0,0.0,0.0,0.0,0.0,0.0,0.0,0.0,-2.0665,-2.0665,-2.0665,-2.1075,-2.1622,-2.231,-2.2722,-2.2996,-2.3406,-2.3823,-2.4231,-2.4503,-2.4916,-2.5059,-2.5059,-2.5059,-2.5059,-2.5194,-2.5464,-2.5599,-2.5734,-2.6391,-2.6666,-2.6792,-2.7067,-2.72,-2.72,-2.72,-2.7733,-2.8263,-2.8263,-2.9176,-3.0352,-3.0352,-3.087,-3.1625,-3.2629,-3.3631,-3.4632,-3.5623,-3.7583,-3.9308,-3.932,-4.0634,-4.1978,-4.199,-4.2399,-4.3274,-4.473,-4.4242,-4.405,-4.5547,-4.7469,-4.9281,-5.0238,-5.215,-5.3515,-5.3515,-5.3515,-5.3515,-5.3515,-5.42,-5.4699,-5.48,-5.6198,-5.7275,-5.7808,-5.7644,-5.7716,-5.8199,-5.7863,-5.7865,-5.8405,-5.8978,-5.9551,-6.0089,-6.0722,-6.1336,-6.1951,-6.0925,-6.0467,-6.0515,-6.2137,-6.3849,-1.2557,0.0,0.0,0.0,0.0,0.0,-1.4893,-1.4704,0.0,0.0,0.0,0.0,0.0,0.0,0.0,0.0,0.0,0.0,0.0,0.0,0.0,0.0,0.0,0.0,0.0,0.0,0.0,0.0,-2.0665,-2.0665,-2.0665,-2.1352,-2.2035,-2.2722,-2.2859,-2.2996,-2.3406,-2.3823,-2.4231,-2.4503,-2.4916,-2.5059,-2.5059,-2.5059,-2.5194,-2.5464,-2.5869,-2.6138,-2.6398,-2.6666,-2.6792,-2.7067,-2.72,-2.72,-2.72,-2.72,-2.7733,-2.8403,-2.8922,-2.9569,-3.0352,-3.0861,-3.1249,-3.1754,-3.3505,-3.4123,-3.4746,-3.6502,-3.8085,-3.9625,-4.094,-4.1624,-4.2074,-4.2459,-4.3525,-4.4536,-4.4923,-4.5617,-4.6289,-4.6692,-4.8532,-5.0113,-5.035,-5.215,-5.3515,-5.3515,-5.3515,-5.371,-5.4304,-5.4597,-5.519,-5.6296,-5.7164,-5.7917,-5.861,-5.827,-5.8265,-5.8784,-5.842,-5.8422,-5.9064,-5.96,-6.0118,-6.0722,-6.1336,-6.1933,-6.2493,-6.2205,-6.199,-6.1863,-6.2975,-6.4197,0.0,0.0,0.0,0.0,0.0,0.0,-1.5385,-1.4572,-1.4314,0.0,0.0,0.0,0.0,0.0,0.0,0.0,0.0,0.0,0.0,0.0,0.0,0.0,0.0,0.0,0.0,-1.9535,-2.0243,-2.0665,-2.0665,-2.0804,-2.1081,-2.1766,-2.231,-2.2866,-2.2859,-2.3133,-2.3679,-2.3823,-2.4231,-2.4781,-2.5052,-2.5059,-2.5059,-2.5059,-2.5329,-2.5599,-2.6003,-2.6272,-2.6666,-2.68,-2.7067,-2.72,-2.72,-2.72,-2.72,-2.76,-2.813,-2.8782,-2.9438,-3.0222,-3.0861,-3.1249,-3.1625,-3.2384,-3.3882,-3.4746,-3.5376,-3.7242,-3.884,-4.0269,-4.1647,-4.2291,-4.2687,-4.3,-4.4181,-4.5415,-4.588,-4.6962,-4.7782,-4.7782,-4.9019,-5.0252,-5.0837,-5.2179,-5.3184,-5.3515,-5.3515,-5.3815,-5.4597,-5.5003,-5.5705,-5.6988,-5.7653,-5.8193,-5.8751,-5.8502,-5.8426,-5.8842,-5.8838,-5.8909,-5.9284,-5.9814,-6.0388,-6.1022,-6.1564,-6.2305,-6.3091,-6.3091,-6.3185,-6.34,-6.3941,-6.4756,0.0,0.0,0.0,0.0,0.0,0.0,-1.6374,-1.4777,-1.3626,0.0,0.0,0.0,0.0,0.0,0.0,0.0,0.0,0.0,0.0,0.0,0.0,0.0,0.0,0.0,-1.9396,-2.0243,-2.0665,-2.0665,-2.0665,-2.1081,-2.1766,-2.2173,-2.2448,-2.2859,-2.2859,-2.327,-2.3959,-2.3959,-2.4374,-2.5059,-2.5059,-2.5059,-2.5059,-2.5059,-2.5329,-2.5734,-2.6003,-2.6406,-2.68,-2.7067,-2.72,-2.72,-2.72,-2.72,-2.7334,-2.8006,-2.8659,-2.9447,-2.9961,-3.0741,-3.1377,-3.1497,-3.2128,-3.3126,-3.4248,-3.5129,-3.6258,-3.8043,-3.9698,-4.1141,-4.1992,-4.282,-4.3529,-4.3699,-4.4925,-4.6238,-4.7193,-4.812,-4.87,-4.87,-4.9261,-5.0167,-5.1554,-5.2207,-5.2851,-5.341,-5.362,-5.3904,-5.4699,-5.5506,-5.6311,-5.7195,-5.7871,-5.8446,-5.861,-5.8476,-5.8532,-5.8732,-5.9131,-5.9334,-5.9418,-5.9943,-6.0494,-6.1063,-6.1732,-6.2599,-6.3602,-6.3602,-6.4009,-6.4799,-6.4881,-6.5351,0.0,0.0,0.0,0.0,0.0,0.0,-1.537,-1.4511,-1.4059,0.0,0.0,0.0,0.0,0.0,0.0,0.0,0.0,0.0,0.0,0.0,0.0,0.0,0.0,0.0,-1.9529,-2.0243,-2.0665,-2.0665,-2.0943,-2.1484,-2.2173,-2.231,-2.2448,-2.2859,-2.2859,-2.327,-2.3959,-2.3959,-2.4374,-2.5059,-2.5059,-2.5059,-2.5059,-2.5059,-2.5464,-2.6003,-2.6003,-2.654,-2.7067,-2.72,-2.72,-2.72,-2.72,-2.72,-2.72,-2.7334,-2.8254,-2.9307,-2.9438,-3.0343,-3.1497,-3.2374,-3.2756,-3.3253,-3.5005,-3.5746,-3.6444,-3.9047,-4.0322,-4.1306,-4.2868,-4.3361,-4.3856,-4.5023,-4.6163,-4.7193,-4.812,-4.9058,-4.977,-4.977,-5.0208,-5.0878,-5.1677,-5.2207,-5.2851,-5.341,-5.3993,-5.48,-5.5506,-5.6409,-5.7195,-5.798,-5.8534,-5.879,-5.861,-5.8791,-5.9003,-5.931,-5.934,-5.9467,-5.9961,-6.0494,-6.1122,-6.1732,-6.275,-6.34,-6.3602,-6.371,-6.4109,-6.4799,-6.4984,-6.5427,0.0,0.0,0.0,-1.4507,0.0,0.0,0.0,-1.3661,-1.3133,0.0,0.0,0.0,0.0,0.0,0.0,0.0,0.0,0.0,0.0,0.0,0.0,0.0,0.0,0.0,-2.0098,-2.0527,-2.0804,-2.0943,-2.1352,-2.176,-2.231,-2.2448,-2.2722,-2.2859,-2.2996,-2.3406,-2.3959,-2.4231,-2.451,-2.5059,-2.5059,-2.5059,-2.5059,-2.5059,-2.5464,-2.6138,-2.6138,-2.654,-2.7216,-2.7391,-2.7471,-2.7447,-2.7272,-2.72,-2.72,-2.76,-2.8395,-2.9316,-2.97,-3.0473,-3.1635,-3.2629,-3.3253,-3.3872,-3.55,-3.6896,-3.8243,-3.9733,-4.1135,-4.2484,-4.3252,-4.4075,-4.4816,-4.5585,-4.6824,-4.8003,-4.8469,-4.9301,-5.001,-5.001,-5.0235,-5.0795,-5.1677,-5.199,-5.2623,-5.389,-5.4392,-5.5089,-5.6311,-5.6892,-5.7385,-5.8166,-5.8142,-5.8245,-5.8421,-5.8521,-5.8782,-5.9373,-5.9627,-5.9814,-6.0089,-6.0679,-6.1394,-6.2287,-6.3176,-6.3602,-6.3602,-6.3939,-6.435,-6.4866,-6.5203,-6.5654,0.0,0.0,0.0,0.0,0.0,-1.3448,0.0,0.0,0.0,0.0,0.0,0.0,0.0,0.0,0.0,0.0,0.0,0.0,0.0,0.0,0.0,0.0,0.0,0.0,0.0,-2.0665,-2.0804,-2.1214,-2.1628,-2.2042,-2.2448,-2.2722,-2.2859,-2.2859,-2.327,-2.3543,-2.3959,-2.4367,-2.4638,-2.5059,-2.5059,-2.5059,-2.5059,-2.5059,-2.5464,-2.6138,-2.6138,-2.6579,-2.7328,-2.7614,-2.7764,-2.7796,-2.751,-2.7399,-2.7533,-2.821,-2.9001,-2.9653,-3.0311,-3.0965,-3.1866,-3.2995,-3.4256,-3.5396,-3.6276,-3.8143,-4.0094,-4.0318,-4.177,-4.3419,-4.3637,-4.4719,-4.5889,-4.601,-4.7416,-4.87,-4.8815,-4.9415,-5.001,-5.001,-5.001,-5.0348,-5.1568,-5.1882,-5.2609,-5.4479,-5.4988,-5.559,-5.6892,-5.7195,-5.759,-5.8274,-5.7642,-5.7508,-5.8232,-5.8179,-5.8417,-5.9234,-5.9814,-6.0153,-6.0262,-6.0945,-6.1806,-6.2861,-6.3336,-6.3602,-6.3602,-6.4195,-6.4626,-6.4894,-6.5379,-6.5823,0.0,0.0,0.0,0.0,-1.7014,0.0,0.0,0.0,0.0,-1.3108,0.0,0.0,0.0,0.0,0.0,0.0,0.0,0.0,0.0,0.0,0.0,0.0,0.0,0.0,0.0,-2.0665,-2.0943,-2.1628,-2.1766,-2.2042,-2.2722,-2.2866,-2.2859,-2.2859,-2.327,-2.3543,-2.3959,-2.4367,-2.4638,-2.5059,-2.5059,-2.5059,-2.5059,-2.5059,-2.5464,-2.6138,-2.6138,-2.6711,-2.7677,-2.7717,-2.7907,-2.8162,-2.8122,-2.8106,-2.8244,-2.8938,-2.9766,-3.0436,-3.1246,-3.1916,-3.2849,-3.4772,-3.6715,-3.8287,-3.8412,-3.9081,-4.0084,-4.1147,-4.1963,-4.2902,-4.3883,-4.5013,-4.601,-4.6849,-4.7886,-4.8815,-4.9656,-4.9883,-5.001,-5.001,-5.001,-5.0348,-5.1568,-5.238,-5.3294,-5.4479,-5.5888,-5.6892,-5.71,-5.7684,-5.8182,-5.8274,-5.7642,-5.7508,-5.8232,-5.8179,-5.8417,-5.9234,-5.9814,-6.0325,-6.0903,-6.1951,-6.2831,-6.3492,-6.3557,-6.3602,-6.3602,-6.4463,-6.4862,-6.4894,-6.5435,-6.5866,0.0,0.0,0.0,0.0,0.0,0.0,-1.4981,0.0,-1.3862,0.0,0.0,0.0,0.0,0.0,0.0,0.0,-1.3114,0.0,0.0,0.0,0.0,0.0,0.0,0.0,0.0,0.0,0.0,0.0,-2.2042,-2.231,-2.2859,-2.2859,-2.2996,-2.3133,-2.3543,-2.3959,-2.4231,-2.4638,-2.4916,-2.5059,-2.5059,-2.5059,-2.5059,-2.5329,-2.5599,-2.6138,-2.6406,-2.6752,-2.7455,-2.7852,-2.8098,-2.8265,-2.8686,-2.8591,-2.8363,-2.9061,-2.9883,-3.0556,-3.2034,-3.2979,-3.3908,-3.597,-3.7657,-3.8838,-3.8838,-3.9527,-4.0421,-4.1387,-4.2276,-4.3293,-4.4755,-4.5889,-4.6836,-4.7769,-4.8713,-4.9529,-4.9897,-5.001,-5.001,-5.001,-5.001,-5.0544,-5.215,-5.2779,-5.3698,-5.5774,-5.6684,-5.729,-5.7778,-5.7711,-5.7658,-5.7658,-5.7092,-5.7174,-5.8088,-5.8203,-5.8644,-5.97,-6.0307,-6.0885,-6.1508,-6.2287,-6.2977,-6.3602,-6.3602,-6.3717,-6.3939,-6.459,-6.501,-6.5263,-6.5774,-6.6082,-1.209,0.0,0.0,0.0,0.0,0.0,0.0,0.0,0.0,0.0,0.0,0.0,0.0,0.0,0.0,0.0,0.0,0.0,0.0,0.0,0.0,0.0,0.0,0.0,0.0,0.0,0.0,0.0,0.0,-2.2448,-2.2866,-2.2859,-2.2996,-2.3406,-2.3823,-2.4095,-2.4503,-2.4916,-2.5059,-2.5059,-2.5059,-2.5059,-2.5059,-2.5464,-2.5734,-2.6138,-2.6532,-2.6989,-2.7383,-2.7884,-2.8201,-2.8424,-2.8948,-2.9026,-2.8922,-2.9771,-3.0591,-3.1678,-3.3295,-3.4508,-3.5709,-3.7136,-3.8317,-3.9231,-3.9231,-3.9853,-4.0766,-4.1514,-4.252,-4.379,-4.5391,-4.6717,-4.7782,-4.8469,-4.9301,-5.001,-5.001,-5.001,-5.001,-5.001,-5.0222,-5.1058,-5.2934,-5.3265,-5.4186,-5.6684,-5.729,-5.7606,-5.7914,-5.7532,-5.7227,-5.7274,-5.675,-5.6955,-5.8362,-5.8354,-5.8875,-6.0244,-6.0885,-6.1508,-6.2094,-6.2663,-6.3158,-6.3602,-6.3602,-6.3786,-6.419,-6.4661,-6.5123,-6.552,-6.5997,-6.6205,0.0,0.0,0.0,-1.6554,0.0,0.0,0.0,0.0,-1.5419,0.0,0.0,0.0,0.0,0.0,0.0,0.0,0.0,0.0,0.0,0.0,0.0,0.0,0.0,0.0,0.0,0.0,0.0,0.0,0.0,0.0,-2.2866,-2.2859,-2.2996,-2.3406,-2.3823,-2.4095,-2.4503,-2.4916,-2.5059,-2.5059,-2.5059,-2.5059,-2.5059,-2.5464,-2.5734,-2.6138,-2.6532,-2.7122,-2.7717,-2.7741,-2.8146,-2.8757,-2.8773,-2.9389,-3.0367,-3.1243,-3.2622,-3.4268,-3.51,-3.6729,-3.8629,-3.8629,-3.943,-4.0225,-4.0225,-4.0247,-4.0636,-4.1888,-4.2993,-4.3979,-4.5391,-4.718,-4.8584,-4.8584,-4.9301,-5.001,-5.001,-5.001,-5.001,-5.001,-5.0851,-5.2201,-5.3832,-5.4024,-5.4768,-5.6781,-5.7778,-5.8022,-5.7342,-5.7231,-5.7274,-5.7393,-5.6767,-5.7181,-5.9174,-5.8675,-5.9044,-6.0885,-6.1508,-6.2094,-6.2645,-6.327,-6.3557,-6.3602,-6.3602,-6.3786,-6.419,-6.4661,-6.5123,-6.552,-6.5997,-6.6205,0.0,0.0,-1.2619,-1.6146,0.0,0.0,0.0,0.0,0.0,0.0,0.0,0.0,0.0,0.0,0.0,0.0,0.0,0.0,0.0,0.0,0.0,0.0,0.0,0.0,0.0,0.0,0.0,0.0,0.0,0.0,0.0,-2.2859,-2.314,-2.3816,-2.3959,-2.4231,-2.4916,-2.5052,-2.5059,-2.5059,-2.5059,-2.5194,-2.5464,-2.5734,-2.6138,-2.6532,-2.6934,-2.7138,-2.7399,-2.7637,-2.7868,-2.8106,-2.8321,-2.9314,-3.092,-3.1465,-3.2806,-3.458,-3.6769,-3.8528,-3.9746,-3.9746,-4.0007,-4.0279,-4.0279,-4.0279,-4.0647,-4.2627,-4.3482,-4.4338,-4.6904,-4.8107,-4.87,-4.9415,-4.977,-5.001,-5.001,-5.001,-5.0222,-5.0962,-5.1484,-5.2402,-5.4768,-5.4825,-5.5144,-5.6887,-5.738,-5.7326,-5.6631,-5.6622,-5.6723,-5.6702,-5.7077,-5.7691,-5.8624,-5.9534,-6.0344,-6.0945,-6.1915,-6.2493,-6.2695,-6.327,-6.3602,-6.3602,-6.3873,-6.4172,-6.4538,-6.5048,-6.5474,-6.5856,-6.6082,-6.6205,-1.1739,-1.1221,0.0,-1.4855,-1.5024,0.0,-1.8536,0.0,0.0,0.0,0.0,0.0,0.0,0.0,0.0,0.0,0.0,0.0,0.0,-1.3748,0.0,0.0,0.0,0.0,0.0,0.0,0.0,0.0,0.0,0.0,0.0,0.0,-2.3161,-2.3952,-2.3959,-2.4367,-2.5052,-2.5059,-2.5059,-2.5059,-2.5059,-2.5329,-2.5599,-2.6003,-2.6272,-2.6658,-2.7067,-2.72,-2.7224,-2.7447,-2.7614,-2.7757,-2.7963,-2.9215,-3.0823,-3.1609,-3.3624,-3.6219,-3.8528,-3.9746,-4.0279,-4.0279,-4.0279,-4.0279,-4.0279,-4.0279,-4.0744,-4.2771,-4.3824,-4.4903,-4.76,-4.8669,-4.9288,-4.9897,-5.001,-5.001,-5.001,-5.032,-5.0851,-5.1579,-5.2245,-5.3215,-5.5152,-5.5302,-5.5643,-5.6987,-5.701,-5.6599,-5.5904,-5.6146,-5.6415,-5.6482,-5.7263,-5.8086,-5.872,-6.0156,-6.1063,-6.1297,-6.2182,-6.2812,-6.3025,-6.3382,-6.3472,-6.3193,-6.3873,-6.4237,-6.4313,-6.5119,-6.5673,-6.6036,-6.6144,-6.6205]}]]